Time,TemperatureF,DewpointF,PressureIn,WindDirection,WindDirectionDegrees,WindSpeedMPH,WindSpeedGustMPH,Humidity,HourlyPrecipIn,Conditions,Clouds,dailyrainin,SoftwareType,DateUTC
2013-02-25 00:00:00,33.1,13.4,29.91,SW,225,10.5,13.4,44,0.00,,,0.00,WUHU216HW,2013-02-25 07:00:00,
2013-02-25 00:01:00,33.1,13.4,29.91,WSW,248,12.8,13.4,44,0.00,,,0.00,WUHU216HW,2013-02-25 07:01:00,
2013-02-25 00:02:00,33.1,13.4,29.91,West,270,6.9,15.2,44,0.00,,,0.00,WUHU216HW,2013-02-25 07:02:00,
2013-02-25 00:03:00,33.1,13.4,29.91,SW,225,9.8,15.2,44,0.00,,,0.00,WUHU216HW,2013-02-25 07:03:00,
2013-02-25 00:04:00,33.1,13.4,29.91,SW,225,11.6,15.2,44,0.00,,,0.00,WUHU216HW,2013-02-25 07:04:00,
2013-02-25 00:05:00,33.1,13.4,29.91,WSW,248,10.5,15.2,44,0.00,,,0.00,WUHU216HW,2013-02-25 07:05:00,
2013-02-25 00:06:00,32.9,12.8,29.91,West,270,10.1,15.2,43,0.00,,,0.00,WUHU216HW,2013-02-25 07:06:00,
2013-02-25 00:07:00,32.9,13.2,29.92,West,270,7.4,15.2,44,0.00,,,0.00,WUHU216HW,2013-02-25 07:07:00,
2013-02-25 00:08:00,32.9,12.8,29.92,NW,315,13.4,15.2,43,0.00,,,0.00,WUHU216HW,2013-02-25 07:08:00,
2013-02-25 00:09:00,32.9,12.8,29.92,West,270,6.7,15.2,43,0.00,,,0.00,WUHU216HW,2013-02-25 07:09:00,
2013-02-25 00:10:00,32.9,12.8,29.91,WNW,293,7.4,15.2,43,0.00,,,0.00,WUHU216HW,2013-02-25 07:10:00,
2013-02-25 00:11:00,32.9,12.8,29.92,WNW,293,12.8,15.2,43,0.00,,,0.00,WUHU216HW,2013-02-25 07:11:00,
2013-02-25 00:12:00,32.9,12.8,29.92,WSW,248,10.5,13.4,43,0.00,,,0.00,WUHU216HW,2013-02-25 07:12:00,
2013-02-25 00:13:00,32.8,12.6,29.92,SW,225,8.1,13.4,43,0.00,,,0.00,WUHU216HW,2013-02-25 07:13:00,
2013-02-25 00:14:00,32.8,12.6,29.92,WNW,293,7.6,13.4,43,0.00,,,0.00,WUHU216HW,2013-02-25 07:14:00,
2013-02-25 00:15:00,32.8,12.6,29.92,NW,315,10.1,13.4,43,0.00,,,0.00,WUHU216HW,2013-02-25 07:15:00,
2013-02-25 00:16:00,32.8,12.6,29.92,WSW,248,11.9,13.4,43,0.00,,,0.00,WUHU216HW,2013-02-25 07:16:00,
2013-02-25 00:17:00,32.8,12.6,29.92,West,270,9.8,13.4,43,0.00,,,0.00,WUHU216HW,2013-02-25 07:17:00,
2013-02-25 00:18:00,32.8,12.6,29.92,WNW,293,6.9,13.4,43,0.00,,,0.00,WUHU216HW,2013-02-25 07:18:00,
2013-02-25 00:19:00,32.8,12.6,29.92,SW,225,6.0,12.8,43,0.00,,,0.00,WUHU216HW,2013-02-25 07:19:00,
2013-02-25 00:20:00,32.8,12.6,29.92,West,270,6.5,12.8,43,0.00,,,0.00,WUHU216HW,2013-02-25 07:20:00,
2013-02-25 00:21:00,32.8,12.6,29.92,SW,225,5.6,12.1,43,0.00,,,0.00,WUHU216HW,2013-02-25 07:21:00,
2013-02-25 00:22:00,32.8,12.6,29.92,WNW,293,9.8,12.1,43,0.00,,,0.00,WUHU216HW,2013-02-25 07:22:00,
2013-02-25 00:23:00,32.8,12.6,29.92,WNW,293,8.9,12.1,43,0.00,,,0.00,WUHU216HW,2013-02-25 07:23:00,
2013-02-25 00:24:00,32.6,12.4,29.92,WNW,293,6.0,12.1,43,0.00,,,0.00,WUHU216HW,2013-02-25 07:24:00,
2013-02-25 00:25:00,32.6,12.4,29.92,WSW,248,10.5,11.9,43,0.00,,,0.00,WUHU216HW,2013-02-25 07:25:00,
2013-02-25 00:26:00,32.6,12.4,29.92,WSW,248,6.5,11.9,43,0.00,,,0.00,WUHU216HW,2013-02-25 07:26:00,
2013-02-25 00:27:00,32.6,12.4,29.92,West,270,8.5,11.2,43,0.00,,,0.00,WUHU216HW,2013-02-25 07:27:00,
2013-02-25 00:28:00,32.6,12.4,29.92,WNW,293,6.5,10.7,43,0.00,,,0.00,WUHU216HW,2013-02-25 07:28:00,
2013-02-25 00:29:00,32.6,12.4,29.92,SSW,203,5.8,10.7,43,0.00,,,0.00,WUHU216HW,2013-02-25 07:29:00,
2013-02-25 00:30:00,32.4,12.2,29.92,West,270,4.7,10.7,43,0.00,,,0.00,WUHU216HW,2013-02-25 07:30:00,
2013-02-25 00:31:00,32.4,12.2,29.92,West,270,7.8,10.5,43,0.00,,,0.00,WUHU216HW,2013-02-25 07:31:00,
2013-02-25 00:32:00,32.4,12.2,29.92,WSW,248,9.4,10.5,43,0.00,,,0.00,WUHU216HW,2013-02-25 07:32:00,
2013-02-25 00:33:00,32.4,12.2,29.92,WSW,248,9.2,10.5,43,0.00,,,0.00,WUHU216HW,2013-02-25 07:33:00,
2013-02-25 00:34:00,32.4,12.8,29.92,WSW,248,7.4,10.5,44,0.00,,,0.00,WUHU216HW,2013-02-25 07:34:00,
2013-02-25 00:35:00,32.4,12.2,29.92,West,270,4.5,10.5,43,0.00,,,0.00,WUHU216HW,2013-02-25 07:35:00,
2013-02-25 00:36:00,32.2,12.6,29.92,WSW,248,5.8,9.8,44,0.00,,,0.00,WUHU216HW,2013-02-25 07:36:00,
2013-02-25 00:37:00,32.2,12.6,29.92,West,270,4.7,9.8,44,0.00,,,0.00,WUHU216HW,2013-02-25 07:37:00,
2013-02-25 00:38:00,32.2,12.6,29.92,WSW,248,7.2,9.8,44,0.00,,,0.00,WUHU216HW,2013-02-25 07:38:00,
2013-02-25 00:39:00,32.2,12.6,29.92,West,270,7.6,9.8,44,0.00,,,0.00,WUHU216HW,2013-02-25 07:39:00,
2013-02-25 00:40:00,32.0,12.4,29.92,West,270,4.3,9.8,44,0.00,,,0.00,WUHU216HW,2013-02-25 07:40:00,
2013-02-25 00:41:00,32.0,12.4,29.92,West,270,3.4,9.8,44,0.00,,,0.00,WUHU216HW,2013-02-25 07:41:00,
2013-02-25 00:42:00,32.0,12.4,29.92,West,270,6.7,9.2,44,0.00,,,0.00,WUHU216HW,2013-02-25 07:42:00,
2013-02-25 00:43:00,32.0,12.4,29.92,WSW,248,9.6,9.6,44,0.00,,,0.00,WUHU216HW,2013-02-25 07:43:00,
2013-02-25 00:44:00,32.0,12.4,29.92,WSW,248,6.7,9.6,44,0.00,,,0.00,WUHU216HW,2013-02-25 07:44:00,
2013-02-25 00:45:00,32.0,12.4,29.92,WSW,248,6.9,9.6,44,0.00,,,0.00,WUHU216HW,2013-02-25 07:45:00,
2013-02-25 00:46:00,32.0,12.4,29.92,WSW,248,5.1,9.6,44,0.00,,,0.00,WUHU216HW,2013-02-25 07:46:00,
2013-02-25 00:47:00,32.0,12.4,29.92,WSW,248,6.9,10.3,44,0.00,,,0.00,WUHU216HW,2013-02-25 07:47:00,
2013-02-25 00:48:00,32.0,12.4,29.92,SW,225,7.6,10.3,44,0.00,,,0.00,WUHU216HW,2013-02-25 07:48:00,
2013-02-25 00:49:00,32.0,12.4,29.92,WSW,248,8.5,10.3,44,0.00,,,0.00,WUHU216HW,2013-02-25 07:49:00,
2013-02-25 00:50:00,32.0,12.4,29.92,SW,225,5.4,10.3,44,0.00,,,0.00,WUHU216HW,2013-02-25 07:50:00,
2013-02-25 00:51:00,31.9,12.3,29.92,West,270,8.1,10.3,44,0.00,,,0.00,WUHU216HW,2013-02-25 07:51:00,
2013-02-25 00:52:00,31.9,12.3,29.92,West,270,5.4,10.3,44,0.00,,,0.00,WUHU216HW,2013-02-25 07:52:00,
2013-02-25 00:53:00,31.9,12.3,29.92,WNW,293,6.7,10.3,44,0.00,,,0.00,WUHU216HW,2013-02-25 07:53:00,
2013-02-25 00:54:00,31.9,12.3,29.93,WNW,293,8.5,10.3,44,0.00,,,0.00,WUHU216HW,2013-02-25 07:54:00,
2013-02-25 00:55:00,31.9,12.3,29.93,West,270,5.6,10.3,44,0.00,,,0.00,WUHU216HW,2013-02-25 07:55:00,
2013-02-25 00:56:00,31.9,12.3,29.93,WNW,293,5.4,10.3,44,0.00,,,0.00,WUHU216HW,2013-02-25 07:56:00,
2013-02-25 00:57:00,31.7,12.2,29.93,SW,225,6.5,9.8,44,0.00,,,0.00,WUHU216HW,2013-02-25 07:57:00,
2013-02-25 00:58:00,31.7,12.2,29.93,WSW,248,6.0,9.8,44,0.00,,,0.00,WUHU216HW,2013-02-25 07:58:00,
2013-02-25 00:59:00,31.7,12.2,29.93,West,270,6.5,9.8,44,0.00,,,0.00,WUHU216HW,2013-02-25 07:59:00,
2013-02-25 01:00:00,31.7,12.2,29.93,WSW,248,6.3,9.8,44,0.00,,,0.00,WUHU216HW,2013-02-25 08:00:00,
2013-02-25 01:01:00,31.5,12.0,29.93,WSW,248,7.2,9.8,44,0.00,,,0.00,WUHU216HW,2013-02-25 08:01:00,
2013-02-25 01:02:00,31.5,12.0,29.93,WSW,248,6.3,9.8,44,0.00,,,0.00,WUHU216HW,2013-02-25 08:02:00,
2013-02-25 01:03:00,31.5,12.0,29.93,WSW,248,5.1,9.8,44,0.00,,,0.00,WUHU216HW,2013-02-25 08:03:00,
2013-02-25 01:04:00,31.5,12.0,29.92,WSW,248,4.0,9.8,44,0.00,,,0.00,WUHU216HW,2013-02-25 08:04:00,
2013-02-25 01:05:00,31.3,11.8,29.93,WSW,248,4.7,9.8,44,0.00,,,0.00,WUHU216HW,2013-02-25 08:05:00,
2013-02-25 01:06:00,31.3,12.3,29.92,WSW,248,6.7,9.8,45,0.00,,,0.00,WUHU216HW,2013-02-25 08:06:00,
2013-02-25 01:07:00,31.3,11.8,29.93,SW,225,7.2,9.8,44,0.00,,,0.00,WUHU216HW,2013-02-25 08:07:00,
2013-02-25 01:08:00,31.3,12.3,29.93,SW,225,6.3,9.8,45,0.00,,,0.00,WUHU216HW,2013-02-25 08:08:00,
2013-02-25 01:09:00,31.3,12.3,29.93,SW,225,4.5,9.8,45,0.00,,,0.00,WUHU216HW,2013-02-25 08:09:00,
2013-02-25 01:10:00,31.3,12.3,29.93,SW,225,9.2,9.8,45,0.00,,,0.00,WUHU216HW,2013-02-25 08:10:00,
2013-02-25 01:11:00,31.3,12.3,29.93,SW,225,6.7,9.2,45,0.00,,,0.00,WUHU216HW,2013-02-25 08:11:00,
2013-02-25 01:12:00,31.1,12.2,29.93,SW,225,5.6,9.2,45,0.00,,,0.00,WUHU216HW,2013-02-25 08:12:00,
2013-02-25 01:13:00,31.1,12.2,29.93,WSW,248,7.4,9.2,45,0.00,,,0.00,WUHU216HW,2013-02-25 08:13:00,
2013-02-25 01:14:00,31.1,12.2,29.93,West,270,4.5,9.2,45,0.00,,,0.00,WUHU216HW,2013-02-25 08:14:00,
2013-02-25 01:15:00,31.1,12.2,29.93,West,270,6.7,9.2,45,0.00,,,0.00,WUHU216HW,2013-02-25 08:15:00,
2013-02-25 01:16:00,31.1,12.2,29.93,WSW,248,7.6,9.2,45,0.00,,,0.00,WUHU216HW,2013-02-25 08:16:00,
2013-02-25 01:17:00,31.0,12.0,29.93,WSW,248,4.0,9.2,45,0.00,,,0.00,WUHU216HW,2013-02-25 08:17:00,
2013-02-25 01:18:00,31.0,12.0,29.93,WSW,248,7.4,9.2,45,0.00,,,0.00,WUHU216HW,2013-02-25 08:18:00,
2013-02-25 01:19:00,31.0,12.0,29.93,West,270,6.9,9.2,45,0.00,,,0.00,WUHU216HW,2013-02-25 08:19:00,
2013-02-25 01:20:00,31.0,12.0,29.93,WNW,293,3.4,9.2,45,0.00,,,0.00,WUHU216HW,2013-02-25 08:20:00,
2013-02-25 01:21:00,31.0,12.0,29.93,WSW,248,4.7,7.6,45,0.00,,,0.00,WUHU216HW,2013-02-25 08:21:00,
2013-02-25 01:22:00,31.0,12.0,29.93,West,270,4.5,7.6,45,0.00,,,0.00,WUHU216HW,2013-02-25 08:22:00,
2013-02-25 01:23:00,31.0,12.0,29.93,WSW,248,5.1,7.6,45,0.00,,,0.00,WUHU216HW,2013-02-25 08:23:00,
2013-02-25 01:24:00,31.0,12.0,29.93,West,270,4.3,7.6,45,0.00,,,0.00,WUHU216HW,2013-02-25 08:24:00,
2013-02-25 01:25:00,30.8,11.8,29.93,WSW,248,3.8,7.6,45,0.00,,,0.00,WUHU216HW,2013-02-25 08:25:00,
2013-02-25 01:26:00,30.8,11.8,29.93,WSW,248,6.9,7.6,45,0.00,,,0.00,WUHU216HW,2013-02-25 08:26:00,
2013-02-25 01:27:00,30.8,11.8,29.94,WSW,248,4.7,8.1,45,0.00,,,0.00,WUHU216HW,2013-02-25 08:27:00,
2013-02-25 01:28:00,30.8,11.8,29.94,WNW,293,7.8,8.1,45,0.00,,,0.00,WUHU216HW,2013-02-25 08:28:00,
2013-02-25 01:29:00,30.8,11.8,29.94,West,270,3.4,8.1,45,0.00,,,0.00,WUHU216HW,2013-02-25 08:29:00,
2013-02-25 01:30:00,30.6,11.7,29.94,WSW,248,5.4,8.1,45,0.00,,,0.00,WUHU216HW,2013-02-25 08:30:00,
2013-02-25 01:31:00,30.8,11.8,29.94,WSW,248,6.7,8.1,45,0.00,,,0.00,WUHU216HW,2013-02-25 08:31:00,
2013-02-25 01:32:00,30.6,11.7,29.94,SW,225,6.0,8.1,45,0.00,,,0.00,WUHU216HW,2013-02-25 08:32:00,
2013-02-25 01:33:00,30.6,11.7,29.94,West,270,3.6,8.1,45,0.00,,,0.00,WUHU216HW,2013-02-25 08:33:00,
2013-02-25 01:34:00,30.6,11.7,29.94,West,270,7.2,8.1,45,0.00,,,0.00,WUHU216HW,2013-02-25 08:34:00,
2013-02-25 01:35:00,30.6,11.7,29.94,WSW,248,4.7,8.1,45,0.00,,,0.00,WUHU216HW,2013-02-25 08:35:00,
2013-02-25 01:36:00,30.6,11.7,29.94,SW,225,4.7,8.1,45,0.00,,,0.00,WUHU216HW,2013-02-25 08:36:00,
2013-02-25 01:37:00,30.6,11.7,29.94,WSW,248,5.4,7.8,45,0.00,,,0.00,WUHU216HW,2013-02-25 08:37:00,
2013-02-25 01:38:00,30.6,11.7,29.94,WSW,248,6.9,7.8,45,0.00,,,0.00,WUHU216HW,2013-02-25 08:38:00,
2013-02-25 01:39:00,30.4,11.5,29.94,WSW,248,4.5,7.6,45,0.00,,,0.00,WUHU216HW,2013-02-25 08:39:00,
2013-02-25 01:40:00,30.4,11.5,29.94,SSW,203,2.5,7.6,45,0.00,,,0.00,WUHU216HW,2013-02-25 08:40:00,
2013-02-25 01:41:00,30.4,12.0,29.94,West,270,5.4,7.2,46,0.00,,,0.00,WUHU216HW,2013-02-25 08:41:00,
2013-02-25 01:42:00,30.2,11.9,29.94,WSW,248,5.8,7.2,46,0.00,,,0.00,WUHU216HW,2013-02-25 08:42:00,
2013-02-25 01:43:00,30.2,11.9,29.94,WSW,248,4.0,7.2,46,0.00,,,0.00,WUHU216HW,2013-02-25 08:43:00,
2013-02-25 01:44:00,30.2,11.9,29.94,West,270,5.8,7.2,46,0.00,,,0.00,WUHU216HW,2013-02-25 08:44:00,
2013-02-25 01:45:00,30.2,11.9,29.94,SW,225,6.0,6.9,46,0.00,,,0.00,WUHU216HW,2013-02-25 08:45:00,
2013-02-25 01:46:00,30.1,11.7,29.94,WSW,248,6.0,6.9,46,0.00,,,0.00,WUHU216HW,2013-02-25 08:46:00,
2013-02-25 01:47:00,29.9,11.5,29.94,WSW,248,2.5,6.9,46,0.00,,,0.00,WUHU216HW,2013-02-25 08:47:00,
2013-02-25 01:48:00,29.9,11.5,29.94,West,270,4.0,6.9,46,0.00,,,0.00,WUHU216HW,2013-02-25 08:48:00,
2013-02-25 01:49:00,29.9,11.5,29.94,WSW,248,4.9,6.9,46,0.00,,,0.00,WUHU216HW,2013-02-25 08:49:00,
2013-02-25 01:50:00,29.9,11.5,29.94,WSW,248,3.4,6.9,46,0.00,,,0.00,WUHU216HW,2013-02-25 08:50:00,
2013-02-25 01:51:00,29.9,11.5,29.94,WSW,248,4.3,6.9,46,0.00,,,0.00,WUHU216HW,2013-02-25 08:51:00,
2013-02-25 01:52:00,29.9,11.5,29.94,SW,225,6.5,6.5,46,0.00,,,0.00,WUHU216HW,2013-02-25 08:52:00,
2013-02-25 01:53:00,29.9,11.5,29.95,SSW,203,3.4,6.5,46,0.00,,,0.00,WUHU216HW,2013-02-25 08:53:00,
2013-02-25 01:54:00,29.9,11.5,29.95,SW,225,3.4,6.5,46,0.00,,,0.00,WUHU216HW,2013-02-25 08:54:00,
2013-02-25 01:55:00,29.9,11.5,29.95,West,270,6.3,6.5,46,0.00,,,0.00,WUHU216HW,2013-02-25 08:55:00,
2013-02-25 01:56:00,29.7,11.3,29.95,SSW,203,2.9,6.5,46,0.00,,,0.00,WUHU216HW,2013-02-25 08:56:00,
2013-02-25 01:57:00,29.7,11.3,29.95,WSW,248,2.2,6.5,46,0.00,,,0.00,WUHU216HW,2013-02-25 08:57:00,
2013-02-25 01:58:00,29.7,11.3,29.95,WSW,248,4.0,6.5,46,0.00,,,0.00,WUHU216HW,2013-02-25 08:58:00,
2013-02-25 01:59:00,29.7,11.3,29.95,West,270,2.2,6.5,46,0.00,,,0.00,WUHU216HW,2013-02-25 08:59:00,
2013-02-25 02:00:00,29.7,11.3,29.95,SW,225,2.9,6.5,46,0.00,,,0.00,WUHU216HW,2013-02-25 09:00:00,
2013-02-25 02:01:00,29.7,11.3,29.95,WSW,248,2.7,6.5,46,0.00,,,0.00,WUHU216HW,2013-02-25 09:01:00,
2013-02-25 02:02:00,29.5,11.2,29.95,West,270,1.1,6.3,46,0.00,,,0.00,WUHU216HW,2013-02-25 09:02:00,
2013-02-25 02:03:00,29.5,11.2,29.95,WNW,293,0.7,6.3,46,0.00,,,0.00,WUHU216HW,2013-02-25 09:03:00,
2013-02-25 02:04:00,29.5,11.2,29.95,NNE,23,0.4,6.3,46,0.00,,,0.00,WUHU216HW,2013-02-25 09:04:00,
2013-02-25 02:05:00,29.5,11.2,29.95,NE,45,1.1,6.3,46,0.00,,,0.00,WUHU216HW,2013-02-25 09:05:00,
2013-02-25 02:06:00,29.5,11.2,29.96,NE,45,1.3,4.9,46,0.00,,,0.00,WUHU216HW,2013-02-25 09:06:00,
2013-02-25 02:07:00,29.5,11.2,29.96,NE,45,1.8,4.9,46,0.00,,,0.00,WUHU216HW,2013-02-25 09:07:00,
2013-02-25 02:08:00,29.5,11.2,29.96,East,90,1.1,4.9,46,0.00,,,0.00,WUHU216HW,2013-02-25 09:08:00,
2013-02-25 02:09:00,29.3,11.1,29.96,NE,45,0.9,4.9,46,0.00,,,0.00,WUHU216HW,2013-02-25 09:09:00,
2013-02-25 02:10:00,29.3,11.1,29.96,ENE,68,0.4,3.4,46,0.00,,,0.00,WUHU216HW,2013-02-25 09:10:00,
2013-02-25 02:11:00,29.3,11.1,29.96,ESE,113,0.4,3.4,46,0.00,,,0.00,WUHU216HW,2013-02-25 09:11:00,
2013-02-25 02:12:00,29.3,11.1,29.96,ENE,68,1.1,2.0,46,0.00,,,0.00,WUHU216HW,2013-02-25 09:12:00,
2013-02-25 02:13:00,29.2,10.9,29.96,NNE,23,1.1,2.0,46,0.00,,,0.00,WUHU216HW,2013-02-25 09:13:00,
2013-02-25 02:14:00,29.2,10.9,29.96,NE,45,0.4,2.0,46,0.00,,,0.00,WUHU216HW,2013-02-25 09:14:00,
2013-02-25 02:15:00,29.2,10.9,29.96,North,0,1.1,2.0,46,0.00,,,0.00,WUHU216HW,2013-02-25 09:15:00,
2013-02-25 02:16:00,29.2,10.9,29.96,North,0,0.7,2.0,46,0.00,,,0.00,WUHU216HW,2013-02-25 09:16:00,
2013-02-25 02:17:00,29.2,10.9,29.96,NW,315,0.4,2.0,46,0.00,,,0.00,WUHU216HW,2013-02-25 09:17:00,
2013-02-25 02:18:00,29.2,10.9,29.95,SW,225,0.7,1.6,46,0.00,,,0.00,WUHU216HW,2013-02-25 09:18:00,
2013-02-25 02:19:00,29.2,10.9,29.95,SW,225,0.9,1.3,46,0.00,,,0.00,WUHU216HW,2013-02-25 09:19:00,
2013-02-25 02:20:00,29.0,10.7,29.95,SSW,203,0.9,1.3,46,0.00,,,0.00,WUHU216HW,2013-02-25 09:20:00,
2013-02-25 02:21:00,29.0,10.7,29.95,SSE,158,1.3,1.3,46,0.00,,,0.00,WUHU216HW,2013-02-25 09:21:00,
2013-02-25 02:22:00,28.8,10.5,29.95,WNW,293,0.4,1.3,46,0.00,,,0.00,WUHU216HW,2013-02-25 09:22:00,
2013-02-25 02:23:00,28.8,10.5,29.95,West,270,1.1,1.6,46,0.00,,,0.00,WUHU216HW,2013-02-25 09:23:00,
2013-02-25 02:24:00,28.8,10.5,29.95,NW,315,1.1,2.9,46,0.00,,,0.00,WUHU216HW,2013-02-25 09:24:00,
2013-02-25 02:25:00,28.8,10.5,29.95,WNW,293,0.7,2.9,46,0.00,,,0.00,WUHU216HW,2013-02-25 09:25:00,
2013-02-25 02:26:00,28.8,10.5,29.95,WNW,293,1.6,2.9,46,0.00,,,0.00,WUHU216HW,2013-02-25 09:26:00,
2013-02-25 02:27:00,28.8,10.5,29.95,West,270,0.9,2.9,46,0.00,,,0.00,WUHU216HW,2013-02-25 09:27:00,
2013-02-25 02:28:00,28.8,10.5,29.95,West,270,1.3,2.9,46,0.00,,,0.00,WUHU216HW,2013-02-25 09:28:00,
2013-02-25 02:29:00,28.8,10.5,29.95,WNW,293,0.4,2.9,46,0.00,,,0.00,WUHU216HW,2013-02-25 09:29:00,
2013-02-25 02:30:00,28.8,10.5,29.95,NNW,338,1.8,2.9,46,0.00,,,0.00,WUHU216HW,2013-02-25 09:30:00,
2013-02-25 02:31:00,28.8,10.5,29.95,SW,225,1.8,2.9,46,0.00,,,0.00,WUHU216HW,2013-02-25 09:31:00,
2013-02-25 02:32:00,28.8,10.5,29.95,West,270,0.7,2.9,46,0.00,,,0.00,WUHU216HW,2013-02-25 09:32:00,
2013-02-25 02:33:00,28.8,10.5,29.95,WNW,293,0.7,2.9,46,0.00,,,0.00,WUHU216HW,2013-02-25 09:33:00,
2013-02-25 02:34:00,28.8,10.5,29.95,WNW,293,0.4,2.2,46,0.00,,,0.00,WUHU216HW,2013-02-25 09:34:00,
2013-02-25 02:35:00,28.8,10.5,29.95,NNW,338,0.2,2.2,46,0.00,,,0.00,WUHU216HW,2013-02-25 09:35:00,
2013-02-25 02:36:00,28.8,10.5,29.95,NNW,338,0.4,2.2,46,0.00,,,0.00,WUHU216HW,2013-02-25 09:36:00,
2013-02-25 02:37:00,28.6,10.4,29.95,NNW,338,0.2,2.2,46,0.00,,,0.00,WUHU216HW,2013-02-25 09:37:00,
2013-02-25 02:38:00,28.6,10.4,29.95,North,0,0.2,2.2,46,0.00,,,0.00,WUHU216HW,2013-02-25 09:38:00,
2013-02-25 02:39:00,28.6,10.4,29.95,North,0,0.0,2.2,46,0.00,,,0.00,WUHU216HW,2013-02-25 09:39:00,
2013-02-25 02:40:00,28.6,10.4,29.95,North,0,0.0,2.2,46,0.00,,,0.00,WUHU216HW,2013-02-25 09:40:00,
2013-02-25 02:41:00,28.4,10.3,29.95,North,0,0.4,2.0,46,0.00,,,0.00,WUHU216HW,2013-02-25 09:41:00,
2013-02-25 02:42:00,28.4,10.3,29.95,North,0,0.2,1.1,46,0.00,,,0.00,WUHU216HW,2013-02-25 09:42:00,
2013-02-25 02:43:00,28.4,10.3,29.96,North,0,0.0,1.1,46,0.00,,,0.00,WUHU216HW,2013-02-25 09:43:00,
2013-02-25 02:44:00,28.4,10.3,29.95,North,0,0.0,0.7,46,0.00,,,0.00,WUHU216HW,2013-02-25 09:44:00,
2013-02-25 02:45:00,28.4,10.3,29.95,North,0,0.4,0.7,46,0.00,,,0.00,WUHU216HW,2013-02-25 09:45:00,
2013-02-25 02:46:00,28.4,10.3,29.95,North,0,0.4,0.7,46,0.00,,,0.00,WUHU216HW,2013-02-25 09:46:00,
2013-02-25 02:47:00,28.4,10.3,29.95,North,0,0.4,0.7,46,0.00,,,0.00,WUHU216HW,2013-02-25 09:47:00,
2013-02-25 02:48:00,28.3,10.1,29.95,WSW,248,1.1,1.1,46,0.00,,,0.00,WUHU216HW,2013-02-25 09:48:00,
2013-02-25 02:49:00,28.3,10.1,29.95,WSW,248,1.1,1.6,46,0.00,,,0.00,WUHU216HW,2013-02-25 09:49:00,
2013-02-25 02:50:00,28.3,10.1,29.95,WSW,248,0.7,1.8,46,0.00,,,0.00,WUHU216HW,2013-02-25 09:50:00,
2013-02-25 02:51:00,28.1,9.9,29.95,West,270,1.1,1.8,46,0.00,,,0.00,WUHU216HW,2013-02-25 09:51:00,
2013-02-25 02:52:00,28.1,9.9,29.95,WSW,248,2.7,2.7,46,0.00,,,0.00,WUHU216HW,2013-02-25 09:52:00,
2013-02-25 02:53:00,28.1,10.4,29.95,WNW,293,0.9,2.7,47,0.00,,,0.00,WUHU216HW,2013-02-25 09:53:00,
2013-02-25 02:54:00,28.1,10.4,29.95,WSW,248,1.6,2.7,47,0.00,,,0.00,WUHU216HW,2013-02-25 09:54:00,
2013-02-25 02:55:00,28.1,10.4,29.95,West,270,1.3,2.7,47,0.00,,,0.00,WUHU216HW,2013-02-25 09:55:00,
2013-02-25 02:56:00,28.1,10.4,29.95,WSW,248,2.7,2.7,47,0.00,,,0.00,WUHU216HW,2013-02-25 09:56:00,
2013-02-25 02:57:00,28.1,10.4,29.95,WSW,248,3.6,3.6,47,0.00,,,0.00,WUHU216HW,2013-02-25 09:57:00,
2013-02-25 02:58:00,28.1,10.9,29.95,WSW,248,6.5,6.5,48,0.00,,,0.00,WUHU216HW,2013-02-25 09:58:00,
2013-02-25 02:59:00,28.1,10.9,29.95,WNW,293,4.0,6.9,48,0.00,,,0.00,WUHU216HW,2013-02-25 09:59:00,
2013-02-25 03:00:00,28.3,11.1,29.95,West,270,2.7,6.9,48,0.00,,,0.00,WUHU216HW,2013-02-25 10:00:00,
2013-02-25 03:01:00,28.3,11.1,29.95,WSW,248,3.4,6.9,48,0.00,,,0.00,WUHU216HW,2013-02-25 10:01:00,
2013-02-25 03:02:00,28.4,11.3,29.95,WNW,293,4.5,6.9,48,0.00,,,0.00,WUHU216HW,2013-02-25 10:02:00,
2013-02-25 03:03:00,28.4,11.3,29.95,WNW,293,2.2,6.9,48,0.00,,,0.00,WUHU216HW,2013-02-25 10:03:00,
2013-02-25 03:04:00,28.4,11.3,29.95,WNW,293,1.1,6.9,48,0.00,,,0.00,WUHU216HW,2013-02-25 10:04:00,
2013-02-25 03:05:00,28.4,10.7,29.95,West,270,1.3,6.9,47,0.00,,,0.00,WUHU216HW,2013-02-25 10:05:00,
2013-02-25 03:06:00,28.4,10.7,29.95,NW,315,0.4,6.9,47,0.00,,,0.00,WUHU216HW,2013-02-25 10:06:00,
2013-02-25 03:07:00,28.4,10.7,29.96,West,270,1.1,6.9,47,0.00,,,0.00,WUHU216HW,2013-02-25 10:07:00,
2013-02-25 03:08:00,28.4,10.7,29.96,WNW,293,0.2,6.9,47,0.00,,,0.00,WUHU216HW,2013-02-25 10:08:00,
2013-02-25 03:09:00,28.4,10.7,29.96,SSW,203,1.1,4.5,47,0.00,,,0.00,WUHU216HW,2013-02-25 10:09:00,
2013-02-25 03:10:00,28.4,10.7,29.96,WSW,248,0.9,4.5,47,0.00,,,0.00,WUHU216HW,2013-02-25 10:10:00,
2013-02-25 03:11:00,28.4,10.7,29.96,West,270,0.2,4.5,47,0.00,,,0.00,WUHU216HW,2013-02-25 10:11:00,
2013-02-25 03:12:00,28.4,10.7,29.96,SW,225,0.0,3.8,47,0.00,,,0.00,WUHU216HW,2013-02-25 10:12:00,
2013-02-25 03:13:00,28.4,10.7,29.96,South,180,1.1,2.2,47,0.00,,,0.00,WUHU216HW,2013-02-25 10:13:00,
2013-02-25 03:14:00,28.3,10.5,29.96,South,180,0.9,1.6,47,0.00,,,0.00,WUHU216HW,2013-02-25 10:14:00,
2013-02-25 03:15:00,28.3,10.5,29.96,SSE,158,0.7,1.6,47,0.00,,,0.00,WUHU216HW,2013-02-25 10:15:00,
2013-02-25 03:16:00,28.3,10.5,29.96,SSE,158,1.8,1.8,47,0.00,,,0.00,WUHU216HW,2013-02-25 10:16:00,
2013-02-25 03:17:00,28.1,10.4,29.96,SSE,158,1.8,1.8,47,0.00,,,0.00,WUHU216HW,2013-02-25 10:17:00,
2013-02-25 03:18:00,28.1,10.4,29.96,SSW,203,0.9,1.8,47,0.00,,,0.00,WUHU216HW,2013-02-25 10:18:00,
2013-02-25 03:19:00,28.1,10.4,29.96,SSE,158,1.1,1.8,47,0.00,,,0.00,WUHU216HW,2013-02-25 10:19:00,
2013-02-25 03:20:00,27.9,10.2,29.96,South,180,1.8,1.8,47,0.00,,,0.00,WUHU216HW,2013-02-25 10:20:00,
2013-02-25 03:21:00,27.9,10.2,29.96,SSW,203,1.8,2.0,47,0.00,,,0.00,WUHU216HW,2013-02-25 10:21:00,
2013-02-25 03:22:00,27.9,10.2,29.96,South,180,0.4,2.0,47,0.00,,,0.00,WUHU216HW,2013-02-25 10:22:00,
2013-02-25 03:23:00,27.7,10.0,29.96,WSW,248,1.6,2.0,47,0.00,,,0.00,WUHU216HW,2013-02-25 10:23:00,
2013-02-25 03:24:00,27.7,10.0,29.97,WSW,248,1.8,2.0,47,0.00,,,0.00,WUHU216HW,2013-02-25 10:24:00,
2013-02-25 03:25:00,27.7,10.0,29.96,West,270,0.9,2.0,47,0.00,,,0.00,WUHU216HW,2013-02-25 10:25:00,
2013-02-25 03:26:00,27.7,10.0,29.97,West,270,2.5,2.5,47,0.00,,,0.00,WUHU216HW,2013-02-25 10:26:00,
2013-02-25 03:27:00,27.7,10.0,29.96,WSW,248,1.6,2.5,47,0.00,,,0.00,WUHU216HW,2013-02-25 10:27:00,
2013-02-25 03:28:00,27.7,10.0,29.96,WNW,293,1.3,2.5,47,0.00,,,0.00,WUHU216HW,2013-02-25 10:28:00,
2013-02-25 03:29:00,27.7,10.0,29.96,WNW,293,1.8,2.5,47,0.00,,,0.00,WUHU216HW,2013-02-25 10:29:00,
2013-02-25 03:30:00,27.7,10.0,29.96,WNW,293,1.6,2.5,47,0.00,,,0.00,WUHU216HW,2013-02-25 10:30:00,
2013-02-25 03:31:00,27.7,10.0,29.96,WNW,293,0.9,2.5,47,0.00,,,0.00,WUHU216HW,2013-02-25 10:31:00,
2013-02-25 03:32:00,27.7,10.0,29.96,WNW,293,1.1,2.5,47,0.00,,,0.00,WUHU216HW,2013-02-25 10:32:00,
2013-02-25 03:33:00,27.7,10.0,29.96,NW,315,0.7,2.5,47,0.00,,,0.00,WUHU216HW,2013-02-25 10:33:00,
2013-02-25 03:34:00,27.7,10.0,29.96,NW,315,1.1,2.5,47,0.00,,,0.00,WUHU216HW,2013-02-25 10:34:00,
2013-02-25 03:35:00,27.7,10.0,29.97,West,270,0.2,2.5,47,0.00,,,0.00,WUHU216HW,2013-02-25 10:35:00,
2013-02-25 03:36:00,27.7,10.0,29.96,WNW,293,0.2,2.5,47,0.00,,,0.00,WUHU216HW,2013-02-25 10:36:00,
2013-02-25 03:37:00,27.7,10.0,29.97,WNW,293,1.1,2.2,47,0.00,,,0.00,WUHU216HW,2013-02-25 10:37:00,
2013-02-25 03:38:00,27.7,10.0,29.96,West,270,0.7,2.2,47,0.00,,,0.00,WUHU216HW,2013-02-25 10:38:00,
2013-02-25 03:39:00,27.7,10.0,29.97,West,270,0.0,2.2,47,0.00,,,0.00,WUHU216HW,2013-02-25 10:39:00,
2013-02-25 03:40:00,27.5,9.8,29.97,WNW,293,0.7,1.8,47,0.00,,,0.00,WUHU216HW,2013-02-25 10:40:00,
2013-02-25 03:41:00,27.5,9.8,29.96,WNW,293,0.0,1.8,47,0.00,,,0.00,WUHU216HW,2013-02-25 10:41:00,
2013-02-25 03:42:00,27.5,9.8,29.97,WNW,293,0.7,1.8,47,0.00,,,0.00,WUHU216HW,2013-02-25 10:42:00,
2013-02-25 03:43:00,27.4,9.7,29.97,WNW,293,0.2,1.8,47,0.00,,,0.00,WUHU216HW,2013-02-25 10:43:00,
2013-02-25 03:44:00,27.4,9.7,29.96,WNW,293,0.0,1.8,47,0.00,,,0.00,WUHU216HW,2013-02-25 10:44:00,
2013-02-25 03:45:00,27.4,9.7,29.96,NW,315,0.4,1.8,47,0.00,,,0.00,WUHU216HW,2013-02-25 10:45:00,
2013-02-25 03:46:00,27.4,9.7,29.97,NW,315,0.2,1.8,47,0.00,,,0.00,WUHU216HW,2013-02-25 10:46:00,
2013-02-25 03:47:00,27.2,9.6,29.97,NW,315,0.0,1.1,47,0.00,,,0.00,WUHU216HW,2013-02-25 10:47:00,
2013-02-25 03:48:00,27.2,9.6,29.96,NW,315,0.0,1.1,47,0.00,,,0.00,WUHU216HW,2013-02-25 10:48:00,
2013-02-25 03:49:00,27.2,9.6,29.97,NNW,338,0.2,1.1,47,0.00,,,0.00,WUHU216HW,2013-02-25 10:49:00,
2013-02-25 03:50:00,27.2,9.6,29.97,NNW,338,0.0,1.1,47,0.00,,,0.00,WUHU216HW,2013-02-25 10:50:00,
2013-02-25 03:51:00,27.0,9.4,29.97,North,0,0.2,1.1,47,0.00,,,0.00,WUHU216HW,2013-02-25 10:51:00,
2013-02-25 03:52:00,27.0,9.4,29.97,North,0,0.4,0.9,47,0.00,,,0.00,WUHU216HW,2013-02-25 10:52:00,
2013-02-25 03:53:00,27.0,9.4,29.97,North,0,0.2,0.9,47,0.00,,,0.00,WUHU216HW,2013-02-25 10:53:00,
2013-02-25 03:54:00,27.0,9.4,29.97,North,0,0.4,0.9,47,0.00,,,0.00,WUHU216HW,2013-02-25 10:54:00,
2013-02-25 03:55:00,27.0,9.4,29.97,North,0,0.0,0.9,47,0.00,,,0.00,WUHU216HW,2013-02-25 10:55:00,
2013-02-25 03:56:00,27.0,9.4,29.97,North,0,0.4,0.9,47,0.00,,,0.00,WUHU216HW,2013-02-25 10:56:00,
2013-02-25 03:57:00,27.0,9.4,29.97,NNW,338,0.0,0.9,47,0.00,,,0.00,WUHU216HW,2013-02-25 10:57:00,
2013-02-25 03:58:00,26.8,9.2,29.97,WSW,248,1.1,1.1,47,0.00,,,0.00,WUHU216HW,2013-02-25 10:58:00,
2013-02-25 03:59:00,26.8,9.2,29.97,WSW,248,1.1,1.1,47,0.00,,,0.00,WUHU216HW,2013-02-25 10:59:00,
2013-02-25 04:00:00,26.8,9.2,29.97,WSW,248,0.7,1.1,47,0.00,,,0.00,WUHU216HW,2013-02-25 11:00:00,
2013-02-25 04:01:00,26.6,9.0,29.97,West,270,0.4,1.1,47,0.00,,,0.00,WUHU216HW,2013-02-25 11:01:00,
2013-02-25 04:02:00,26.6,9.0,29.97,WSW,248,0.7,1.1,47,0.00,,,0.00,WUHU216HW,2013-02-25 11:02:00,
2013-02-25 04:03:00,26.5,9.3,29.97,NW,315,1.1,1.1,48,0.00,,,0.00,WUHU216HW,2013-02-25 11:03:00,
2013-02-25 04:04:00,26.5,8.8,29.97,WNW,293,0.4,1.1,47,0.00,,,0.00,WUHU216HW,2013-02-25 11:04:00,
2013-02-25 04:05:00,26.5,9.3,29.97,WNW,293,0.0,1.1,48,0.00,,,0.00,WUHU216HW,2013-02-25 11:05:00,
2013-02-25 04:06:00,26.3,9.2,29.97,West,270,0.4,1.1,48,0.00,,,0.00,WUHU216HW,2013-02-25 11:06:00,
2013-02-25 04:07:00,26.3,9.2,29.97,WSW,248,0.4,1.1,48,0.00,,,0.00,WUHU216HW,2013-02-25 11:07:00,
2013-02-25 04:08:00,26.3,9.2,29.97,West,270,0.4,1.1,48,0.00,,,0.00,WUHU216HW,2013-02-25 11:08:00,
2013-02-25 04:09:00,26.3,9.2,29.97,West,270,0.2,1.1,48,0.00,,,0.00,WUHU216HW,2013-02-25 11:09:00,
2013-02-25 04:10:00,26.3,9.2,29.97,West,270,0.2,1.1,48,0.00,,,0.00,WUHU216HW,2013-02-25 11:10:00,
2013-02-25 04:11:00,26.1,9.0,29.97,SW,225,0.4,1.1,48,0.00,,,0.00,WUHU216HW,2013-02-25 11:11:00,
2013-02-25 04:12:00,26.1,9.0,29.97,South,180,0.0,1.1,48,0.00,,,0.00,WUHU216HW,2013-02-25 11:12:00,
2013-02-25 04:13:00,25.9,8.8,29.97,South,180,0.0,0.7,48,0.00,,,0.00,WUHU216HW,2013-02-25 11:13:00,
2013-02-25 04:14:00,25.9,8.8,29.97,South,180,0.0,0.7,48,0.00,,,0.00,WUHU216HW,2013-02-25 11:14:00,
2013-02-25 04:15:00,25.9,8.8,29.97,South,180,0.0,0.7,48,0.00,,,0.00,WUHU216HW,2013-02-25 11:15:00,
2013-02-25 04:16:00,25.9,8.8,29.97,SE,135,0.0,0.7,48,0.00,,,0.00,WUHU216HW,2013-02-25 11:16:00,
2013-02-25 04:17:00,25.9,8.8,29.97,East,90,2.2,2.2,48,0.00,,,0.00,WUHU216HW,2013-02-25 11:17:00,
2013-02-25 04:18:00,25.9,8.8,29.97,East,90,1.1,2.2,48,0.00,,,0.00,WUHU216HW,2013-02-25 11:18:00,
2013-02-25 04:19:00,25.9,8.8,29.97,East,90,0.0,2.2,48,0.00,,,0.00,WUHU216HW,2013-02-25 11:19:00,
2013-02-25 04:20:00,25.9,8.8,29.97,East,90,1.1,2.2,48,0.00,,,0.00,WUHU216HW,2013-02-25 11:20:00,
2013-02-25 04:21:00,25.9,8.8,29.98,East,90,0.4,2.2,48,0.00,,,0.00,WUHU216HW,2013-02-25 11:21:00,
2013-02-25 04:22:00,25.9,8.8,29.97,NE,45,0.7,2.2,48,0.00,,,0.00,WUHU216HW,2013-02-25 11:22:00,
2013-02-25 04:23:00,25.9,8.8,29.98,East,90,0.9,2.2,48,0.00,,,0.00,WUHU216HW,2013-02-25 11:23:00,
2013-02-25 04:24:00,25.9,8.8,29.98,East,90,0.9,2.2,48,0.00,,,0.00,WUHU216HW,2013-02-25 11:24:00,
2013-02-25 04:25:00,25.9,8.8,29.98,ENE,68,0.9,2.2,48,0.00,,,0.00,WUHU216HW,2013-02-25 11:25:00,
2013-02-25 04:26:00,25.9,8.8,29.98,NE,45,0.9,2.2,48,0.00,,,0.00,WUHU216HW,2013-02-25 11:26:00,
2013-02-25 04:27:00,26.1,9.0,29.98,East,90,1.6,2.2,48,0.00,,,0.00,WUHU216HW,2013-02-25 11:27:00,
2013-02-25 04:28:00,26.1,9.0,29.98,ESE,113,1.3,1.8,48,0.00,,,0.00,WUHU216HW,2013-02-25 11:28:00,
2013-02-25 04:29:00,26.1,9.0,29.98,ESE,113,1.1,2.0,48,0.00,,,0.00,WUHU216HW,2013-02-25 11:29:00,
2013-02-25 04:30:00,26.1,9.0,29.98,East,90,0.9,2.0,48,0.00,,,0.00,WUHU216HW,2013-02-25 11:30:00,
2013-02-25 04:31:00,26.1,9.0,29.98,East,90,0.4,2.0,48,0.00,,,0.00,WUHU216HW,2013-02-25 11:31:00,
2013-02-25 04:32:00,26.1,9.0,29.99,SE,135,0.7,2.0,48,0.00,,,0.00,WUHU216HW,2013-02-25 11:32:00,
2013-02-25 04:33:00,26.1,9.0,29.99,ESE,113,1.1,2.0,48,0.00,,,0.00,WUHU216HW,2013-02-25 11:33:00,
2013-02-25 04:34:00,26.1,9.0,29.99,ESE,113,0.4,2.0,48,0.00,,,0.00,WUHU216HW,2013-02-25 11:34:00,
2013-02-25 04:35:00,26.1,9.0,29.99,ESE,113,0.4,2.0,48,0.00,,,0.00,WUHU216HW,2013-02-25 11:35:00,
2013-02-25 04:36:00,26.1,9.0,29.99,ESE,113,0.2,2.0,48,0.00,,,0.00,WUHU216HW,2013-02-25 11:36:00,
2013-02-25 04:37:00,25.9,8.8,29.99,SE,135,0.9,2.0,48,0.00,,,0.00,WUHU216HW,2013-02-25 11:37:00,
2013-02-25 04:38:00,25.9,8.8,29.98,SE,135,1.1,2.0,48,0.00,,,0.00,WUHU216HW,2013-02-25 11:38:00,
2013-02-25 04:39:00,25.9,8.8,29.98,SE,135,1.1,1.8,48,0.00,,,0.00,WUHU216HW,2013-02-25 11:39:00,
2013-02-25 04:40:00,25.9,8.8,29.99,SE,135,0.9,1.1,48,0.00,,,0.00,WUHU216HW,2013-02-25 11:40:00,
2013-02-25 04:41:00,25.7,8.6,29.99,ESE,113,1.1,1.1,48,0.00,,,0.00,WUHU216HW,2013-02-25 11:41:00,
2013-02-25 04:42:00,25.7,8.6,29.99,East,90,1.1,1.3,48,0.00,,,0.00,WUHU216HW,2013-02-25 11:42:00,
2013-02-25 04:43:00,25.7,8.6,29.99,ESE,113,0.9,1.3,48,0.00,,,0.00,WUHU216HW,2013-02-25 11:43:00,
2013-02-25 04:44:00,25.7,8.6,29.99,East,90,1.1,1.3,48,0.00,,,0.00,WUHU216HW,2013-02-25 11:44:00,
2013-02-25 04:45:00,25.7,8.6,29.99,East,90,0.0,1.3,48,0.00,,,0.00,WUHU216HW,2013-02-25 11:45:00,
2013-02-25 04:46:00,25.6,8.5,29.99,East,90,1.8,1.8,48,0.00,,,0.00,WUHU216HW,2013-02-25 11:46:00,
2013-02-25 04:47:00,25.6,8.5,29.99,ESE,113,1.3,1.8,48,0.00,,,0.00,WUHU216HW,2013-02-25 11:47:00,
2013-02-25 04:48:00,25.6,8.5,29.99,East,90,0.4,1.8,48,0.00,,,0.00,WUHU216HW,2013-02-25 11:48:00,
2013-02-25 04:49:00,25.6,8.5,29.99,East,90,0.0,1.8,48,0.00,,,0.00,WUHU216HW,2013-02-25 11:49:00,
2013-02-25 04:50:00,25.6,8.5,29.99,East,90,0.4,1.8,48,0.00,,,0.00,WUHU216HW,2013-02-25 11:50:00,
2013-02-25 04:51:00,25.6,8.5,29.99,NE,45,0.7,1.8,48,0.00,,,0.00,WUHU216HW,2013-02-25 11:51:00,
2013-02-25 04:52:00,25.6,9.0,29.99,NNE,23,0.4,1.8,49,0.00,,,0.00,WUHU216HW,2013-02-25 11:52:00,
2013-02-25 04:53:00,25.6,8.5,29.99,NNE,23,0.0,1.8,48,0.00,,,0.00,WUHU216HW,2013-02-25 11:53:00,
2013-02-25 04:54:00,25.6,8.5,30.00,NNE,23,0.0,1.8,48,0.00,,,0.00,WUHU216HW,2013-02-25 11:54:00,
2013-02-25 04:55:00,25.6,9.0,30.00,NNE,23,0.0,1.8,49,0.00,,,0.00,WUHU216HW,2013-02-25 11:55:00,
2013-02-25 04:56:00,25.6,9.0,30.00,NNE,23,0.0,1.8,49,0.00,,,0.00,WUHU216HW,2013-02-25 11:56:00,
2013-02-25 04:57:00,25.6,9.0,30.00,North,0,0.7,1.3,49,0.00,,,0.00,WUHU216HW,2013-02-25 11:57:00,
2013-02-25 04:58:00,25.6,9.0,30.00,North,0,0.4,1.1,49,0.00,,,0.00,WUHU216HW,2013-02-25 11:58:00,
2013-02-25 04:59:00,25.6,9.0,30.00,NE,45,1.1,1.1,49,0.00,,,0.00,WUHU216HW,2013-02-25 11:59:00,
2013-02-25 05:00:00,25.6,9.0,30.00,NNE,23,1.1,1.1,49,0.00,,,0.00,WUHU216HW,2013-02-25 12:00:00,
2013-02-25 05:01:00,25.6,9.0,30.00,NNE,23,0.0,1.1,49,0.00,,,0.00,WUHU216HW,2013-02-25 12:01:00,
2013-02-25 05:02:00,25.6,9.0,30.00,NNW,338,1.1,1.1,49,0.00,,,0.00,WUHU216HW,2013-02-25 12:02:00,
2013-02-25 05:03:00,25.6,9.5,30.00,NNE,23,0.7,1.1,50,0.00,,,0.00,WUHU216HW,2013-02-25 12:03:00,
2013-02-25 05:04:00,25.6,9.5,30.00,NNE,23,0.2,1.1,50,0.00,,,0.00,WUHU216HW,2013-02-25 12:04:00,
2013-02-25 05:05:00,25.6,9.5,30.00,North,0,1.8,2.5,50,0.00,,,0.00,WUHU216HW,2013-02-25 12:05:00,
2013-02-25 05:06:00,25.6,9.5,30.00,NNE,23,1.6,2.5,50,0.00,,,0.00,WUHU216HW,2013-02-25 12:06:00,
2013-02-25 05:07:00,25.7,9.6,30.01,NNE,23,0.4,2.5,50,0.00,,,0.00,WUHU216HW,2013-02-25 12:07:00,
2013-02-25 05:08:00,25.7,9.2,30.00,ENE,68,0.4,2.5,49,0.00,,,0.00,WUHU216HW,2013-02-25 12:08:00,
2013-02-25 05:09:00,25.9,9.3,30.01,WSW,248,0.4,2.5,49,0.00,,,0.00,WUHU216HW,2013-02-25 12:09:00,
2013-02-25 05:10:00,25.9,9.3,30.01,NNW,338,0.7,2.5,49,0.00,,,0.00,WUHU216HW,2013-02-25 12:10:00,
2013-02-25 05:11:00,25.9,9.3,30.01,North,0,1.8,2.5,49,0.00,,,0.00,WUHU216HW,2013-02-25 12:11:00,
2013-02-25 05:12:00,25.9,9.3,30.01,NNW,338,0.4,2.5,49,0.00,,,0.00,WUHU216HW,2013-02-25 12:12:00,
2013-02-25 05:13:00,25.9,9.3,30.01,North,0,1.1,2.5,49,0.00,,,0.00,WUHU216HW,2013-02-25 12:13:00,
2013-02-25 05:14:00,25.9,9.3,30.01,North,0,0.4,2.5,49,0.00,,,0.00,WUHU216HW,2013-02-25 12:14:00,
2013-02-25 05:15:00,25.9,9.3,30.01,West,270,2.5,2.5,49,0.00,,,0.00,WUHU216HW,2013-02-25 12:15:00,
2013-02-25 05:16:00,25.9,9.3,30.01,WSW,248,2.0,2.5,49,0.00,,,0.00,WUHU216HW,2013-02-25 12:16:00,
2013-02-25 05:17:00,25.9,9.3,30.01,WSW,248,1.3,2.5,49,0.00,,,0.00,WUHU216HW,2013-02-25 12:17:00,
2013-02-25 05:18:00,25.9,9.3,30.01,WSW,248,1.1,2.5,49,0.00,,,0.00,WUHU216HW,2013-02-25 12:18:00,
2013-02-25 05:19:00,25.9,9.3,30.01,West,270,0.7,2.5,49,0.00,,,0.00,WUHU216HW,2013-02-25 12:19:00,
2013-02-25 05:20:00,25.7,9.2,30.01,NW,315,0.2,2.5,49,0.00,,,0.00,WUHU216HW,2013-02-25 12:20:00,
2013-02-25 05:21:00,25.7,9.2,30.01,North,0,2.2,4.5,49,0.00,,,0.00,WUHU216HW,2013-02-25 12:21:00,
2013-02-25 05:22:00,25.7,9.6,30.01,North,0,2.2,4.5,50,0.00,,,0.00,WUHU216HW,2013-02-25 12:22:00,
2013-02-25 05:23:00,25.9,9.8,30.01,North,0,1.1,4.5,50,0.00,,,0.00,WUHU216HW,2013-02-25 12:23:00,
2013-02-25 05:24:00,25.9,9.8,30.01,WSW,248,1.6,4.5,50,0.00,,,0.00,WUHU216HW,2013-02-25 12:24:00,
2013-02-25 05:25:00,25.9,9.8,30.01,West,270,0.4,4.5,50,0.00,,,0.00,WUHU216HW,2013-02-25 12:25:00,
2013-02-25 05:26:00,25.9,9.8,30.01,West,270,1.1,4.5,50,0.00,,,0.00,WUHU216HW,2013-02-25 12:26:00,
2013-02-25 05:27:00,26.1,9.5,30.01,West,270,1.1,4.5,49,0.00,,,0.00,WUHU216HW,2013-02-25 12:27:00,
2013-02-25 05:28:00,26.1,9.5,30.01,WSW,248,1.1,4.5,49,0.00,,,0.00,WUHU216HW,2013-02-25 12:28:00,
2013-02-25 05:29:00,26.1,9.5,30.02,NNW,338,0.4,4.5,49,0.00,,,0.00,WUHU216HW,2013-02-25 12:29:00,
2013-02-25 05:30:00,25.9,9.3,30.01,NNW,338,1.1,4.5,49,0.00,,,0.00,WUHU216HW,2013-02-25 12:30:00,
2013-02-25 05:31:00,25.9,9.3,30.02,NNW,338,0.9,3.1,49,0.00,,,0.00,WUHU216HW,2013-02-25 12:31:00,
2013-02-25 05:32:00,25.9,9.3,30.01,NNW,338,0.9,2.5,49,0.00,,,0.00,WUHU216HW,2013-02-25 12:32:00,
2013-02-25 05:33:00,25.9,9.3,30.01,NNW,338,0.9,1.8,49,0.00,,,0.00,WUHU216HW,2013-02-25 12:33:00,
2013-02-25 05:34:00,25.9,9.8,30.02,NNW,338,1.8,1.8,50,0.00,,,0.00,WUHU216HW,2013-02-25 12:34:00,
2013-02-25 05:35:00,25.9,9.8,30.02,West,270,0.7,1.8,50,0.00,,,0.00,WUHU216HW,2013-02-25 12:35:00,
2013-02-25 05:36:00,25.9,9.3,30.01,West,270,0.0,1.8,49,0.00,,,0.00,WUHU216HW,2013-02-25 12:36:00,
2013-02-25 05:37:00,25.9,9.3,30.02,NW,315,0.4,1.8,49,0.00,,,0.00,WUHU216HW,2013-02-25 12:37:00,
2013-02-25 05:38:00,25.9,9.3,30.02,North,0,0.4,1.8,49,0.00,,,0.00,WUHU216HW,2013-02-25 12:38:00,
2013-02-25 05:39:00,25.7,9.2,30.02,NNE,23,1.6,1.8,49,0.00,,,0.00,WUHU216HW,2013-02-25 12:39:00,
2013-02-25 05:40:00,25.7,9.2,30.02,NNE,23,0.7,2.2,49,0.00,,,0.00,WUHU216HW,2013-02-25 12:40:00,
2013-02-25 05:41:00,25.7,9.2,30.02,SW,225,1.3,2.2,49,0.00,,,0.00,WUHU216HW,2013-02-25 12:41:00,
2013-02-25 05:42:00,25.7,9.2,30.02,WSW,248,0.4,2.2,49,0.00,,,0.00,WUHU216HW,2013-02-25 12:42:00,
2013-02-25 05:43:00,25.7,9.2,30.02,WSW,248,0.7,2.2,49,0.00,,,0.00,WUHU216HW,2013-02-25 12:43:00,
2013-02-25 05:44:00,25.6,9.0,30.02,West,270,0.0,2.2,49,0.00,,,0.00,WUHU216HW,2013-02-25 12:44:00,
2013-02-25 05:45:00,25.6,9.0,30.02,WNW,293,0.0,2.2,49,0.00,,,0.00,WUHU216HW,2013-02-25 12:45:00,
2013-02-25 05:46:00,25.6,9.0,30.02,WNW,293,0.2,2.2,49,0.00,,,0.00,WUHU216HW,2013-02-25 12:46:00,
2013-02-25 05:47:00,25.6,9.0,30.02,SW,225,0.7,2.2,49,0.00,,,0.00,WUHU216HW,2013-02-25 12:47:00,
2013-02-25 05:48:00,25.4,8.8,30.02,SSW,203,0.9,2.2,49,0.00,,,0.00,WUHU216HW,2013-02-25 12:48:00,
2013-02-25 05:49:00,25.4,8.8,30.02,SSE,158,0.9,2.2,49,0.00,,,0.00,WUHU216HW,2013-02-25 12:49:00,
2013-02-25 05:50:00,25.2,8.6,30.02,SSE,158,0.7,1.3,49,0.00,,,0.00,WUHU216HW,2013-02-25 12:50:00,
2013-02-25 05:51:00,25.2,8.6,30.02,SSE,158,0.4,1.3,49,0.00,,,0.00,WUHU216HW,2013-02-25 12:51:00,
2013-02-25 05:52:00,25.2,8.6,30.02,SSE,158,0.4,0.9,49,0.00,,,0.00,WUHU216HW,2013-02-25 12:52:00,
2013-02-25 05:53:00,25.0,8.5,30.02,SSE,158,1.1,1.1,49,0.00,,,0.00,WUHU216HW,2013-02-25 12:53:00,
2013-02-25 05:54:00,25.0,8.5,30.02,SSW,203,1.6,1.6,49,0.00,,,0.00,WUHU216HW,2013-02-25 12:54:00,
2013-02-25 05:55:00,24.8,8.4,30.03,SSW,203,1.6,1.6,49,0.00,,,0.00,WUHU216HW,2013-02-25 12:55:00,
2013-02-25 05:56:00,24.8,8.8,30.02,SSW,203,0.7,1.6,50,0.00,,,0.00,WUHU216HW,2013-02-25 12:56:00,
2013-02-25 05:57:00,24.8,8.8,30.03,SSW,203,0.9,1.6,50,0.00,,,0.00,WUHU216HW,2013-02-25 12:57:00,
2013-02-25 05:58:00,24.8,8.8,30.03,WSW,248,1.1,1.6,50,0.00,,,0.00,WUHU216HW,2013-02-25 12:58:00,
2013-02-25 05:59:00,24.8,8.8,30.03,SW,225,0.4,1.6,50,0.00,,,0.00,WUHU216HW,2013-02-25 12:59:00,
2013-02-25 06:00:00,24.8,8.8,30.03,SW,225,0.2,1.6,50,0.00,,,0.00,WUHU216HW,2013-02-25 13:00:00,
2013-02-25 06:01:00,24.7,8.6,30.03,SSW,203,0.4,1.6,50,0.00,,,0.00,WUHU216HW,2013-02-25 13:01:00,
2013-02-25 06:02:00,24.7,8.6,30.03,SSE,158,0.7,1.6,50,0.00,,,0.00,WUHU216HW,2013-02-25 13:02:00,
2013-02-25 06:03:00,24.5,8.5,30.03,South,180,0.4,1.6,50,0.00,,,0.00,WUHU216HW,2013-02-25 13:03:00,
2013-02-25 06:04:00,24.5,8.5,30.03,South,180,0.4,1.6,50,0.00,,,0.00,WUHU216HW,2013-02-25 13:04:00,
2013-02-25 06:05:00,24.5,8.5,30.03,SW,225,0.7,1.6,50,0.00,,,0.00,WUHU216HW,2013-02-25 13:05:00,
2013-02-25 06:06:00,24.5,8.5,30.03,SW,225,1.8,1.8,50,0.00,,,0.00,WUHU216HW,2013-02-25 13:06:00,
2013-02-25 06:07:00,24.5,8.5,30.03,SW,225,2.0,2.0,50,0.00,,,0.00,WUHU216HW,2013-02-25 13:07:00,
2013-02-25 06:08:00,24.3,8.4,30.03,SW,225,0.9,2.0,50,0.00,,,0.00,WUHU216HW,2013-02-25 13:08:00,
2013-02-25 06:09:00,24.3,8.4,30.03,SW,225,1.1,2.0,50,0.00,,,0.00,WUHU216HW,2013-02-25 13:09:00,
2013-02-25 06:10:00,24.3,8.4,30.03,SW,225,1.1,2.0,50,0.00,,,0.00,WUHU216HW,2013-02-25 13:10:00,
2013-02-25 06:11:00,24.1,8.2,30.03,SW,225,0.7,2.0,50,0.00,,,0.00,WUHU216HW,2013-02-25 13:11:00,
2013-02-25 06:12:00,24.1,8.2,30.03,SW,225,0.4,2.0,50,0.00,,,0.00,WUHU216HW,2013-02-25 13:12:00,
2013-02-25 06:13:00,24.1,8.2,30.03,SW,225,0.7,2.0,50,0.00,,,0.00,WUHU216HW,2013-02-25 13:13:00,
2013-02-25 06:14:00,24.1,8.2,30.03,SW,225,0.4,2.0,50,0.00,,,0.00,WUHU216HW,2013-02-25 13:14:00,
2013-02-25 06:15:00,24.1,8.6,30.03,SW,225,0.0,2.0,51,0.00,,,0.00,WUHU216HW,2013-02-25 13:15:00,
2013-02-25 06:16:00,24.1,8.6,30.03,SW,225,0.0,2.0,51,0.00,,,0.00,WUHU216HW,2013-02-25 13:16:00,
2013-02-25 06:17:00,24.1,8.6,30.03,SW,225,0.0,1.8,51,0.00,,,0.00,WUHU216HW,2013-02-25 13:17:00,
2013-02-25 06:18:00,24.1,8.6,30.03,WSW,248,0.7,1.3,51,0.00,,,0.00,WUHU216HW,2013-02-25 13:18:00,
2013-02-25 06:19:00,24.1,8.6,30.03,WSW,248,0.7,1.3,51,0.00,,,0.00,WUHU216HW,2013-02-25 13:19:00,
2013-02-25 06:20:00,23.9,8.4,30.03,WSW,248,0.4,1.1,51,0.00,,,0.00,WUHU216HW,2013-02-25 13:20:00,
2013-02-25 06:21:00,24.1,8.6,30.03,WSW,248,0.2,1.1,51,0.00,,,0.00,WUHU216HW,2013-02-25 13:21:00,
2013-02-25 06:22:00,23.9,8.4,30.03,WSW,248,0.2,1.1,51,0.00,,,0.00,WUHU216HW,2013-02-25 13:22:00,
2013-02-25 06:23:00,23.9,8.4,30.03,WSW,248,0.2,0.9,51,0.00,,,0.00,WUHU216HW,2013-02-25 13:23:00,
2013-02-25 06:24:00,23.9,8.4,30.03,WSW,248,0.0,0.7,51,0.00,,,0.00,WUHU216HW,2013-02-25 13:24:00,
2013-02-25 06:25:00,23.9,8.4,30.03,WSW,248,0.0,0.7,51,0.00,,,0.00,WUHU216HW,2013-02-25 13:25:00,
2013-02-25 06:26:00,23.9,8.4,30.03,NNW,338,0.4,0.7,51,0.00,,,0.00,WUHU216HW,2013-02-25 13:26:00,
2013-02-25 06:27:00,23.9,8.4,30.03,North,0,0.4,0.7,51,0.00,,,0.00,WUHU216HW,2013-02-25 13:27:00,
2013-02-25 06:28:00,23.9,8.8,30.03,North,0,0.2,0.7,52,0.00,,,0.00,WUHU216HW,2013-02-25 13:28:00,
2013-02-25 06:29:00,23.9,8.8,30.03,North,0,0.4,0.7,52,0.00,,,0.00,WUHU216HW,2013-02-25 13:29:00,
2013-02-25 06:30:00,23.9,8.8,30.03,NNW,338,0.7,0.9,52,0.00,,,0.00,WUHU216HW,2013-02-25 13:30:00,
2013-02-25 06:31:00,23.9,8.8,30.03,North,0,0.4,0.9,52,0.00,,,0.00,WUHU216HW,2013-02-25 13:31:00,
2013-02-25 06:32:00,23.9,8.8,30.03,North,0,0.2,0.9,52,0.00,,,0.00,WUHU216HW,2013-02-25 13:32:00,
2013-02-25 06:33:00,24.1,9.0,30.03,North,0,0.0,0.9,52,0.00,,,0.00,WUHU216HW,2013-02-25 13:33:00,
2013-02-25 06:34:00,24.1,9.0,30.03,North,0,0.0,0.9,52,0.00,,,0.00,WUHU216HW,2013-02-25 13:34:00,
2013-02-25 06:35:00,24.1,9.0,30.03,NNW,338,0.0,0.9,52,0.00,,,0.00,WUHU216HW,2013-02-25 13:35:00,
2013-02-25 06:36:00,24.1,9.0,30.03,NNW,338,0.0,0.9,52,0.00,,,0.00,WUHU216HW,2013-02-25 13:36:00,
2013-02-25 06:37:00,24.1,9.0,30.03,NNW,338,0.0,0.9,52,0.00,,,0.00,WUHU216HW,2013-02-25 13:37:00,
2013-02-25 06:38:00,23.9,8.8,30.03,West,270,0.2,0.9,52,0.00,,,0.00,WUHU216HW,2013-02-25 13:38:00,
2013-02-25 06:39:00,23.9,8.8,30.03,South,180,0.0,0.9,52,0.00,,,0.00,WUHU216HW,2013-02-25 13:39:00,
2013-02-25 06:40:00,23.9,8.8,30.03,SSE,158,0.2,0.9,52,0.00,,,0.00,WUHU216HW,2013-02-25 13:40:00,
2013-02-25 06:41:00,23.9,8.4,30.03,South,180,0.4,0.4,51,0.00,,,0.00,WUHU216HW,2013-02-25 13:41:00,
2013-02-25 06:42:00,23.8,8.3,30.03,SW,225,1.3,1.6,51,0.00,,,0.00,WUHU216HW,2013-02-25 13:42:00,
2013-02-25 06:43:00,23.8,8.3,30.03,SW,225,1.1,1.6,51,0.00,,,0.00,WUHU216HW,2013-02-25 13:43:00,
2013-02-25 06:44:00,23.6,8.5,30.03,SW,225,1.1,1.6,52,0.00,,,0.00,WUHU216HW,2013-02-25 13:44:00,
2013-02-25 06:45:00,23.6,8.5,30.03,SSW,203,0.4,1.6,52,0.00,,,0.00,WUHU216HW,2013-02-25 13:45:00,
2013-02-25 06:46:00,23.6,8.5,30.03,South,180,0.4,1.6,52,0.00,,,0.00,WUHU216HW,2013-02-25 13:46:00,
2013-02-25 06:47:00,23.6,8.5,30.03,South,180,0.2,1.6,52,0.00,,,0.00,WUHU216HW,2013-02-25 13:47:00,
2013-02-25 06:48:00,23.6,8.5,30.03,SW,225,1.1,1.6,52,0.00,,,0.00,WUHU216HW,2013-02-25 13:48:00,
2013-02-25 06:49:00,23.4,8.3,30.03,SW,225,1.1,1.6,52,0.00,,,0.00,WUHU216HW,2013-02-25 13:49:00,
2013-02-25 06:50:00,23.4,8.3,30.02,SW,225,0.2,1.6,52,0.00,,,0.00,WUHU216HW,2013-02-25 13:50:00,
2013-02-25 06:51:00,23.4,8.3,30.03,SW,225,0.2,1.6,52,0.00,,,0.00,WUHU216HW,2013-02-25 13:51:00,
2013-02-25 06:52:00,23.4,8.3,30.03,SSW,203,0.4,1.6,52,0.00,,,0.00,WUHU216HW,2013-02-25 13:52:00,
2013-02-25 06:53:00,23.4,8.3,30.03,SSW,203,0.4,1.1,52,0.00,,,0.00,WUHU216HW,2013-02-25 13:53:00,
2013-02-25 06:54:00,23.4,8.3,30.03,SW,225,0.9,1.1,52,0.00,,,0.00,WUHU216HW,2013-02-25 13:54:00,
2013-02-25 06:55:00,23.4,8.3,30.03,WSW,248,0.9,1.1,52,0.00,,,0.00,WUHU216HW,2013-02-25 13:55:00,
2013-02-25 06:56:00,23.4,8.3,30.03,SW,225,0.9,1.1,52,0.00,,,0.00,WUHU216HW,2013-02-25 13:56:00,
2013-02-25 06:57:00,23.4,8.3,30.03,SW,225,0.7,1.1,52,0.00,,,0.00,WUHU216HW,2013-02-25 13:57:00,
2013-02-25 06:58:00,23.4,8.7,30.04,SW,225,0.2,1.1,53,0.00,,,0.00,WUHU216HW,2013-02-25 13:58:00,
2013-02-25 06:59:00,23.4,8.7,30.04,SW,225,0.0,1.1,53,0.00,,,0.00,WUHU216HW,2013-02-25 13:59:00,
2013-02-25 07:00:00,23.4,8.7,30.04,SW,225,0.4,1.1,53,0.00,,,0.00,WUHU216HW,2013-02-25 14:00:00,
2013-02-25 07:01:00,23.4,8.7,30.04,SW,225,0.2,1.1,53,0.00,,,0.00,WUHU216HW,2013-02-25 14:01:00,
2013-02-25 07:02:00,23.4,8.7,30.04,SW,225,1.1,1.1,53,0.00,,,0.00,WUHU216HW,2013-02-25 14:02:00,
2013-02-25 07:03:00,23.4,8.7,30.04,SW,225,0.9,1.1,53,0.00,,,0.00,WUHU216HW,2013-02-25 14:03:00,
2013-02-25 07:04:00,23.6,8.9,30.04,SW,225,0.7,1.1,53,0.00,,,0.00,WUHU216HW,2013-02-25 14:04:00,
2013-02-25 07:05:00,23.8,9.1,30.04,SW,225,0.4,1.1,53,0.00,,,0.00,WUHU216HW,2013-02-25 14:05:00,
2013-02-25 07:06:00,23.8,9.1,30.04,SW,225,0.0,1.1,53,0.00,,,0.00,WUHU216HW,2013-02-25 14:06:00,
2013-02-25 07:07:00,23.8,9.1,30.04,WSW,248,0.7,1.1,53,0.00,,,0.00,WUHU216HW,2013-02-25 14:07:00,
2013-02-25 07:08:00,23.9,9.3,30.04,WSW,248,0.7,1.1,53,0.00,,,0.00,WUHU216HW,2013-02-25 14:08:00,
2013-02-25 07:09:00,24.1,9.4,30.04,WSW,248,0.7,1.1,53,0.00,,,0.00,WUHU216HW,2013-02-25 14:09:00,
2013-02-25 07:10:00,24.1,9.4,30.04,WSW,248,0.4,1.1,53,0.00,,,0.00,WUHU216HW,2013-02-25 14:10:00,
2013-02-25 07:11:00,24.3,9.5,30.04,WSW,248,0.4,1.1,53,0.00,,,0.00,WUHU216HW,2013-02-25 14:11:00,
2013-02-25 07:12:00,24.3,9.5,30.05,SW,225,0.4,1.1,53,0.00,,,0.00,WUHU216HW,2013-02-25 14:12:00,
2013-02-25 07:13:00,24.7,10.4,30.04,SW,225,0.4,1.1,54,0.00,,,0.00,WUHU216HW,2013-02-25 14:13:00,
2013-02-25 07:14:00,24.8,10.4,30.05,SW,225,0.4,1.1,54,0.00,,,0.00,WUHU216HW,2013-02-25 14:14:00,
2013-02-25 07:15:00,25.0,10.6,30.05,SW,225,0.4,1.1,54,0.00,,,0.00,WUHU216HW,2013-02-25 14:15:00,
2013-02-25 07:16:00,25.2,10.8,30.04,SW,225,0.0,1.1,54,0.00,,,0.00,WUHU216HW,2013-02-25 14:16:00,
2013-02-25 07:17:00,25.6,11.2,30.04,SW,225,0.0,1.1,54,0.00,,,0.00,WUHU216HW,2013-02-25 14:17:00,
2013-02-25 07:18:00,25.6,11.2,30.05,SW,225,0.0,1.1,54,0.00,,,0.00,WUHU216HW,2013-02-25 14:18:00,
2013-02-25 07:19:00,26.1,11.6,30.05,SW,225,0.0,1.1,54,0.00,,,0.00,WUHU216HW,2013-02-25 14:19:00,
2013-02-25 07:20:00,26.3,11.8,30.05,SW,225,0.0,0.7,54,0.00,,,0.00,WUHU216HW,2013-02-25 14:20:00,
2013-02-25 07:21:00,26.8,12.2,30.05,SW,225,0.0,0.4,54,0.00,,,0.00,WUHU216HW,2013-02-25 14:21:00,
2013-02-25 07:22:00,27.2,12.6,30.05,SW,225,0.7,0.7,54,0.00,,,0.00,WUHU216HW,2013-02-25 14:22:00,
2013-02-25 07:23:00,27.7,13.1,30.05,SW,225,0.7,1.1,54,0.00,,,0.00,WUHU216HW,2013-02-25 14:23:00,
2013-02-25 07:24:00,28.1,13.5,30.05,SW,225,0.7,1.1,54,0.00,,,0.00,WUHU216HW,2013-02-25 14:24:00,
2013-02-25 07:25:00,28.4,13.9,30.05,SW,225,0.7,1.1,54,0.00,,,0.00,WUHU216HW,2013-02-25 14:25:00,
2013-02-25 07:26:00,28.8,14.2,30.05,SW,225,1.1,1.1,54,0.00,,,0.00,WUHU216HW,2013-02-25 14:26:00,
2013-02-25 07:27:00,29.3,14.3,30.05,SW,225,0.7,1.1,53,0.00,,,0.00,WUHU216HW,2013-02-25 14:27:00,
2013-02-25 07:28:00,29.9,14.8,30.05,SW,225,0.7,1.1,53,0.00,,,0.00,WUHU216HW,2013-02-25 14:28:00,
2013-02-25 07:29:00,30.2,15.1,30.05,SW,225,0.9,1.1,53,0.00,,,0.00,WUHU216HW,2013-02-25 14:29:00,
2013-02-25 07:30:00,30.8,15.2,30.05,SW,225,1.1,1.1,52,0.00,,,0.00,WUHU216HW,2013-02-25 14:30:00,
2013-02-25 07:31:00,31.3,15.7,30.05,SW,225,0.9,1.1,52,0.00,,,0.00,WUHU216HW,2013-02-25 14:31:00,
2013-02-25 07:32:00,32.0,16.4,30.05,SW,225,1.6,1.6,52,0.00,,,0.00,WUHU216HW,2013-02-25 14:32:00,
2013-02-25 07:33:00,32.2,16.5,30.05,SSW,203,1.8,1.8,52,0.00,,,0.00,WUHU216HW,2013-02-25 14:33:00,
2013-02-25 07:34:00,32.8,16.6,30.05,SW,225,1.8,1.8,51,0.00,,,0.00,WUHU216HW,2013-02-25 14:34:00,
2013-02-25 07:35:00,33.1,16.9,30.06,SW,225,1.3,2.0,51,0.00,,,0.00,WUHU216HW,2013-02-25 14:35:00,
2013-02-25 07:36:00,33.7,16.9,30.06,SSW,203,1.8,2.0,50,0.00,,,0.00,WUHU216HW,2013-02-25 14:36:00,
2013-02-25 07:37:00,34.0,17.3,30.06,SW,225,1.8,2.2,50,0.00,,,0.00,WUHU216HW,2013-02-25 14:37:00,
2013-02-25 07:38:00,34.4,17.1,30.06,SW,225,2.5,3.4,49,0.00,,,0.00,WUHU216HW,2013-02-25 14:38:00,
2013-02-25 07:39:00,34.7,17.0,30.06,SW,225,2.0,3.6,48,0.00,,,0.00,WUHU216HW,2013-02-25 14:39:00,
2013-02-25 07:40:00,34.9,17.2,30.06,SW,225,2.7,3.6,48,0.00,,,0.00,WUHU216HW,2013-02-25 14:40:00,
2013-02-25 07:41:00,35.1,16.8,30.06,SW,225,1.8,3.6,47,0.00,,,0.00,WUHU216HW,2013-02-25 14:41:00,
2013-02-25 07:42:00,35.3,17.0,30.06,WSW,248,2.5,3.6,47,0.00,,,0.00,WUHU216HW,2013-02-25 14:42:00,
2013-02-25 07:43:00,35.5,17.2,30.06,WSW,248,1.8,3.6,47,0.00,,,0.00,WUHU216HW,2013-02-25 14:43:00,
2013-02-25 07:44:00,35.6,16.8,30.05,SSW,203,3.1,3.6,46,0.00,,,0.00,WUHU216HW,2013-02-25 14:44:00,
2013-02-25 07:45:00,35.6,16.8,30.06,SW,225,2.2,3.6,46,0.00,,,0.00,WUHU216HW,2013-02-25 14:45:00,
2013-02-25 07:46:00,35.3,15.9,30.06,WSW,248,3.1,3.6,45,0.00,,,0.00,WUHU216HW,2013-02-25 14:46:00,
2013-02-25 07:47:00,35.1,15.3,30.05,WSW,248,1.3,3.6,44,0.00,,,0.00,WUHU216HW,2013-02-25 14:47:00,
2013-02-25 07:48:00,34.6,14.8,30.05,WSW,248,3.6,3.6,44,0.00,,,0.00,WUHU216HW,2013-02-25 14:48:00,
2013-02-25 07:49:00,34.0,14.2,30.06,West,270,4.0,4.0,44,0.00,,,0.00,WUHU216HW,2013-02-25 14:49:00,
2013-02-25 07:50:00,33.5,13.8,30.06,SSW,203,2.9,4.0,44,0.00,,,0.00,WUHU216HW,2013-02-25 14:50:00,
2013-02-25 07:51:00,33.1,13.4,30.05,SW,225,2.5,4.0,44,0.00,,,0.00,WUHU216HW,2013-02-25 14:51:00,
2013-02-25 07:52:00,32.8,13.2,30.05,WSW,248,2.5,4.0,44,0.00,,,0.00,WUHU216HW,2013-02-25 14:52:00,
2013-02-25 07:53:00,32.4,12.8,30.06,WSW,248,2.2,4.0,44,0.00,,,0.00,WUHU216HW,2013-02-25 14:53:00,
2013-02-25 07:54:00,32.2,12.6,30.05,WSW,248,0.9,4.0,44,0.00,,,0.00,WUHU216HW,2013-02-25 14:54:00,
2013-02-25 07:55:00,32.0,13.0,30.06,SSW,203,2.2,4.0,45,0.00,,,0.00,WUHU216HW,2013-02-25 14:55:00,
2013-02-25 07:56:00,31.9,12.8,30.05,NW,315,2.5,4.0,45,0.00,,,0.00,WUHU216HW,2013-02-25 14:56:00,
2013-02-25 07:57:00,31.9,12.8,30.06,SW,225,1.1,4.0,45,0.00,,,0.00,WUHU216HW,2013-02-25 14:57:00,
2013-02-25 07:58:00,31.7,12.6,30.06,NW,315,1.1,4.0,45,0.00,,,0.00,WUHU216HW,2013-02-25 14:58:00,
2013-02-25 07:59:00,31.7,13.1,30.06,WNW,293,2.7,4.0,46,0.00,,,0.00,WUHU216HW,2013-02-25 14:59:00,
2013-02-25 08:00:00,31.7,13.1,30.06,NW,315,0.9,4.0,46,0.00,,,0.00,WUHU216HW,2013-02-25 15:00:00,
2013-02-25 08:01:00,31.7,13.1,30.06,NNW,338,1.6,4.0,46,0.00,,,0.00,WUHU216HW,2013-02-25 15:01:00,
2013-02-25 08:02:00,31.9,13.3,30.06,WSW,248,5.1,5.1,46,0.00,,,0.00,WUHU216HW,2013-02-25 15:02:00,
2013-02-25 08:03:00,31.7,13.1,30.06,NNW,338,2.2,5.1,46,0.00,,,0.00,WUHU216HW,2013-02-25 15:03:00,
2013-02-25 08:04:00,31.7,13.1,30.06,NNW,338,3.1,5.1,46,0.00,,,0.00,WUHU216HW,2013-02-25 15:04:00,
2013-02-25 08:05:00,31.9,13.3,30.07,WNW,293,3.1,5.1,46,0.00,,,0.00,WUHU216HW,2013-02-25 15:05:00,
2013-02-25 08:06:00,31.9,13.3,30.06,North,0,3.4,5.1,46,0.00,,,0.00,WUHU216HW,2013-02-25 15:06:00,
2013-02-25 08:07:00,31.9,13.3,30.06,NNW,338,2.2,5.1,46,0.00,,,0.00,WUHU216HW,2013-02-25 15:07:00,
2013-02-25 08:08:00,31.9,13.3,30.07,North,0,2.5,5.1,46,0.00,,,0.00,WUHU216HW,2013-02-25 15:08:00,
2013-02-25 08:09:00,31.9,13.3,30.07,North,0,2.5,5.1,46,0.00,,,0.00,WUHU216HW,2013-02-25 15:09:00,
2013-02-25 08:10:00,32.0,13.5,30.07,North,0,2.7,5.1,46,0.00,,,0.00,WUHU216HW,2013-02-25 15:10:00,
2013-02-25 08:11:00,32.0,13.5,30.07,NNE,23,5.4,5.4,46,0.00,,,0.00,WUHU216HW,2013-02-25 15:11:00,
2013-02-25 08:12:00,32.0,13.5,30.07,NNW,338,1.1,5.4,46,0.00,,,0.00,WUHU216HW,2013-02-25 15:12:00,
2013-02-25 08:13:00,32.0,13.5,30.07,North,0,2.9,5.4,46,0.00,,,0.00,WUHU216HW,2013-02-25 15:13:00,
2013-02-25 08:14:00,32.0,13.5,30.07,NNW,338,2.7,5.4,46,0.00,,,0.00,WUHU216HW,2013-02-25 15:14:00,
2013-02-25 08:15:00,32.0,13.5,30.07,NNE,23,3.8,5.4,46,0.00,,,0.00,WUHU216HW,2013-02-25 15:15:00,
2013-02-25 08:16:00,32.0,13.5,30.07,North,0,1.3,5.4,46,0.00,,,0.00,WUHU216HW,2013-02-25 15:16:00,
2013-02-25 08:17:00,32.0,13.5,30.07,North,0,1.3,5.4,46,0.00,,,0.00,WUHU216HW,2013-02-25 15:17:00,
2013-02-25 08:18:00,32.0,13.5,30.07,NNW,338,2.5,5.4,46,0.00,,,0.00,WUHU216HW,2013-02-25 15:18:00,
2013-02-25 08:19:00,32.2,13.6,30.07,NE,45,1.3,5.4,46,0.00,,,0.00,WUHU216HW,2013-02-25 15:19:00,
2013-02-25 08:20:00,32.4,13.8,30.07,North,0,1.1,5.4,46,0.00,,,0.00,WUHU216HW,2013-02-25 15:20:00,
2013-02-25 08:21:00,32.4,13.8,30.07,North,0,2.9,5.4,46,0.00,,,0.00,WUHU216HW,2013-02-25 15:21:00,
2013-02-25 08:22:00,32.4,13.8,30.07,NNW,338,2.5,4.0,46,0.00,,,0.00,WUHU216HW,2013-02-25 15:22:00,
2013-02-25 08:23:00,32.6,14.0,30.07,NW,315,2.2,4.0,46,0.00,,,0.00,WUHU216HW,2013-02-25 15:23:00,
2013-02-25 08:24:00,32.8,14.1,30.07,NW,315,2.7,4.0,46,0.00,,,0.00,WUHU216HW,2013-02-25 15:24:00,
2013-02-25 08:25:00,32.8,14.1,30.07,WNW,293,3.4,4.0,46,0.00,,,0.00,WUHU216HW,2013-02-25 15:25:00,
2013-02-25 08:26:00,32.9,14.3,30.07,NNW,338,2.7,4.0,46,0.00,,,0.00,WUHU216HW,2013-02-25 15:26:00,
2013-02-25 08:27:00,32.9,14.3,30.07,NNW,338,3.1,4.0,46,0.00,,,0.00,WUHU216HW,2013-02-25 15:27:00,
2013-02-25 08:28:00,33.1,14.4,30.07,NW,315,4.3,5.4,46,0.00,,,0.00,WUHU216HW,2013-02-25 15:28:00,
2013-02-25 08:29:00,33.1,14.4,30.06,NNW,338,3.4,5.4,46,0.00,,,0.00,WUHU216HW,2013-02-25 15:29:00,
2013-02-25 08:30:00,33.3,14.6,30.06,NNW,338,1.1,5.4,46,0.00,,,0.00,WUHU216HW,2013-02-25 15:30:00,
2013-02-25 08:31:00,33.5,14.8,30.06,WNW,293,4.3,5.4,46,0.00,,,0.00,WUHU216HW,2013-02-25 15:31:00,
2013-02-25 08:32:00,33.5,14.8,30.06,North,0,1.8,5.4,46,0.00,,,0.00,WUHU216HW,2013-02-25 15:32:00,
2013-02-25 08:33:00,33.5,14.2,30.06,North,0,2.5,5.4,45,0.00,,,0.00,WUHU216HW,2013-02-25 15:33:00,
2013-02-25 08:34:00,33.7,14.4,30.06,North,0,2.0,5.4,45,0.00,,,0.00,WUHU216HW,2013-02-25 15:34:00,
2013-02-25 08:35:00,33.7,14.4,30.07,NW,315,2.2,5.4,45,0.00,,,0.00,WUHU216HW,2013-02-25 15:35:00,
2013-02-25 08:36:00,33.7,14.4,30.06,NNW,338,1.6,5.4,45,0.00,,,0.00,WUHU216HW,2013-02-25 15:36:00,
2013-02-25 08:37:00,33.7,14.4,30.06,NNE,23,0.4,5.4,45,0.00,,,0.00,WUHU216HW,2013-02-25 15:37:00,
2013-02-25 08:38:00,33.8,14.6,30.06,North,0,1.3,4.5,45,0.00,,,0.00,WUHU216HW,2013-02-25 15:38:00,
2013-02-25 08:39:00,33.8,14.6,30.06,WNW,293,2.5,4.5,45,0.00,,,0.00,WUHU216HW,2013-02-25 15:39:00,
2013-02-25 08:40:00,34.0,14.8,30.06,NNW,338,3.1,4.5,45,0.00,,,0.00,WUHU216HW,2013-02-25 15:40:00,
2013-02-25 08:41:00,34.2,15.0,30.06,WNW,293,2.0,4.5,45,0.00,,,0.00,WUHU216HW,2013-02-25 15:41:00,
2013-02-25 08:42:00,34.2,15.0,30.06,NNW,338,3.4,3.8,45,0.00,,,0.00,WUHU216HW,2013-02-25 15:42:00,
2013-02-25 08:43:00,34.4,15.1,30.06,North,0,2.0,3.8,45,0.00,,,0.00,WUHU216HW,2013-02-25 15:43:00,
2013-02-25 08:44:00,34.6,15.3,30.06,NNE,23,3.4,3.8,45,0.00,,,0.00,WUHU216HW,2013-02-25 15:44:00,
2013-02-25 08:45:00,34.6,14.8,30.06,North,0,3.4,4.0,44,0.00,,,0.00,WUHU216HW,2013-02-25 15:45:00,
2013-02-25 08:46:00,34.7,15.0,30.06,NW,315,4.0,5.1,44,0.00,,,0.00,WUHU216HW,2013-02-25 15:46:00,
2013-02-25 08:47:00,34.7,15.0,30.06,North,0,4.5,5.1,44,0.00,,,0.00,WUHU216HW,2013-02-25 15:47:00,
2013-02-25 08:48:00,34.7,15.0,30.06,NNW,338,5.4,5.4,44,0.00,,,0.00,WUHU216HW,2013-02-25 15:48:00,
2013-02-25 08:49:00,34.7,15.0,30.06,NW,315,5.6,5.6,44,0.00,,,0.00,WUHU216HW,2013-02-25 15:49:00,
2013-02-25 08:50:00,34.9,14.6,30.06,WNW,293,2.7,5.6,43,0.00,,,0.00,WUHU216HW,2013-02-25 15:50:00,
2013-02-25 08:51:00,34.9,15.1,30.06,WNW,293,3.1,5.6,44,0.00,,,0.00,WUHU216HW,2013-02-25 15:51:00,
2013-02-25 08:52:00,34.9,14.6,30.06,NNW,338,2.5,5.6,43,0.00,,,0.00,WUHU216HW,2013-02-25 15:52:00,
2013-02-25 08:53:00,34.9,14.6,30.07,NNW,338,4.7,5.6,43,0.00,,,0.00,WUHU216HW,2013-02-25 15:53:00,
2013-02-25 08:54:00,34.9,14.6,30.07,North,0,5.6,5.6,43,0.00,,,0.00,WUHU216HW,2013-02-25 15:54:00,
2013-02-25 08:55:00,35.1,14.8,30.07,NNW,338,3.4,5.6,43,0.00,,,0.00,WUHU216HW,2013-02-25 15:55:00,
2013-02-25 08:56:00,35.1,14.8,30.07,NW,315,2.5,5.6,43,0.00,,,0.00,WUHU216HW,2013-02-25 15:56:00,
2013-02-25 08:57:00,35.3,15.0,30.07,WNW,293,4.5,5.6,43,0.00,,,0.00,WUHU216HW,2013-02-25 15:57:00,
2013-02-25 08:58:00,35.1,14.8,30.07,West,270,3.1,5.6,43,0.00,,,0.00,WUHU216HW,2013-02-25 15:58:00,
2013-02-25 08:59:00,35.3,15.0,30.06,NW,315,1.1,5.6,43,0.00,,,0.00,WUHU216HW,2013-02-25 15:59:00,
2013-02-25 09:00:00,35.3,15.0,30.06,NW,315,3.8,5.6,43,0.00,,,0.00,WUHU216HW,2013-02-25 16:00:00,
2013-02-25 09:01:00,35.3,15.0,30.06,North,0,1.8,5.6,43,0.00,,,0.00,WUHU216HW,2013-02-25 16:01:00,
2013-02-25 09:02:00,35.6,15.2,30.06,WNW,293,3.1,5.6,43,0.00,,,0.00,WUHU216HW,2013-02-25 16:02:00,
2013-02-25 09:03:00,35.6,15.2,30.06,NNW,338,2.0,5.6,43,0.00,,,0.00,WUHU216HW,2013-02-25 16:03:00,
2013-02-25 09:04:00,35.6,15.2,30.06,NW,315,2.5,5.8,43,0.00,,,0.00,WUHU216HW,2013-02-25 16:04:00,
2013-02-25 09:05:00,35.6,15.2,30.06,North,0,1.8,5.8,43,0.00,,,0.00,WUHU216HW,2013-02-25 16:05:00,
2013-02-25 09:06:00,35.6,14.8,30.06,North,0,4.3,5.8,42,0.00,,,0.00,WUHU216HW,2013-02-25 16:06:00,
2013-02-25 09:07:00,35.8,14.9,30.06,West,270,4.7,5.8,42,0.00,,,0.00,WUHU216HW,2013-02-25 16:07:00,
2013-02-25 09:08:00,35.8,14.9,30.06,NNW,338,3.6,5.8,42,0.00,,,0.00,WUHU216HW,2013-02-25 16:08:00,
2013-02-25 09:09:00,35.8,14.9,30.06,WNW,293,2.2,5.8,42,0.00,,,0.00,WUHU216HW,2013-02-25 16:09:00,
2013-02-25 09:10:00,35.8,14.9,30.06,NW,315,4.0,5.8,42,0.00,,,0.00,WUHU216HW,2013-02-25 16:10:00,
2013-02-25 09:11:00,36.0,15.0,30.06,NW,315,2.9,5.8,42,0.00,,,0.00,WUHU216HW,2013-02-25 16:11:00,
2013-02-25 09:12:00,36.0,15.0,30.06,NNE,23,2.5,5.8,42,0.00,,,0.00,WUHU216HW,2013-02-25 16:12:00,
2013-02-25 09:13:00,36.2,15.8,30.06,North,0,1.8,5.8,43,0.00,,,0.00,WUHU216HW,2013-02-25 16:13:00,
2013-02-25 09:14:00,36.2,15.2,30.06,North,0,1.8,4.9,42,0.00,,,0.00,WUHU216HW,2013-02-25 16:14:00,
2013-02-25 09:15:00,36.2,15.2,30.06,NNW,338,2.9,4.9,42,0.00,,,0.00,WUHU216HW,2013-02-25 16:15:00,
2013-02-25 09:16:00,36.4,14.9,30.05,North,0,3.1,4.7,41,0.00,,,0.00,WUHU216HW,2013-02-25 16:16:00,
2013-02-25 09:17:00,36.4,15.4,30.05,WNW,293,2.9,4.7,42,0.00,,,0.00,WUHU216HW,2013-02-25 16:17:00,
2013-02-25 09:18:00,36.5,15.6,30.05,NNW,338,3.4,5.1,42,0.00,,,0.00,WUHU216HW,2013-02-25 16:18:00,
2013-02-25 09:19:00,36.5,15.0,30.05,North,0,1.6,5.1,41,0.00,,,0.00,WUHU216HW,2013-02-25 16:19:00,
2013-02-25 09:20:00,36.7,15.2,30.06,North,0,4.5,5.6,41,0.00,,,0.00,WUHU216HW,2013-02-25 16:20:00,
2013-02-25 09:21:00,36.7,15.2,30.05,North,0,2.7,5.6,41,0.00,,,0.00,WUHU216HW,2013-02-25 16:21:00,
2013-02-25 09:22:00,36.7,15.2,30.06,North,0,4.3,5.6,41,0.00,,,0.00,WUHU216HW,2013-02-25 16:22:00,
2013-02-25 09:23:00,36.9,15.3,30.06,WNW,293,4.3,5.6,41,0.00,,,0.00,WUHU216HW,2013-02-25 16:23:00,
2013-02-25 09:24:00,36.9,15.3,30.06,NW,315,2.7,5.6,41,0.00,,,0.00,WUHU216HW,2013-02-25 16:24:00,
2013-02-25 09:25:00,36.9,15.3,30.06,NW,315,2.9,5.6,41,0.00,,,0.00,WUHU216HW,2013-02-25 16:25:00,
2013-02-25 09:26:00,36.9,15.3,30.06,West,270,2.5,5.6,41,0.00,,,0.00,WUHU216HW,2013-02-25 16:26:00,
2013-02-25 09:27:00,36.9,15.3,30.06,WNW,293,2.2,5.6,41,0.00,,,0.00,WUHU216HW,2013-02-25 16:27:00,
2013-02-25 09:28:00,36.9,14.9,30.06,NW,315,2.7,5.6,40,0.00,,,0.00,WUHU216HW,2013-02-25 16:28:00,
2013-02-25 09:29:00,36.9,14.9,30.06,North,0,6.3,6.3,40,0.00,,,0.00,WUHU216HW,2013-02-25 16:29:00,
2013-02-25 09:30:00,37.1,14.9,30.06,North,0,6.0,6.3,40,0.00,,,0.00,WUHU216HW,2013-02-25 16:30:00,
2013-02-25 09:31:00,37.1,14.9,30.06,North,0,4.9,6.3,40,0.00,,,0.00,WUHU216HW,2013-02-25 16:31:00,
2013-02-25 09:32:00,37.1,14.9,30.06,NNE,23,3.8,6.3,40,0.00,,,0.00,WUHU216HW,2013-02-25 16:32:00,
2013-02-25 09:33:00,37.3,15.1,30.06,NW,315,2.7,6.3,40,0.00,,,0.00,WUHU216HW,2013-02-25 16:33:00,
2013-02-25 09:34:00,37.4,15.3,30.06,WNW,293,1.6,6.3,40,0.00,,,0.00,WUHU216HW,2013-02-25 16:34:00,
2013-02-25 09:35:00,37.4,15.9,30.06,NNW,338,2.0,6.3,41,0.00,,,0.00,WUHU216HW,2013-02-25 16:35:00,
2013-02-25 09:36:00,37.6,15.5,30.06,NW,315,2.9,6.3,40,0.00,,,0.00,WUHU216HW,2013-02-25 16:36:00,
2013-02-25 09:37:00,37.8,15.7,30.06,NW,315,1.6,6.3,40,0.00,,,0.00,WUHU216HW,2013-02-25 16:37:00,
2013-02-25 09:38:00,37.8,15.7,30.06,North,0,3.1,6.3,40,0.00,,,0.00,WUHU216HW,2013-02-25 16:38:00,
2013-02-25 09:39:00,38.0,15.8,30.06,North,0,4.9,6.3,40,0.00,,,0.00,WUHU216HW,2013-02-25 16:39:00,
2013-02-25 09:40:00,38.2,15.9,30.06,North,0,3.1,6.0,40,0.00,,,0.00,WUHU216HW,2013-02-25 16:40:00,
2013-02-25 09:41:00,38.2,15.9,30.06,North,0,4.0,5.1,40,0.00,,,0.00,WUHU216HW,2013-02-25 16:41:00,
2013-02-25 09:42:00,38.3,15.5,30.06,NNW,338,1.8,4.9,39,0.00,,,0.00,WUHU216HW,2013-02-25 16:42:00,
2013-02-25 09:43:00,38.3,15.5,30.06,North,0,0.4,4.9,39,0.00,,,0.00,WUHU216HW,2013-02-25 16:43:00,
2013-02-25 09:44:00,38.5,15.7,30.07,North,0,1.6,4.9,39,0.00,,,0.00,WUHU216HW,2013-02-25 16:44:00,
2013-02-25 09:45:00,38.5,15.7,30.07,North,0,1.6,4.9,39,0.00,,,0.00,WUHU216HW,2013-02-25 16:45:00,
2013-02-25 09:46:00,38.5,15.7,30.07,North,0,3.4,4.9,39,0.00,,,0.00,WUHU216HW,2013-02-25 16:46:00,
2013-02-25 09:47:00,38.7,15.8,30.06,North,0,1.3,4.9,39,0.00,,,0.00,WUHU216HW,2013-02-25 16:47:00,
2013-02-25 09:48:00,38.9,16.6,30.06,North,0,1.3,4.9,40,0.00,,,0.00,WUHU216HW,2013-02-25 16:48:00,
2013-02-25 09:49:00,38.9,15.9,30.06,NNW,338,2.5,4.7,39,0.00,,,0.00,WUHU216HW,2013-02-25 16:49:00,
2013-02-25 09:50:00,39.1,16.7,30.06,SW,225,1.8,4.7,40,0.00,,,0.00,WUHU216HW,2013-02-25 16:50:00,
2013-02-25 09:51:00,39.1,16.1,30.06,WNW,293,2.0,4.0,39,0.00,,,0.00,WUHU216HW,2013-02-25 16:51:00,
2013-02-25 09:52:00,39.1,16.1,30.06,NW,315,0.7,3.8,39,0.00,,,0.00,WUHU216HW,2013-02-25 16:52:00,
2013-02-25 09:53:00,39.2,16.9,30.06,WNW,293,1.8,3.8,40,0.00,,,0.00,WUHU216HW,2013-02-25 16:53:00,
2013-02-25 09:54:00,39.2,16.3,30.06,NNW,338,3.4,3.8,39,0.00,,,0.00,WUHU216HW,2013-02-25 16:54:00,
2013-02-25 09:55:00,39.2,16.3,30.06,North,0,3.1,5.4,39,0.00,,,0.00,WUHU216HW,2013-02-25 16:55:00,
2013-02-25 09:56:00,39.2,16.3,30.06,NNW,338,1.6,5.4,39,0.00,,,0.00,WUHU216HW,2013-02-25 16:56:00,
2013-02-25 09:57:00,39.2,15.7,30.06,North,0,3.8,5.4,38,0.00,,,0.00,WUHU216HW,2013-02-25 16:57:00,
2013-02-25 09:58:00,39.4,16.5,30.06,NW,315,2.5,5.4,39,0.00,,,0.00,WUHU216HW,2013-02-25 16:58:00,
2013-02-25 09:59:00,39.6,16.6,30.06,NW,315,2.0,5.4,39,0.00,,,0.00,WUHU216HW,2013-02-25 16:59:00,
2013-02-25 10:00:00,39.6,16.6,30.06,WNW,293,4.0,5.4,39,0.00,,,0.00,WUHU216HW,2013-02-25 17:00:00,
2013-02-25 10:01:00,39.6,16.6,30.06,WNW,293,1.3,5.4,39,0.00,,,0.00,WUHU216HW,2013-02-25 17:01:00,
2013-02-25 10:02:00,39.8,16.7,30.06,WNW,293,1.1,5.4,39,0.00,,,0.00,WUHU216HW,2013-02-25 17:02:00,
2013-02-25 10:03:00,40.0,16.9,30.06,NNW,338,0.7,5.4,39,0.00,,,0.00,WUHU216HW,2013-02-25 17:03:00,
2013-02-25 10:04:00,40.1,17.1,30.06,North,0,0.9,5.4,39,0.00,,,0.00,WUHU216HW,2013-02-25 17:04:00,
2013-02-25 10:05:00,40.3,17.3,30.06,NW,315,4.3,4.7,39,0.00,,,0.00,WUHU216HW,2013-02-25 17:05:00,
2013-02-25 10:06:00,40.3,17.3,30.06,NNW,338,4.0,4.7,39,0.00,,,0.00,WUHU216HW,2013-02-25 17:06:00,
2013-02-25 10:07:00,40.5,16.7,30.06,NW,315,1.8,4.7,38,0.00,,,0.00,WUHU216HW,2013-02-25 17:07:00,
2013-02-25 10:08:00,40.7,16.9,30.06,NNW,338,3.1,4.9,38,0.00,,,0.00,WUHU216HW,2013-02-25 17:08:00,
2013-02-25 10:09:00,40.7,16.9,30.06,NW,315,2.0,4.9,38,0.00,,,0.00,WUHU216HW,2013-02-25 17:09:00,
2013-02-25 10:10:00,40.7,16.9,30.06,NW,315,1.8,4.9,38,0.00,,,0.00,WUHU216HW,2013-02-25 17:10:00,
2013-02-25 10:11:00,41.0,17.3,30.06,North,0,1.6,4.9,38,0.00,,,0.00,WUHU216HW,2013-02-25 17:11:00,
2013-02-25 10:12:00,41.0,17.3,30.06,SW,225,3.4,4.9,38,0.00,,,0.00,WUHU216HW,2013-02-25 17:12:00,
2013-02-25 10:13:00,41.0,17.3,30.06,West,270,1.6,4.9,38,0.00,,,0.00,WUHU216HW,2013-02-25 17:13:00,
2013-02-25 10:14:00,41.2,16.7,30.05,North,0,2.2,4.9,37,0.00,,,0.00,WUHU216HW,2013-02-25 17:14:00,
2013-02-25 10:15:00,41.2,16.7,30.06,North,0,2.5,4.9,37,0.00,,,0.00,WUHU216HW,2013-02-25 17:15:00,
2013-02-25 10:16:00,41.4,16.9,30.06,North,0,1.8,4.9,37,0.00,,,0.00,WUHU216HW,2013-02-25 17:16:00,
2013-02-25 10:17:00,41.4,16.9,30.06,North,0,1.8,4.9,37,0.00,,,0.00,WUHU216HW,2013-02-25 17:17:00,
2013-02-25 10:18:00,41.6,17.1,30.06,NW,315,1.1,4.7,37,0.00,,,0.00,WUHU216HW,2013-02-25 17:18:00,
2013-02-25 10:19:00,41.6,17.1,30.06,WNW,293,1.6,4.7,37,0.00,,,0.00,WUHU216HW,2013-02-25 17:19:00,
2013-02-25 10:20:00,41.6,17.1,30.06,West,270,3.1,4.7,37,0.00,,,0.00,WUHU216HW,2013-02-25 17:20:00,
2013-02-25 10:21:00,41.8,17.2,30.06,NNW,338,3.8,4.7,37,0.00,,,0.00,WUHU216HW,2013-02-25 17:21:00,
2013-02-25 10:22:00,41.9,17.4,30.06,North,0,1.8,4.3,37,0.00,,,0.00,WUHU216HW,2013-02-25 17:22:00,
2013-02-25 10:23:00,41.9,17.4,30.06,North,0,3.8,4.5,37,0.00,,,0.00,WUHU216HW,2013-02-25 17:23:00,
2013-02-25 10:24:00,42.1,17.6,30.06,North,0,3.8,4.5,37,0.00,,,0.00,WUHU216HW,2013-02-25 17:24:00,
2013-02-25 10:25:00,42.1,17.6,30.05,NW,315,3.1,4.5,37,0.00,,,0.00,WUHU216HW,2013-02-25 17:25:00,
2013-02-25 10:26:00,42.1,17.6,30.05,NNW,338,1.8,4.5,37,0.00,,,0.00,WUHU216HW,2013-02-25 17:26:00,
2013-02-25 10:27:00,42.3,17.7,30.05,NNW,338,4.0,4.5,37,0.00,,,0.00,WUHU216HW,2013-02-25 17:27:00,
2013-02-25 10:28:00,42.3,17.0,30.05,WSW,248,4.9,4.9,36,0.00,,,0.00,WUHU216HW,2013-02-25 17:28:00,
2013-02-25 10:29:00,42.1,16.9,30.05,NNW,338,1.6,4.9,36,0.00,,,0.00,WUHU216HW,2013-02-25 17:29:00,
2013-02-25 10:30:00,42.1,16.9,30.05,North,0,0.4,4.9,36,0.00,,,0.00,WUHU216HW,2013-02-25 17:30:00,
2013-02-25 10:31:00,42.1,16.9,30.05,ENE,68,0.2,4.9,36,0.00,,,0.00,WUHU216HW,2013-02-25 17:31:00,
2013-02-25 10:32:00,42.1,16.9,30.05,SSW,203,1.3,4.9,36,0.00,,,0.00,WUHU216HW,2013-02-25 17:32:00,
2013-02-25 10:33:00,42.3,17.0,30.05,SSW,203,3.4,4.9,36,0.00,,,0.00,WUHU216HW,2013-02-25 17:33:00,
2013-02-25 10:34:00,42.3,17.0,30.05,NNW,338,2.7,4.9,36,0.00,,,0.00,WUHU216HW,2013-02-25 17:34:00,
2013-02-25 10:35:00,42.5,17.2,30.05,North,0,2.7,4.9,36,0.00,,,0.00,WUHU216HW,2013-02-25 17:35:00,
2013-02-25 10:36:00,42.8,17.5,30.05,West,270,2.5,4.9,36,0.00,,,0.00,WUHU216HW,2013-02-25 17:36:00,
2013-02-25 10:37:00,42.8,17.5,30.05,West,270,4.7,4.9,36,0.00,,,0.00,WUHU216HW,2013-02-25 17:37:00,
2013-02-25 10:38:00,42.8,17.5,30.05,WSW,248,4.7,4.7,36,0.00,,,0.00,WUHU216HW,2013-02-25 17:38:00,
2013-02-25 10:39:00,42.8,16.8,30.05,West,270,6.3,6.3,35,0.00,,,0.00,WUHU216HW,2013-02-25 17:39:00,
2013-02-25 10:40:00,42.8,16.8,30.05,NNW,338,2.5,6.3,35,0.00,,,0.00,WUHU216HW,2013-02-25 17:40:00,
2013-02-25 10:41:00,42.8,16.8,30.05,WSW,248,3.8,6.3,35,0.00,,,0.00,WUHU216HW,2013-02-25 17:41:00,
2013-02-25 10:42:00,42.8,16.8,30.05,SW,225,1.8,6.3,35,0.00,,,0.00,WUHU216HW,2013-02-25 17:42:00,
2013-02-25 10:43:00,43.0,17.0,30.05,SSE,158,1.1,6.3,35,0.00,,,0.00,WUHU216HW,2013-02-25 17:43:00,
2013-02-25 10:44:00,43.0,17.0,30.05,SSE,158,0.4,6.3,35,0.00,,,0.00,WUHU216HW,2013-02-25 17:44:00,
2013-02-25 10:45:00,43.2,17.8,30.05,WNW,293,2.5,6.3,36,0.00,,,0.00,WUHU216HW,2013-02-25 17:45:00,
2013-02-25 10:46:00,43.4,18.0,30.05,WNW,293,0.7,6.3,36,0.00,,,0.00,WUHU216HW,2013-02-25 17:46:00,
2013-02-25 10:47:00,43.4,17.3,30.05,SW,225,1.6,6.3,35,0.00,,,0.00,WUHU216HW,2013-02-25 17:47:00,
2013-02-25 10:48:00,43.6,17.5,30.05,West,270,4.3,6.3,35,0.00,,,0.00,WUHU216HW,2013-02-25 17:48:00,
2013-02-25 10:49:00,43.6,17.5,30.05,WNW,293,3.1,6.3,35,0.00,,,0.00,WUHU216HW,2013-02-25 17:49:00,
2013-02-25 10:50:00,43.7,17.6,30.05,NW,315,5.4,5.4,35,0.00,,,0.00,WUHU216HW,2013-02-25 17:50:00,
2013-02-25 10:51:00,43.6,16.8,30.05,NW,315,4.9,6.9,34,0.00,,,0.00,WUHU216HW,2013-02-25 17:51:00,
2013-02-25 10:52:00,43.6,16.1,30.05,NNW,338,3.1,7.6,33,0.00,,,0.00,WUHU216HW,2013-02-25 17:52:00,
2013-02-25 10:53:00,43.4,16.0,30.05,WSW,248,3.1,7.6,33,0.00,,,0.00,WUHU216HW,2013-02-25 17:53:00,
2013-02-25 10:54:00,43.6,16.1,30.05,West,270,3.4,7.6,33,0.00,,,0.00,WUHU216HW,2013-02-25 17:54:00,
2013-02-25 10:55:00,43.6,16.1,30.05,SW,225,1.8,7.6,33,0.00,,,0.00,WUHU216HW,2013-02-25 17:55:00,
2013-02-25 10:56:00,43.6,16.1,30.05,NW,315,2.2,7.6,33,0.00,,,0.00,WUHU216HW,2013-02-25 17:56:00,
2013-02-25 10:57:00,43.6,16.1,30.05,NNW,338,1.8,7.6,33,0.00,,,0.00,WUHU216HW,2013-02-25 17:57:00,
2013-02-25 10:58:00,43.6,16.8,30.05,NNE,23,1.6,7.6,34,0.00,,,0.00,WUHU216HW,2013-02-25 17:58:00,
2013-02-25 10:59:00,43.6,16.8,30.05,East,90,1.3,7.6,34,0.00,,,0.00,WUHU216HW,2013-02-25 17:59:00,
2013-02-25 11:00:00,43.7,17.0,30.05,North,0,1.6,7.6,34,0.00,,,0.00,WUHU216HW,2013-02-25 18:00:00,
2013-02-25 11:01:00,43.9,17.1,30.05,NNW,338,1.8,7.6,34,0.00,,,0.00,WUHU216HW,2013-02-25 18:01:00,
2013-02-25 11:02:00,44.1,16.7,30.05,North,0,3.4,4.5,33,0.00,,,0.00,WUHU216HW,2013-02-25 18:02:00,
2013-02-25 11:03:00,44.3,16.8,30.05,North,0,3.6,5.8,33,0.00,,,0.00,WUHU216HW,2013-02-25 18:03:00,
2013-02-25 11:04:00,44.3,16.8,30.05,North,0,2.7,5.8,33,0.00,,,0.00,WUHU216HW,2013-02-25 18:04:00,
2013-02-25 11:05:00,44.5,16.9,30.05,North,0,4.7,5.8,33,0.00,,,0.00,WUHU216HW,2013-02-25 18:05:00,
2013-02-25 11:06:00,44.6,17.1,30.05,NW,315,2.7,5.8,33,0.00,,,0.00,WUHU216HW,2013-02-25 18:06:00,
2013-02-25 11:07:00,44.6,17.1,30.05,NNW,338,4.7,5.8,33,0.00,,,0.00,WUHU216HW,2013-02-25 18:07:00,
2013-02-25 11:08:00,44.6,17.1,30.05,NW,315,4.0,5.8,33,0.00,,,0.00,WUHU216HW,2013-02-25 18:08:00,
2013-02-25 11:09:00,44.6,17.8,30.05,NW,315,3.6,5.8,34,0.00,,,0.00,WUHU216HW,2013-02-25 18:09:00,
2013-02-25 11:10:00,44.6,17.8,30.05,North,0,0.7,5.8,34,0.00,,,0.00,WUHU216HW,2013-02-25 18:10:00,
2013-02-25 11:11:00,44.6,17.8,30.05,North,0,1.1,6.0,34,0.00,,,0.00,WUHU216HW,2013-02-25 18:11:00,
2013-02-25 11:12:00,44.8,17.3,30.05,NNE,23,2.2,6.0,33,0.00,,,0.00,WUHU216HW,2013-02-25 18:12:00,
2013-02-25 11:13:00,44.8,17.3,30.05,NNW,338,3.4,6.0,33,0.00,,,0.00,WUHU216HW,2013-02-25 18:13:00,
2013-02-25 11:14:00,45.0,18.1,30.05,NW,315,3.4,6.0,34,0.00,,,0.00,WUHU216HW,2013-02-25 18:14:00,
2013-02-25 11:15:00,45.0,18.1,30.05,North,0,1.1,6.0,34,0.00,,,0.00,WUHU216HW,2013-02-25 18:15:00,
2013-02-25 11:16:00,45.2,18.3,30.05,NNW,338,4.0,6.0,34,0.00,,,0.00,WUHU216HW,2013-02-25 18:16:00,
2013-02-25 11:17:00,45.4,17.7,30.05,NNE,23,5.4,6.9,33,0.00,,,0.00,WUHU216HW,2013-02-25 18:17:00,
2013-02-25 11:18:00,45.4,17.7,30.05,NNE,23,2.2,6.9,33,0.00,,,0.00,WUHU216HW,2013-02-25 18:18:00,
2013-02-25 11:19:00,45.4,17.7,30.05,ESE,113,3.4,6.9,33,0.00,,,0.00,WUHU216HW,2013-02-25 18:19:00,
2013-02-25 11:20:00,45.4,17.7,30.05,North,0,5.1,6.9,33,0.00,,,0.00,WUHU216HW,2013-02-25 18:20:00,
2013-02-25 11:21:00,45.5,17.9,30.05,NNE,23,4.7,6.9,33,0.00,,,0.00,WUHU216HW,2013-02-25 18:21:00,
2013-02-25 11:22:00,45.5,17.9,30.05,North,0,1.1,6.9,33,0.00,,,0.00,WUHU216HW,2013-02-25 18:22:00,
2013-02-25 11:23:00,45.7,18.1,30.05,NW,315,1.1,6.9,33,0.00,,,0.00,WUHU216HW,2013-02-25 18:23:00,
2013-02-25 11:24:00,45.7,18.1,30.05,NW,315,1.8,6.9,33,0.00,,,0.00,WUHU216HW,2013-02-25 18:24:00,
2013-02-25 11:25:00,45.7,18.1,30.05,NNW,338,1.1,6.9,33,0.00,,,0.00,WUHU216HW,2013-02-25 18:25:00,
2013-02-25 11:26:00,45.9,18.3,30.05,North,0,5.1,6.9,33,0.00,,,0.00,WUHU216HW,2013-02-25 18:26:00,
2013-02-25 11:27:00,46.1,18.5,30.05,NNW,338,5.4,6.3,33,0.00,,,0.00,WUHU216HW,2013-02-25 18:27:00,
2013-02-25 11:28:00,46.1,18.5,30.05,North,0,3.6,5.4,33,0.00,,,0.00,WUHU216HW,2013-02-25 18:28:00,
2013-02-25 11:29:00,46.3,18.5,30.05,NNW,338,4.0,6.5,33,0.00,,,0.00,WUHU216HW,2013-02-25 18:29:00,
2013-02-25 11:30:00,46.3,18.5,30.05,WSW,248,2.0,6.5,33,0.00,,,0.00,WUHU216HW,2013-02-25 18:30:00,
2013-02-25 11:31:00,46.3,18.5,30.05,WNW,293,2.9,6.5,33,0.00,,,0.00,WUHU216HW,2013-02-25 18:31:00,
2013-02-25 11:32:00,46.3,17.9,30.05,NNE,23,1.1,6.5,32,0.00,,,0.00,WUHU216HW,2013-02-25 18:32:00,
2013-02-25 11:33:00,46.3,17.9,30.04,WSW,248,1.3,6.5,32,0.00,,,0.00,WUHU216HW,2013-02-25 18:33:00,
2013-02-25 11:34:00,46.4,18.1,30.05,SW,225,3.4,6.5,32,0.00,,,0.00,WUHU216HW,2013-02-25 18:34:00,
2013-02-25 11:35:00,46.4,18.7,30.05,SSW,203,1.3,6.5,33,0.00,,,0.00,WUHU216HW,2013-02-25 18:35:00,
2013-02-25 11:36:00,46.4,18.7,30.04,WSW,248,2.7,6.5,33,0.00,,,0.00,WUHU216HW,2013-02-25 18:36:00,
2013-02-25 11:37:00,46.6,18.3,30.04,WNW,293,3.4,6.5,32,0.00,,,0.00,WUHU216HW,2013-02-25 18:37:00,
2013-02-25 11:38:00,46.8,19.1,30.05,WNW,293,2.5,6.5,33,0.00,,,0.00,WUHU216HW,2013-02-25 18:38:00,
2013-02-25 11:39:00,46.8,17.7,30.05,SW,225,3.6,5.6,31,0.00,,,0.00,WUHU216HW,2013-02-25 18:39:00,
2013-02-25 11:40:00,46.8,18.4,30.05,SW,225,2.5,5.6,32,0.00,,,0.00,WUHU216HW,2013-02-25 18:40:00,
2013-02-25 11:41:00,46.8,17.7,30.05,North,0,3.4,5.6,31,0.00,,,0.00,WUHU216HW,2013-02-25 18:41:00,
2013-02-25 11:42:00,46.8,17.7,30.05,North,0,4.3,5.6,31,0.00,,,0.00,WUHU216HW,2013-02-25 18:42:00,
2013-02-25 11:43:00,46.8,17.7,30.05,North,0,1.8,5.6,31,0.00,,,0.00,WUHU216HW,2013-02-25 18:43:00,
2013-02-25 11:44:00,47.0,18.5,30.04,NW,315,3.4,5.6,32,0.00,,,0.00,WUHU216HW,2013-02-25 18:44:00,
2013-02-25 11:45:00,46.8,17.7,30.05,NNW,338,4.5,5.6,31,0.00,,,0.00,WUHU216HW,2013-02-25 18:45:00,
2013-02-25 11:46:00,47.0,17.9,30.04,NNW,338,3.4,5.6,31,0.00,,,0.00,WUHU216HW,2013-02-25 18:46:00,
2013-02-25 11:47:00,47.0,17.9,30.04,NNW,338,3.8,5.6,31,0.00,,,0.00,WUHU216HW,2013-02-25 18:47:00,
2013-02-25 11:48:00,47.0,17.9,30.04,NNW,338,1.1,5.6,31,0.00,,,0.00,WUHU216HW,2013-02-25 18:48:00,
2013-02-25 11:49:00,47.0,17.9,30.04,West,270,6.0,8.5,31,0.00,,,0.00,WUHU216HW,2013-02-25 18:49:00,
2013-02-25 11:50:00,47.0,17.2,30.04,WSW,248,8.5,8.5,30,0.00,,,0.00,WUHU216HW,2013-02-25 18:50:00,
2013-02-25 11:51:00,46.8,17.1,30.04,West,270,5.1,8.5,30,0.00,,,0.00,WUHU216HW,2013-02-25 18:51:00,
2013-02-25 11:52:00,47.0,17.2,30.04,SW,225,4.9,8.5,30,0.00,,,0.00,WUHU216HW,2013-02-25 18:52:00,
2013-02-25 11:53:00,46.8,17.1,30.04,SW,225,4.0,8.5,30,0.00,,,0.00,WUHU216HW,2013-02-25 18:53:00,
2013-02-25 11:54:00,46.8,17.7,30.04,NNW,338,1.8,8.5,31,0.00,,,0.00,WUHU216HW,2013-02-25 18:54:00,
2013-02-25 11:55:00,47.0,17.9,30.04,West,270,3.1,8.5,31,0.00,,,0.00,WUHU216HW,2013-02-25 18:55:00,
2013-02-25 11:56:00,47.2,18.1,30.04,WNW,293,3.6,8.5,31,0.00,,,0.00,WUHU216HW,2013-02-25 18:56:00,
2013-02-25 11:57:00,47.2,18.1,30.04,NW,315,5.4,8.5,31,0.00,,,0.00,WUHU216HW,2013-02-25 18:57:00,
2013-02-25 11:58:00,47.2,17.4,30.04,NW,315,4.7,8.5,30,0.00,,,0.00,WUHU216HW,2013-02-25 18:58:00,
2013-02-25 11:59:00,47.2,17.4,30.04,WSW,248,6.3,8.5,30,0.00,,,0.00,WUHU216HW,2013-02-25 18:59:00,
2013-02-25 12:00:00,47.2,17.4,30.04,South,180,6.9,8.5,30,0.00,,,0.00,WUHU216HW,2013-02-25 19:00:00,
2013-02-25 12:01:00,47.3,17.6,30.04,WSW,248,4.7,8.3,30,0.00,,,0.00,WUHU216HW,2013-02-25 19:01:00,
2013-02-25 12:02:00,47.5,17.7,30.04,South,180,7.2,7.2,30,0.00,,,0.00,WUHU216HW,2013-02-25 19:02:00,
2013-02-25 12:03:00,47.5,18.4,30.04,WSW,248,4.0,7.2,31,0.00,,,0.00,WUHU216HW,2013-02-25 19:03:00,
2013-02-25 12:04:00,47.7,18.5,30.04,West,270,4.7,7.2,31,0.00,,,0.00,WUHU216HW,2013-02-25 19:04:00,
2013-02-25 12:05:00,47.9,18.0,30.04,North,0,2.7,7.2,30,0.00,,,0.00,WUHU216HW,2013-02-25 19:05:00,
2013-02-25 12:06:00,47.9,18.0,30.04,NNW,338,4.7,7.2,30,0.00,,,0.00,WUHU216HW,2013-02-25 19:06:00,
2013-02-25 12:07:00,47.9,17.1,30.04,WSW,248,4.0,7.2,29,0.00,,,0.00,WUHU216HW,2013-02-25 19:07:00,
2013-02-25 12:08:00,47.9,17.1,30.04,NNW,338,3.6,7.2,29,0.00,,,0.00,WUHU216HW,2013-02-25 19:08:00,
2013-02-25 12:09:00,47.9,17.1,30.04,North,0,1.3,7.2,29,0.00,,,0.00,WUHU216HW,2013-02-25 19:09:00,
2013-02-25 12:10:00,47.9,17.1,30.04,WNW,293,5.1,8.5,29,0.00,,,0.00,WUHU216HW,2013-02-25 19:10:00,
2013-02-25 12:11:00,47.9,17.1,30.04,WSW,248,7.6,8.5,29,0.00,,,0.00,WUHU216HW,2013-02-25 19:11:00,
2013-02-25 12:12:00,47.9,17.1,30.04,NW,315,4.5,8.5,29,0.00,,,0.00,WUHU216HW,2013-02-25 19:12:00,
2013-02-25 12:13:00,47.9,17.1,30.04,NW,315,5.1,8.5,29,0.00,,,0.00,WUHU216HW,2013-02-25 19:13:00,
2013-02-25 12:14:00,47.9,17.1,30.03,WSW,248,5.4,8.5,29,0.00,,,0.00,WUHU216HW,2013-02-25 19:14:00,
2013-02-25 12:15:00,47.7,16.9,30.03,West,270,3.4,8.5,29,0.00,,,0.00,WUHU216HW,2013-02-25 19:15:00,
2013-02-25 12:16:00,47.7,16.9,30.03,WNW,293,5.1,8.5,29,0.00,,,0.00,WUHU216HW,2013-02-25 19:16:00,
2013-02-25 12:17:00,47.9,17.1,30.03,SW,225,6.9,8.5,29,0.00,,,0.00,WUHU216HW,2013-02-25 19:17:00,
2013-02-25 12:18:00,47.9,17.1,30.03,NNW,338,4.5,8.5,29,0.00,,,0.00,WUHU216HW,2013-02-25 19:18:00,
2013-02-25 12:19:00,48.1,18.2,30.03,NW,315,3.6,8.5,30,0.00,,,0.00,WUHU216HW,2013-02-25 19:19:00,
2013-02-25 12:20:00,48.1,17.3,30.03,SSW,203,0.4,8.5,29,0.00,,,0.00,WUHU216HW,2013-02-25 19:20:00,
2013-02-25 12:21:00,48.2,17.5,30.03,WNW,293,0.7,8.5,29,0.00,,,0.00,WUHU216HW,2013-02-25 19:21:00,
2013-02-25 12:22:00,48.4,17.6,30.03,WSW,248,2.7,8.5,29,0.00,,,0.00,WUHU216HW,2013-02-25 19:22:00,
2013-02-25 12:23:00,48.4,17.6,30.03,WSW,248,6.0,8.5,29,0.00,,,0.00,WUHU216HW,2013-02-25 19:23:00,
2013-02-25 12:24:00,48.4,17.6,30.03,SW,225,4.3,8.5,29,0.00,,,0.00,WUHU216HW,2013-02-25 19:24:00,
2013-02-25 12:25:00,48.4,17.6,30.03,NNW,338,4.7,8.5,29,0.00,,,0.00,WUHU216HW,2013-02-25 19:25:00,
2013-02-25 12:26:00,48.6,17.7,30.03,WNW,293,5.6,8.5,29,0.00,,,0.00,WUHU216HW,2013-02-25 19:26:00,
2013-02-25 12:27:00,48.6,16.7,30.03,NNW,338,5.8,8.5,28,0.00,,,0.00,WUHU216HW,2013-02-25 19:27:00,
2013-02-25 12:28:00,48.6,16.7,30.03,WSW,248,5.1,8.5,28,0.00,,,0.00,WUHU216HW,2013-02-25 19:28:00,
2013-02-25 12:29:00,48.6,16.7,30.03,NW,315,1.3,8.5,28,0.00,,,0.00,WUHU216HW,2013-02-25 19:29:00,
2013-02-25 12:30:00,48.6,16.7,30.02,NNW,338,2.7,8.5,28,0.00,,,0.00,WUHU216HW,2013-02-25 19:30:00,
2013-02-25 12:31:00,48.8,16.9,30.02,WNW,293,1.8,8.5,28,0.00,,,0.00,WUHU216HW,2013-02-25 19:31:00,
2013-02-25 12:32:00,49.0,18.0,30.02,West,270,4.7,8.5,29,0.00,,,0.00,WUHU216HW,2013-02-25 19:32:00,
2013-02-25 12:33:00,49.1,17.2,30.02,NW,315,6.9,8.7,28,0.00,,,0.00,WUHU216HW,2013-02-25 19:33:00,
2013-02-25 12:34:00,49.0,17.1,30.02,West,270,3.1,8.7,28,0.00,,,0.00,WUHU216HW,2013-02-25 19:34:00,
2013-02-25 12:35:00,49.0,17.1,30.02,NW,315,2.9,8.7,28,0.00,,,0.00,WUHU216HW,2013-02-25 19:35:00,
2013-02-25 12:36:00,49.1,17.2,30.02,West,270,4.7,8.7,28,0.00,,,0.00,WUHU216HW,2013-02-25 19:36:00,
2013-02-25 12:37:00,49.1,17.2,30.02,WSW,248,3.4,8.7,28,0.00,,,0.00,WUHU216HW,2013-02-25 19:37:00,
2013-02-25 12:38:00,49.1,17.2,30.02,NW,315,2.2,8.7,28,0.00,,,0.00,WUHU216HW,2013-02-25 19:38:00,
2013-02-25 12:39:00,49.1,17.2,30.02,WSW,248,6.5,8.7,28,0.00,,,0.00,WUHU216HW,2013-02-25 19:39:00,
2013-02-25 12:40:00,49.0,17.1,30.02,SW,225,4.9,8.7,28,0.00,,,0.00,WUHU216HW,2013-02-25 19:40:00,
2013-02-25 12:41:00,49.1,17.2,30.02,West,270,2.5,8.7,28,0.00,,,0.00,WUHU216HW,2013-02-25 19:41:00,
2013-02-25 12:42:00,49.1,17.2,30.02,WSW,248,4.5,8.7,28,0.00,,,0.00,WUHU216HW,2013-02-25 19:42:00,
2013-02-25 12:43:00,49.1,17.2,30.02,West,270,1.1,8.7,28,0.00,,,0.00,WUHU216HW,2013-02-25 19:43:00,
2013-02-25 12:44:00,49.3,17.4,30.02,NW,315,2.2,8.7,28,0.00,,,0.00,WUHU216HW,2013-02-25 19:44:00,
2013-02-25 12:45:00,49.3,17.4,30.02,WNW,293,1.8,8.7,28,0.00,,,0.00,WUHU216HW,2013-02-25 19:45:00,
2013-02-25 12:46:00,49.3,17.4,30.02,North,0,0.9,6.5,28,0.00,,,0.00,WUHU216HW,2013-02-25 19:46:00,
2013-02-25 12:47:00,49.5,17.6,30.02,WNW,293,2.0,6.5,28,0.00,,,0.00,WUHU216HW,2013-02-25 19:47:00,
2013-02-25 12:48:00,49.7,17.6,30.02,WNW,293,4.7,6.5,28,0.00,,,0.00,WUHU216HW,2013-02-25 19:48:00,
2013-02-25 12:49:00,49.9,16.9,30.02,North,0,6.3,6.5,27,0.00,,,0.00,WUHU216HW,2013-02-25 19:49:00,
2013-02-25 12:50:00,49.9,16.9,30.02,NW,315,4.3,6.5,27,0.00,,,0.00,WUHU216HW,2013-02-25 19:50:00,
2013-02-25 12:51:00,49.9,16.9,30.02,NNW,338,2.2,6.5,27,0.00,,,0.00,WUHU216HW,2013-02-25 19:51:00,
2013-02-25 12:52:00,49.9,16.9,30.02,NW,315,4.7,6.5,27,0.00,,,0.00,WUHU216HW,2013-02-25 19:52:00,
2013-02-25 12:53:00,49.7,16.7,30.02,West,270,9.8,9.8,27,0.00,,,0.00,WUHU216HW,2013-02-25 19:53:00,
2013-02-25 12:54:00,49.7,16.7,30.02,NW,315,6.7,9.8,27,0.00,,,0.00,WUHU216HW,2013-02-25 19:54:00,
2013-02-25 12:55:00,49.7,16.7,30.02,NW,315,5.6,9.8,27,0.00,,,0.00,WUHU216HW,2013-02-25 19:55:00,
2013-02-25 12:56:00,49.9,16.9,30.02,NW,315,4.5,9.8,27,0.00,,,0.00,WUHU216HW,2013-02-25 19:56:00,
2013-02-25 12:57:00,49.9,16.9,30.02,NW,315,4.9,9.8,27,0.00,,,0.00,WUHU216HW,2013-02-25 19:57:00,
2013-02-25 12:58:00,49.9,16.9,30.01,WNW,293,3.4,9.8,27,0.00,,,0.00,WUHU216HW,2013-02-25 19:58:00,
2013-02-25 12:59:00,49.9,16.9,30.01,NW,315,4.3,9.8,27,0.00,,,0.00,WUHU216HW,2013-02-25 19:59:00,
2013-02-25 13:00:00,50.0,17.0,30.01,WNW,293,3.8,9.8,27,0.00,,,0.00,WUHU216HW,2013-02-25 20:00:00,
2013-02-25 13:01:00,50.0,17.0,30.01,WNW,293,1.6,9.8,27,0.00,,,0.00,WUHU216HW,2013-02-25 20:01:00,
2013-02-25 13:02:00,50.0,17.0,30.01,SSW,203,2.9,9.8,27,0.00,,,0.00,WUHU216HW,2013-02-25 20:02:00,
2013-02-25 13:03:00,50.0,17.0,30.01,SW,225,0.9,9.8,27,0.00,,,0.00,WUHU216HW,2013-02-25 20:03:00,
2013-02-25 13:04:00,50.2,17.2,30.01,NNW,338,3.4,6.7,27,0.00,,,0.00,WUHU216HW,2013-02-25 20:04:00,
2013-02-25 13:05:00,50.2,17.2,30.01,WSW,248,9.4,9.4,27,0.00,,,0.00,WUHU216HW,2013-02-25 20:05:00,
2013-02-25 13:06:00,50.4,16.5,30.01,WSW,248,4.7,9.8,26,0.00,,,0.00,WUHU216HW,2013-02-25 20:06:00,
2013-02-25 13:07:00,50.4,15.5,30.01,North,0,2.9,11.0,25,0.00,,,0.00,WUHU216HW,2013-02-25 20:07:00,
2013-02-25 13:08:00,50.4,15.5,30.01,NW,315,6.0,11.0,25,0.00,,,0.00,WUHU216HW,2013-02-25 20:08:00,
2013-02-25 13:09:00,50.6,15.7,30.01,NW,315,6.5,11.0,25,0.00,,,0.00,WUHU216HW,2013-02-25 20:09:00,
2013-02-25 13:10:00,50.4,15.5,30.01,NW,315,6.3,11.0,25,0.00,,,0.00,WUHU216HW,2013-02-25 20:10:00,
2013-02-25 13:11:00,50.6,15.7,30.01,North,0,5.1,11.0,25,0.00,,,0.00,WUHU216HW,2013-02-25 20:11:00,
2013-02-25 13:12:00,50.6,15.7,30.01,NW,315,8.5,11.4,25,0.00,,,0.00,WUHU216HW,2013-02-25 20:12:00,
2013-02-25 13:13:00,50.6,15.7,30.01,NW,315,5.1,11.4,25,0.00,,,0.00,WUHU216HW,2013-02-25 20:13:00,
2013-02-25 13:14:00,50.4,15.5,30.01,NW,315,6.9,11.4,25,0.00,,,0.00,WUHU216HW,2013-02-25 20:14:00,
2013-02-25 13:15:00,50.4,15.5,30.01,NNW,338,6.3,11.4,25,0.00,,,0.00,WUHU216HW,2013-02-25 20:15:00,
2013-02-25 13:16:00,50.4,15.5,30.01,WNW,293,3.8,11.4,25,0.00,,,0.00,WUHU216HW,2013-02-25 20:16:00,
2013-02-25 13:17:00,50.4,15.5,30.01,West,270,6.3,11.4,25,0.00,,,0.00,WUHU216HW,2013-02-25 20:17:00,
2013-02-25 13:18:00,50.4,15.5,30.01,WSW,248,6.3,11.4,25,0.00,,,0.00,WUHU216HW,2013-02-25 20:18:00,
2013-02-25 13:19:00,50.4,15.5,30.01,WSW,248,10.7,11.4,25,0.00,,,0.00,WUHU216HW,2013-02-25 20:19:00,
2013-02-25 13:20:00,50.6,15.7,30.01,WNW,293,4.0,11.4,25,0.00,,,0.00,WUHU216HW,2013-02-25 20:20:00,
2013-02-25 13:21:00,50.6,15.7,30.01,NW,315,5.8,11.4,25,0.00,,,0.00,WUHU216HW,2013-02-25 20:21:00,
2013-02-25 13:22:00,50.8,15.9,30.01,WNW,293,4.7,10.7,25,0.00,,,0.00,WUHU216HW,2013-02-25 20:22:00,
2013-02-25 13:23:00,50.8,15.9,30.01,West,270,7.6,10.7,25,0.00,,,0.00,WUHU216HW,2013-02-25 20:23:00,
2013-02-25 13:24:00,50.8,15.9,30.01,NW,315,6.3,10.7,25,0.00,,,0.00,WUHU216HW,2013-02-25 20:24:00,
2013-02-25 13:25:00,50.8,15.9,30.01,NW,315,5.1,10.7,25,0.00,,,0.00,WUHU216HW,2013-02-25 20:25:00,
2013-02-25 13:26:00,50.8,15.9,30.01,WNW,293,5.4,10.7,25,0.00,,,0.00,WUHU216HW,2013-02-25 20:26:00,
2013-02-25 13:27:00,50.8,15.9,30.00,NNW,338,6.3,10.7,25,0.00,,,0.00,WUHU216HW,2013-02-25 20:27:00,
2013-02-25 13:28:00,50.8,15.9,30.00,WNW,293,4.5,10.7,25,0.00,,,0.00,WUHU216HW,2013-02-25 20:28:00,
2013-02-25 13:29:00,50.8,15.9,30.00,NNW,338,5.1,10.7,25,0.00,,,0.00,WUHU216HW,2013-02-25 20:29:00,
2013-02-25 13:30:00,50.8,15.9,30.00,North,0,3.6,7.6,25,0.00,,,0.00,WUHU216HW,2013-02-25 20:30:00,
2013-02-25 13:31:00,50.8,15.9,30.00,NW,315,2.5,7.6,25,0.00,,,0.00,WUHU216HW,2013-02-25 20:31:00,
2013-02-25 13:32:00,50.8,15.9,30.00,WNW,293,1.6,7.6,25,0.00,,,0.00,WUHU216HW,2013-02-25 20:32:00,
2013-02-25 13:33:00,50.8,15.9,30.00,WSW,248,6.9,7.6,25,0.00,,,0.00,WUHU216HW,2013-02-25 20:33:00,
2013-02-25 13:34:00,50.8,15.0,30.00,West,270,12.8,12.8,24,0.00,,,0.00,WUHU216HW,2013-02-25 20:34:00,
2013-02-25 13:35:00,50.9,15.0,30.00,WSW,248,6.9,12.8,24,0.00,,,0.00,WUHU216HW,2013-02-25 20:35:00,
2013-02-25 13:36:00,50.9,15.0,30.00,SW,225,6.0,12.8,24,0.00,,,0.00,WUHU216HW,2013-02-25 20:36:00,
2013-02-25 13:37:00,50.9,15.0,30.00,SSW,203,4.5,12.8,24,0.00,,,0.00,WUHU216HW,2013-02-25 20:37:00,
2013-02-25 13:38:00,51.1,16.1,30.00,WNW,293,4.9,12.8,25,0.00,,,0.00,WUHU216HW,2013-02-25 20:38:00,
2013-02-25 13:39:00,51.1,16.1,30.00,NNW,338,6.0,12.8,25,0.00,,,0.00,WUHU216HW,2013-02-25 20:39:00,
2013-02-25 13:40:00,51.3,16.3,30.00,NW,315,3.8,12.8,25,0.00,,,0.00,WUHU216HW,2013-02-25 20:40:00,
2013-02-25 13:41:00,51.3,16.3,30.00,WNW,293,4.3,12.8,25,0.00,,,0.00,WUHU216HW,2013-02-25 20:41:00,
2013-02-25 13:42:00,51.3,16.3,30.00,West,270,4.0,12.8,25,0.00,,,0.00,WUHU216HW,2013-02-25 20:42:00,
2013-02-25 13:43:00,51.1,15.2,30.00,WSW,248,6.5,12.8,24,0.00,,,0.00,WUHU216HW,2013-02-25 20:43:00,
2013-02-25 13:44:00,51.1,16.1,30.00,North,0,4.3,9.6,25,0.00,,,0.00,WUHU216HW,2013-02-25 20:44:00,
2013-02-25 13:45:00,51.3,16.3,30.00,NNW,338,5.6,9.6,25,0.00,,,0.00,WUHU216HW,2013-02-25 20:45:00,
2013-02-25 13:46:00,51.3,16.3,30.00,NNW,338,5.4,7.6,25,0.00,,,0.00,WUHU216HW,2013-02-25 20:46:00,
2013-02-25 13:47:00,51.3,16.3,30.00,NW,315,6.0,7.6,25,0.00,,,0.00,WUHU216HW,2013-02-25 20:47:00,
2013-02-25 13:48:00,51.3,16.3,30.00,West,270,3.8,7.6,25,0.00,,,0.00,WUHU216HW,2013-02-25 20:48:00,
2013-02-25 13:49:00,51.1,16.1,30.00,NNW,338,3.6,7.6,25,0.00,,,0.00,WUHU216HW,2013-02-25 20:49:00,
2013-02-25 13:50:00,51.5,16.5,30.00,NNW,338,4.0,7.6,25,0.00,,,0.00,WUHU216HW,2013-02-25 20:50:00,
2013-02-25 13:51:00,51.3,15.4,30.00,WNW,293,6.0,7.6,24,0.00,,,0.00,WUHU216HW,2013-02-25 20:51:00,
2013-02-25 13:52:00,51.3,16.3,30.00,North,0,5.6,7.6,25,0.00,,,0.00,WUHU216HW,2013-02-25 20:52:00,
2013-02-25 13:53:00,51.5,15.5,30.00,NW,315,6.9,7.6,24,0.00,,,0.00,WUHU216HW,2013-02-25 20:53:00,
2013-02-25 13:54:00,51.3,15.4,30.00,NW,315,4.3,7.6,24,0.00,,,0.00,WUHU216HW,2013-02-25 20:54:00,
2013-02-25 13:55:00,51.3,15.4,30.00,NW,315,4.5,7.6,24,0.00,,,0.00,WUHU216HW,2013-02-25 20:55:00,
2013-02-25 13:56:00,51.5,15.5,29.99,NW,315,2.2,7.6,24,0.00,,,0.00,WUHU216HW,2013-02-25 20:56:00,
2013-02-25 13:57:00,51.5,15.5,29.99,North,0,4.7,7.6,24,0.00,,,0.00,WUHU216HW,2013-02-25 20:57:00,
2013-02-25 13:58:00,51.5,15.5,29.99,NNW,338,5.4,7.6,24,0.00,,,0.00,WUHU216HW,2013-02-25 20:58:00,
2013-02-25 13:59:00,51.7,15.7,29.99,NNW,338,5.1,7.8,24,0.00,,,0.00,WUHU216HW,2013-02-25 20:59:00,
2013-02-25 14:00:00,51.7,15.7,29.99,WNW,293,6.3,8.3,24,0.00,,,0.00,WUHU216HW,2013-02-25 21:00:00,
2013-02-25 14:01:00,51.7,15.7,29.99,West,270,3.8,8.3,24,0.00,,,0.00,WUHU216HW,2013-02-25 21:01:00,
2013-02-25 14:02:00,51.7,15.7,29.99,West,270,3.8,8.3,24,0.00,,,0.00,WUHU216HW,2013-02-25 21:02:00,
2013-02-25 14:03:00,51.8,15.9,29.99,West,270,4.0,8.3,24,0.00,,,0.00,WUHU216HW,2013-02-25 21:03:00,
2013-02-25 14:04:00,51.8,15.9,29.99,WSW,248,8.5,8.5,24,0.00,,,0.00,WUHU216HW,2013-02-25 21:04:00,
2013-02-25 14:05:00,51.8,14.9,29.99,West,270,7.8,12.1,23,0.00,,,0.00,WUHU216HW,2013-02-25 21:05:00,
2013-02-25 14:06:00,52.0,15.9,29.99,West,270,2.0,12.1,24,0.00,,,0.00,WUHU216HW,2013-02-25 21:06:00,
2013-02-25 14:07:00,52.0,15.9,29.99,NNW,338,5.6,12.1,24,0.00,,,0.00,WUHU216HW,2013-02-25 21:07:00,
2013-02-25 14:08:00,52.2,16.1,29.99,WNW,293,6.9,12.1,24,0.00,,,0.00,WUHU216HW,2013-02-25 21:08:00,
2013-02-25 14:09:00,52.2,16.1,29.99,NNW,338,4.0,12.1,24,0.00,,,0.00,WUHU216HW,2013-02-25 21:09:00,
2013-02-25 14:10:00,52.2,16.1,29.99,NW,315,5.4,12.1,24,0.00,,,0.00,WUHU216HW,2013-02-25 21:10:00,
2013-02-25 14:11:00,52.2,16.1,29.99,NNW,338,4.5,12.1,24,0.00,,,0.00,WUHU216HW,2013-02-25 21:11:00,
2013-02-25 14:12:00,52.2,16.1,29.99,NNW,338,5.6,12.1,24,0.00,,,0.00,WUHU216HW,2013-02-25 21:12:00,
2013-02-25 14:13:00,52.2,15.2,29.99,WNW,293,6.7,12.1,23,0.00,,,0.00,WUHU216HW,2013-02-25 21:13:00,
2013-02-25 14:14:00,52.2,16.1,29.99,WSW,248,6.0,12.1,24,0.00,,,0.00,WUHU216HW,2013-02-25 21:14:00,
2013-02-25 14:15:00,52.2,16.1,29.99,West,270,5.4,8.5,24,0.00,,,0.00,WUHU216HW,2013-02-25 21:15:00,
2013-02-25 14:16:00,52.2,15.2,29.99,SW,225,3.4,8.5,23,0.00,,,0.00,WUHU216HW,2013-02-25 21:16:00,
2013-02-25 14:17:00,52.2,15.2,29.99,West,270,4.0,8.5,23,0.00,,,0.00,WUHU216HW,2013-02-25 21:17:00,
2013-02-25 14:18:00,52.2,15.2,29.99,NW,315,5.4,8.5,23,0.00,,,0.00,WUHU216HW,2013-02-25 21:18:00,
2013-02-25 14:19:00,52.2,15.2,29.99,WNW,293,5.4,8.5,23,0.00,,,0.00,WUHU216HW,2013-02-25 21:19:00,
2013-02-25 14:20:00,52.2,16.1,29.99,West,270,4.0,8.5,24,0.00,,,0.00,WUHU216HW,2013-02-25 21:20:00,
2013-02-25 14:21:00,52.2,15.2,29.99,WNW,293,4.9,8.5,23,0.00,,,0.00,WUHU216HW,2013-02-25 21:21:00,
2013-02-25 14:22:00,52.2,15.2,29.98,North,0,3.4,8.5,23,0.00,,,0.00,WUHU216HW,2013-02-25 21:22:00,
2013-02-25 14:23:00,52.2,15.2,29.99,NW,315,4.0,6.9,23,0.00,,,0.00,WUHU216HW,2013-02-25 21:23:00,
2013-02-25 14:24:00,52.2,16.1,29.99,WNW,293,1.6,6.9,24,0.00,,,0.00,WUHU216HW,2013-02-25 21:24:00,
2013-02-25 14:25:00,52.2,16.1,29.98,NW,315,1.8,6.9,24,0.00,,,0.00,WUHU216HW,2013-02-25 21:25:00,
2013-02-25 14:26:00,52.2,16.1,29.98,NW,315,3.8,6.9,24,0.00,,,0.00,WUHU216HW,2013-02-25 21:26:00,
2013-02-25 14:27:00,52.2,16.1,29.98,North,0,5.4,6.9,24,0.00,,,0.00,WUHU216HW,2013-02-25 21:27:00,
2013-02-25 14:28:00,52.4,16.3,29.98,SW,225,5.6,8.1,24,0.00,,,0.00,WUHU216HW,2013-02-25 21:28:00,
2013-02-25 14:29:00,52.2,16.1,29.98,West,270,6.7,8.1,24,0.00,,,0.00,WUHU216HW,2013-02-25 21:29:00,
2013-02-25 14:30:00,52.4,15.3,29.98,WSW,248,7.2,8.5,23,0.00,,,0.00,WUHU216HW,2013-02-25 21:30:00,
2013-02-25 14:31:00,52.6,15.5,29.98,SW,225,5.8,8.5,23,0.00,,,0.00,WUHU216HW,2013-02-25 21:31:00,
2013-02-25 14:32:00,52.7,15.6,29.98,SW,225,10.3,10.3,23,0.00,,,0.00,WUHU216HW,2013-02-25 21:32:00,
2013-02-25 14:33:00,52.7,15.6,29.99,SW,225,6.3,10.3,23,0.00,,,0.00,WUHU216HW,2013-02-25 21:33:00,
2013-02-25 14:34:00,52.9,15.8,29.98,SW,225,8.7,10.3,23,0.00,,,0.00,WUHU216HW,2013-02-25 21:34:00,
2013-02-25 14:35:00,52.9,15.8,29.98,West,270,5.4,10.3,23,0.00,,,0.00,WUHU216HW,2013-02-25 21:35:00,
2013-02-25 14:36:00,52.9,15.8,29.98,NW,315,4.7,10.3,23,0.00,,,0.00,WUHU216HW,2013-02-25 21:36:00,
2013-02-25 14:37:00,52.9,15.8,29.98,NNW,338,5.6,10.3,23,0.00,,,0.00,WUHU216HW,2013-02-25 21:37:00,
2013-02-25 14:38:00,52.7,15.6,29.98,West,270,5.1,10.3,23,0.00,,,0.00,WUHU216HW,2013-02-25 21:38:00,
2013-02-25 14:39:00,52.7,15.6,29.98,SW,225,4.7,10.3,23,0.00,,,0.00,WUHU216HW,2013-02-25 21:39:00,
2013-02-25 14:40:00,52.7,15.6,29.98,West,270,5.1,10.3,23,0.00,,,0.00,WUHU216HW,2013-02-25 21:40:00,
2013-02-25 14:41:00,52.9,14.9,29.98,WNW,293,5.4,12.1,22,0.00,,,0.00,WUHU216HW,2013-02-25 21:41:00,
2013-02-25 14:42:00,52.7,14.7,29.98,West,270,7.2,12.1,22,0.00,,,0.00,WUHU216HW,2013-02-25 21:42:00,
2013-02-25 14:43:00,52.9,14.9,29.98,SW,225,8.5,12.1,22,0.00,,,0.00,WUHU216HW,2013-02-25 21:43:00,
2013-02-25 14:44:00,52.9,14.9,29.98,West,270,4.9,12.1,22,0.00,,,0.00,WUHU216HW,2013-02-25 21:44:00,
2013-02-25 14:45:00,52.9,14.9,29.98,WSW,248,2.7,12.1,22,0.00,,,0.00,WUHU216HW,2013-02-25 21:45:00,
2013-02-25 14:46:00,52.9,15.8,29.98,WSW,248,4.5,12.1,23,0.00,,,0.00,WUHU216HW,2013-02-25 21:46:00,
2013-02-25 14:47:00,52.9,14.9,29.98,WSW,248,7.6,12.1,22,0.00,,,0.00,WUHU216HW,2013-02-25 21:47:00,
2013-02-25 14:48:00,52.9,15.8,29.98,SW,225,6.0,12.1,23,0.00,,,0.00,WUHU216HW,2013-02-25 21:48:00,
2013-02-25 14:49:00,52.9,15.8,29.98,South,180,4.3,12.1,23,0.00,,,0.00,WUHU216HW,2013-02-25 21:49:00,
2013-02-25 14:50:00,52.9,15.8,29.98,SW,225,5.4,12.1,23,0.00,,,0.00,WUHU216HW,2013-02-25 21:50:00,
2013-02-25 14:51:00,53.1,15.9,29.98,SW,225,5.4,9.2,23,0.00,,,0.00,WUHU216HW,2013-02-25 21:51:00,
2013-02-25 14:52:00,53.1,14.9,29.98,SW,225,8.5,10.5,22,0.00,,,0.00,WUHU216HW,2013-02-25 21:52:00,
2013-02-25 14:53:00,53.1,14.9,29.98,West,270,6.9,10.5,22,0.00,,,0.00,WUHU216HW,2013-02-25 21:53:00,
2013-02-25 14:54:00,52.9,14.9,29.98,SSW,203,5.4,10.5,22,0.00,,,0.00,WUHU216HW,2013-02-25 21:54:00,
2013-02-25 14:55:00,52.9,15.8,29.98,WSW,248,5.4,10.5,23,0.00,,,0.00,WUHU216HW,2013-02-25 21:55:00,
2013-02-25 14:56:00,52.9,14.9,29.98,WNW,293,6.3,10.5,22,0.00,,,0.00,WUHU216HW,2013-02-25 21:56:00,
2013-02-25 14:57:00,52.9,14.9,29.98,SW,225,8.1,10.5,22,0.00,,,0.00,WUHU216HW,2013-02-25 21:57:00,
2013-02-25 14:58:00,52.9,14.9,29.98,WSW,248,5.8,10.5,22,0.00,,,0.00,WUHU216HW,2013-02-25 21:58:00,
2013-02-25 14:59:00,52.9,14.9,29.97,WNW,293,6.9,10.5,22,0.00,,,0.00,WUHU216HW,2013-02-25 21:59:00,
2013-02-25 15:00:00,52.9,14.9,29.98,SW,225,2.2,10.5,22,0.00,,,0.00,WUHU216HW,2013-02-25 22:00:00,
2013-02-25 15:01:00,52.9,14.9,29.97,West,270,1.8,10.5,22,0.00,,,0.00,WUHU216HW,2013-02-25 22:01:00,
2013-02-25 15:02:00,52.7,15.6,29.97,WNW,293,2.5,8.5,23,0.00,,,0.00,WUHU216HW,2013-02-25 22:02:00,
2013-02-25 15:03:00,52.9,15.8,29.97,NNW,338,2.9,8.1,23,0.00,,,0.00,WUHU216HW,2013-02-25 22:03:00,
2013-02-25 15:04:00,52.9,15.8,29.97,North,0,4.7,8.1,23,0.00,,,0.00,WUHU216HW,2013-02-25 22:04:00,
2013-02-25 15:05:00,52.9,15.8,29.97,West,270,7.6,8.1,23,0.00,,,0.00,WUHU216HW,2013-02-25 22:05:00,
2013-02-25 15:06:00,52.9,14.9,29.97,WNW,293,11.4,11.4,22,0.00,,,0.00,WUHU216HW,2013-02-25 22:06:00,
2013-02-25 15:07:00,52.9,14.9,29.97,WSW,248,7.4,11.4,22,0.00,,,0.00,WUHU216HW,2013-02-25 22:07:00,
2013-02-25 15:08:00,52.9,13.9,29.97,West,270,7.8,11.4,21,0.00,,,0.00,WUHU216HW,2013-02-25 22:08:00,
2013-02-25 15:09:00,52.9,13.9,29.97,WSW,248,9.2,11.4,21,0.00,,,0.00,WUHU216HW,2013-02-25 22:09:00,
2013-02-25 15:10:00,52.7,13.8,29.98,WSW,248,7.6,11.4,21,0.00,,,0.00,WUHU216HW,2013-02-25 22:10:00,
2013-02-25 15:11:00,52.7,14.7,29.98,West,270,6.3,11.4,22,0.00,,,0.00,WUHU216HW,2013-02-25 22:11:00,
2013-02-25 15:12:00,52.7,14.7,29.97,WSW,248,3.4,11.4,22,0.00,,,0.00,WUHU216HW,2013-02-25 22:12:00,
2013-02-25 15:13:00,52.9,14.9,29.97,North,0,4.5,11.4,22,0.00,,,0.00,WUHU216HW,2013-02-25 22:13:00,
2013-02-25 15:14:00,52.9,14.9,29.97,WNW,293,6.3,11.4,22,0.00,,,0.00,WUHU216HW,2013-02-25 22:14:00,
2013-02-25 15:15:00,52.9,14.9,29.98,NW,315,6.9,11.4,22,0.00,,,0.00,WUHU216HW,2013-02-25 22:15:00,
2013-02-25 15:16:00,52.9,14.9,29.97,NNW,338,5.4,11.4,22,0.00,,,0.00,WUHU216HW,2013-02-25 22:16:00,
2013-02-25 15:17:00,52.9,14.9,29.97,West,270,3.4,10.5,22,0.00,,,0.00,WUHU216HW,2013-02-25 22:17:00,
2013-02-25 15:18:00,53.1,14.9,29.97,NW,315,5.4,10.3,22,0.00,,,0.00,WUHU216HW,2013-02-25 22:18:00,
2013-02-25 15:19:00,52.9,14.9,29.97,NNW,338,2.7,10.3,22,0.00,,,0.00,WUHU216HW,2013-02-25 22:19:00,
2013-02-25 15:20:00,52.9,14.9,29.97,WSW,248,2.7,10.3,22,0.00,,,0.00,WUHU216HW,2013-02-25 22:20:00,
2013-02-25 15:21:00,53.1,14.9,29.97,West,270,4.3,10.3,22,0.00,,,0.00,WUHU216HW,2013-02-25 22:21:00,
2013-02-25 15:22:00,53.1,14.9,29.97,SSW,203,8.5,10.3,22,0.00,,,0.00,WUHU216HW,2013-02-25 22:22:00,
2013-02-25 15:23:00,53.1,14.9,29.97,West,270,4.0,8.5,22,0.00,,,0.00,WUHU216HW,2013-02-25 22:23:00,
2013-02-25 15:24:00,53.1,14.9,29.97,SW,225,4.7,8.5,22,0.00,,,0.00,WUHU216HW,2013-02-25 22:24:00,
2013-02-25 15:25:00,53.3,15.1,29.97,NNW,338,2.0,8.5,22,0.00,,,0.00,WUHU216HW,2013-02-25 22:25:00,
2013-02-25 15:26:00,53.1,14.9,29.97,NNW,338,2.2,8.5,22,0.00,,,0.00,WUHU216HW,2013-02-25 22:26:00,
2013-02-25 15:27:00,53.3,15.1,29.97,NW,315,4.0,8.5,22,0.00,,,0.00,WUHU216HW,2013-02-25 22:27:00,
2013-02-25 15:28:00,53.3,15.1,29.97,West,270,4.0,8.5,22,0.00,,,0.00,WUHU216HW,2013-02-25 22:28:00,
2013-02-25 15:29:00,53.3,15.1,29.97,NW,315,2.7,8.5,22,0.00,,,0.00,WUHU216HW,2013-02-25 22:29:00,
2013-02-25 15:30:00,53.3,15.1,29.97,NNW,338,2.0,8.5,22,0.00,,,0.00,WUHU216HW,2013-02-25 22:30:00,
2013-02-25 15:31:00,53.5,15.3,29.97,WNW,293,2.0,8.5,22,0.00,,,0.00,WUHU216HW,2013-02-25 22:31:00,
2013-02-25 15:32:00,53.5,15.3,29.97,NW,315,1.6,7.8,22,0.00,,,0.00,WUHU216HW,2013-02-25 22:32:00,
2013-02-25 15:33:00,53.6,16.4,29.97,North,0,1.8,7.8,23,0.00,,,0.00,WUHU216HW,2013-02-25 22:33:00,
2013-02-25 15:34:00,53.6,15.4,29.97,North,0,1.1,4.7,22,0.00,,,0.00,WUHU216HW,2013-02-25 22:34:00,
2013-02-25 15:35:00,53.6,15.4,29.97,NW,315,2.5,4.7,22,0.00,,,0.00,WUHU216HW,2013-02-25 22:35:00,
2013-02-25 15:36:00,53.6,16.4,29.97,NW,315,2.5,4.7,23,0.00,,,0.00,WUHU216HW,2013-02-25 22:36:00,
2013-02-25 15:37:00,53.8,16.6,29.97,NNW,338,1.6,4.7,23,0.00,,,0.00,WUHU216HW,2013-02-25 22:37:00,
2013-02-25 15:38:00,54.0,16.7,29.97,WNW,293,1.3,4.7,23,0.00,,,0.00,WUHU216HW,2013-02-25 22:38:00,
2013-02-25 15:39:00,54.0,15.8,29.97,WSW,248,6.3,6.3,22,0.00,,,0.00,WUHU216HW,2013-02-25 22:39:00,
2013-02-25 15:40:00,53.8,15.6,29.97,WSW,248,6.5,6.5,22,0.00,,,0.00,WUHU216HW,2013-02-25 22:40:00,
2013-02-25 15:41:00,54.0,15.8,29.97,NW,315,2.5,6.5,22,0.00,,,0.00,WUHU216HW,2013-02-25 22:41:00,
2013-02-25 15:42:00,54.0,15.8,29.97,WSW,248,2.0,6.5,22,0.00,,,0.00,WUHU216HW,2013-02-25 22:42:00,
2013-02-25 15:43:00,54.0,15.8,29.97,WSW,248,7.8,7.8,22,0.00,,,0.00,WUHU216HW,2013-02-25 22:43:00,
2013-02-25 15:44:00,54.2,15.8,29.97,WNW,293,5.4,8.1,22,0.00,,,0.00,WUHU216HW,2013-02-25 22:44:00,
2013-02-25 15:45:00,54.2,15.0,29.97,WNW,293,4.7,8.1,21,0.00,,,0.00,WUHU216HW,2013-02-25 22:45:00,
2013-02-25 15:46:00,54.2,15.0,29.97,SW,225,6.0,8.1,21,0.00,,,0.00,WUHU216HW,2013-02-25 22:46:00,
2013-02-25 15:47:00,54.0,14.8,29.97,NNW,338,1.3,8.1,21,0.00,,,0.00,WUHU216HW,2013-02-25 22:47:00,
2013-02-25 15:48:00,54.2,15.0,29.97,NNW,338,3.8,8.1,21,0.00,,,0.00,WUHU216HW,2013-02-25 22:48:00,
2013-02-25 15:49:00,54.2,15.0,29.97,WNW,293,2.7,8.1,21,0.00,,,0.00,WUHU216HW,2013-02-25 22:49:00,
2013-02-25 15:50:00,54.0,14.8,29.97,NE,45,0.7,8.1,21,0.00,,,0.00,WUHU216HW,2013-02-25 22:50:00,
2013-02-25 15:51:00,54.0,14.8,29.97,North,0,2.5,8.1,21,0.00,,,0.00,WUHU216HW,2013-02-25 22:51:00,
2013-02-25 15:52:00,54.0,14.8,29.97,NNW,338,3.4,8.1,21,0.00,,,0.00,WUHU216HW,2013-02-25 22:52:00,
2013-02-25 15:53:00,54.0,14.8,29.97,NW,315,1.8,8.1,21,0.00,,,0.00,WUHU216HW,2013-02-25 22:53:00,
2013-02-25 15:54:00,54.0,14.8,29.97,WNW,293,1.3,6.9,21,0.00,,,0.00,WUHU216HW,2013-02-25 22:54:00,
2013-02-25 15:55:00,54.0,15.8,29.97,WNW,293,2.5,6.9,22,0.00,,,0.00,WUHU216HW,2013-02-25 22:55:00,
2013-02-25 15:56:00,54.0,15.8,29.97,West,270,3.8,6.9,22,0.00,,,0.00,WUHU216HW,2013-02-25 22:56:00,
2013-02-25 15:57:00,54.0,14.8,29.97,North,0,3.4,6.9,21,0.00,,,0.00,WUHU216HW,2013-02-25 22:57:00,
2013-02-25 15:58:00,54.0,14.8,29.97,NW,315,3.4,6.9,21,0.00,,,0.00,WUHU216HW,2013-02-25 22:58:00,
2013-02-25 15:59:00,54.0,14.8,29.97,WNW,293,4.5,5.6,21,0.00,,,0.00,WUHU216HW,2013-02-25 22:59:00,
2013-02-25 16:00:00,54.0,14.8,29.97,WNW,293,6.0,7.4,21,0.00,,,0.00,WUHU216HW,2013-02-25 23:00:00,
2013-02-25 16:01:00,54.0,13.9,29.97,WNW,293,7.6,9.4,20,0.00,,,0.00,WUHU216HW,2013-02-25 23:01:00,
2013-02-25 16:02:00,54.0,13.9,29.97,WSW,248,7.4,9.4,20,0.00,,,0.00,WUHU216HW,2013-02-25 23:02:00,
2013-02-25 16:03:00,53.6,13.5,29.97,West,270,4.9,9.4,20,0.00,,,0.00,WUHU216HW,2013-02-25 23:03:00,
2013-02-25 16:04:00,53.6,13.5,29.97,West,270,8.1,9.4,20,0.00,,,0.00,WUHU216HW,2013-02-25 23:04:00,
2013-02-25 16:05:00,53.6,13.5,29.97,West,270,3.4,9.4,20,0.00,,,0.00,WUHU216HW,2013-02-25 23:05:00,
2013-02-25 16:06:00,53.6,13.5,29.97,WNW,293,4.7,9.4,20,0.00,,,0.00,WUHU216HW,2013-02-25 23:06:00,
2013-02-25 16:07:00,53.6,14.5,29.97,NW,315,2.5,9.4,21,0.00,,,0.00,WUHU216HW,2013-02-25 23:07:00,
2013-02-25 16:08:00,53.6,14.5,29.97,SW,225,3.6,9.4,21,0.00,,,0.00,WUHU216HW,2013-02-25 23:08:00,
2013-02-25 16:09:00,53.6,14.5,29.97,WNW,293,1.8,9.4,21,0.00,,,0.00,WUHU216HW,2013-02-25 23:09:00,
2013-02-25 16:10:00,53.8,14.6,29.97,West,270,5.1,9.4,21,0.00,,,0.00,WUHU216HW,2013-02-25 23:10:00,
2013-02-25 16:11:00,53.8,13.7,29.97,NW,315,3.6,8.1,20,0.00,,,0.00,WUHU216HW,2013-02-25 23:11:00,
2013-02-25 16:12:00,53.8,13.7,29.97,WSW,248,4.7,8.1,20,0.00,,,0.00,WUHU216HW,2013-02-25 23:12:00,
2013-02-25 16:13:00,53.6,13.5,29.97,SSW,203,2.9,8.1,20,0.00,,,0.00,WUHU216HW,2013-02-25 23:13:00,
2013-02-25 16:14:00,53.8,13.7,29.97,SW,225,3.1,8.1,20,0.00,,,0.00,WUHU216HW,2013-02-25 23:14:00,
2013-02-25 16:15:00,53.6,13.5,29.97,WNW,293,5.4,7.6,20,0.00,,,0.00,WUHU216HW,2013-02-25 23:15:00,
2013-02-25 16:16:00,53.8,13.7,29.97,WSW,248,4.7,7.2,20,0.00,,,0.00,WUHU216HW,2013-02-25 23:16:00,
2013-02-25 16:17:00,53.8,13.7,29.97,WNW,293,5.4,7.2,20,0.00,,,0.00,WUHU216HW,2013-02-25 23:17:00,
2013-02-25 16:18:00,53.8,13.7,29.97,SSW,203,4.7,7.2,20,0.00,,,0.00,WUHU216HW,2013-02-25 23:18:00,
2013-02-25 16:19:00,54.0,13.9,29.97,WSW,248,5.1,7.2,20,0.00,,,0.00,WUHU216HW,2013-02-25 23:19:00,
2013-02-25 16:20:00,54.0,13.9,29.97,West,270,5.8,7.2,20,0.00,,,0.00,WUHU216HW,2013-02-25 23:20:00,
2013-02-25 16:21:00,54.0,13.9,29.97,WSW,248,2.9,6.9,20,0.00,,,0.00,WUHU216HW,2013-02-25 23:21:00,
2013-02-25 16:22:00,54.0,13.9,29.97,WSW,248,2.5,6.9,20,0.00,,,0.00,WUHU216HW,2013-02-25 23:22:00,
2013-02-25 16:23:00,54.0,13.9,29.97,WSW,248,4.7,6.9,20,0.00,,,0.00,WUHU216HW,2013-02-25 23:23:00,
2013-02-25 16:24:00,54.0,13.9,29.97,SSW,203,3.6,6.9,20,0.00,,,0.00,WUHU216HW,2013-02-25 23:24:00,
2013-02-25 16:25:00,54.0,13.9,29.97,WSW,248,4.5,6.9,20,0.00,,,0.00,WUHU216HW,2013-02-25 23:25:00,
2013-02-25 16:26:00,54.2,14.0,29.97,WSW,248,2.7,6.9,20,0.00,,,0.00,WUHU216HW,2013-02-25 23:26:00,
2013-02-25 16:27:00,54.2,15.0,29.97,SW,225,6.3,6.9,21,0.00,,,0.00,WUHU216HW,2013-02-25 23:27:00,
2013-02-25 16:28:00,54.4,14.1,29.97,WSW,248,6.7,9.8,20,0.00,,,0.00,WUHU216HW,2013-02-25 23:28:00,
2013-02-25 16:29:00,54.4,14.1,29.97,WSW,248,8.1,9.8,20,0.00,,,0.00,WUHU216HW,2013-02-25 23:29:00,
2013-02-25 16:30:00,54.4,14.1,29.97,SSW,203,6.3,9.8,20,0.00,,,0.00,WUHU216HW,2013-02-25 23:30:00,
2013-02-25 16:31:00,54.4,14.1,29.97,SW,225,4.7,9.8,20,0.00,,,0.00,WUHU216HW,2013-02-25 23:31:00,
2013-02-25 16:32:00,54.4,14.1,29.97,SW,225,9.2,9.8,20,0.00,,,0.00,WUHU216HW,2013-02-25 23:32:00,
2013-02-25 16:33:00,54.5,14.3,29.97,WSW,248,4.7,9.8,20,0.00,,,0.00,WUHU216HW,2013-02-25 23:33:00,
2013-02-25 16:34:00,54.5,14.3,29.97,SW,225,6.3,9.8,20,0.00,,,0.00,WUHU216HW,2013-02-25 23:34:00,
2013-02-25 16:35:00,54.4,14.1,29.97,SW,225,5.6,9.8,20,0.00,,,0.00,WUHU216HW,2013-02-25 23:35:00,
2013-02-25 16:36:00,54.4,14.1,29.97,SW,225,4.5,9.8,20,0.00,,,0.00,WUHU216HW,2013-02-25 23:36:00,
2013-02-25 16:37:00,54.4,14.1,29.97,WSW,248,2.9,9.8,20,0.00,,,0.00,WUHU216HW,2013-02-25 23:37:00,
2013-02-25 16:38:00,54.4,14.1,29.97,SW,225,6.5,9.4,20,0.00,,,0.00,WUHU216HW,2013-02-25 23:38:00,
2013-02-25 16:39:00,54.5,14.3,29.97,SSW,203,4.7,9.2,20,0.00,,,0.00,WUHU216HW,2013-02-25 23:39:00,
2013-02-25 16:40:00,54.5,14.3,29.97,SW,225,3.4,9.2,20,0.00,,,0.00,WUHU216HW,2013-02-25 23:40:00,
2013-02-25 16:41:00,54.5,14.3,29.97,SSW,203,5.4,9.2,20,0.00,,,0.00,WUHU216HW,2013-02-25 23:41:00,
2013-02-25 16:42:00,54.7,14.5,29.97,WSW,248,6.9,9.2,20,0.00,,,0.00,WUHU216HW,2013-02-25 23:42:00,
2013-02-25 16:43:00,54.5,14.3,29.97,WSW,248,3.4,8.7,20,0.00,,,0.00,WUHU216HW,2013-02-25 23:43:00,
2013-02-25 16:44:00,54.5,14.3,29.97,WSW,248,4.9,8.7,20,0.00,,,0.00,WUHU216HW,2013-02-25 23:44:00,
2013-02-25 16:45:00,54.5,14.3,29.97,SW,225,6.0,8.7,20,0.00,,,0.00,WUHU216HW,2013-02-25 23:45:00,
2013-02-25 16:46:00,54.5,14.3,29.96,WSW,248,7.6,8.7,20,0.00,,,0.00,WUHU216HW,2013-02-25 23:46:00,
2013-02-25 16:47:00,54.4,11.1,29.97,West,270,6.5,8.7,18,0.00,,,0.00,WUHU216HW,2013-02-25 23:47:00,
2013-02-25 16:48:00,54.4,11.1,29.97,SW,225,7.4,8.7,18,0.00,,,0.00,WUHU216HW,2013-02-25 23:48:00,
2013-02-25 16:49:00,54.4,11.1,29.97,SW,225,3.1,8.7,18,0.00,,,0.00,WUHU216HW,2013-02-25 23:49:00,
2013-02-25 16:50:00,54.2,11.0,29.96,West,270,4.9,8.7,18,0.00,,,0.00,WUHU216HW,2013-02-25 23:50:00,
2013-02-25 16:51:00,54.2,14.0,29.97,SW,225,6.3,8.7,20,0.00,,,0.00,WUHU216HW,2013-02-25 23:51:00,
2013-02-25 16:52:00,54.0,13.9,29.96,SW,225,7.2,9.2,20,0.00,,,0.00,WUHU216HW,2013-02-25 23:52:00,
2013-02-25 16:53:00,54.2,14.0,29.96,WSW,248,5.8,9.2,20,0.00,,,0.00,WUHU216HW,2013-02-25 23:53:00,
2013-02-25 16:54:00,54.2,11.0,29.96,SW,225,4.3,9.2,18,0.00,,,0.00,WUHU216HW,2013-02-25 23:54:00,
2013-02-25 16:55:00,54.0,10.8,29.96,SSW,203,4.3,9.2,18,0.00,,,0.00,WUHU216HW,2013-02-25 23:55:00,
2013-02-25 16:56:00,54.0,13.9,29.96,WSW,248,4.3,9.2,20,0.00,,,0.00,WUHU216HW,2013-02-25 23:56:00,
2013-02-25 16:57:00,54.0,13.9,29.96,SSW,203,4.7,9.2,20,0.00,,,0.00,WUHU216HW,2013-02-25 23:57:00,
2013-02-25 16:58:00,54.2,14.0,29.96,WSW,248,2.9,9.2,20,0.00,,,0.00,WUHU216HW,2013-02-25 23:58:00,
2013-02-25 16:59:00,54.2,14.0,29.96,SW,225,4.7,9.2,20,0.00,,,0.00,WUHU216HW,2013-02-25 23:59:00,
2013-02-25 17:00:00,54.0,13.9,29.96,SW,225,4.7,9.2,20,0.00,,,0.00,WUHU216HW,2013-02-26 00:00:00,
2013-02-25 17:01:00,54.0,12.3,29.96,West,270,9.8,12.8,19,0.00,,,0.00,WUHU216HW,2013-02-26 00:01:00,
2013-02-25 17:02:00,54.0,10.8,29.96,NNW,338,6.0,12.8,18,0.00,,,0.00,WUHU216HW,2013-02-26 00:02:00,
2013-02-25 17:03:00,54.0,10.8,29.96,WSW,248,4.9,12.8,18,0.00,,,0.00,WUHU216HW,2013-02-26 00:03:00,
2013-02-25 17:04:00,54.0,10.8,29.96,NNW,338,4.7,12.8,18,0.00,,,0.00,WUHU216HW,2013-02-26 00:04:00,
2013-02-25 17:05:00,53.8,10.6,29.97,WSW,248,7.6,12.8,18,0.00,,,0.00,WUHU216HW,2013-02-26 00:05:00,
2013-02-25 17:06:00,53.8,10.6,29.96,West,270,4.7,12.8,18,0.00,,,0.00,WUHU216HW,2013-02-26 00:06:00,
2013-02-25 17:07:00,53.8,10.6,29.97,West,270,4.3,12.8,18,0.00,,,0.00,WUHU216HW,2013-02-26 00:07:00,
2013-02-25 17:08:00,53.6,10.4,29.97,SW,225,5.4,12.8,18,0.00,,,0.00,WUHU216HW,2013-02-26 00:08:00,
2013-02-25 17:09:00,53.6,12.0,29.97,WSW,248,4.7,12.8,19,0.00,,,0.00,WUHU216HW,2013-02-26 00:09:00,
2013-02-25 17:10:00,53.6,10.4,29.97,NNW,338,5.4,12.8,18,0.00,,,0.00,WUHU216HW,2013-02-26 00:10:00,
2013-02-25 17:11:00,53.5,10.4,29.97,WSW,248,3.8,10.1,18,0.00,,,0.00,WUHU216HW,2013-02-26 00:11:00,
2013-02-25 17:12:00,53.5,10.4,29.97,West,270,6.9,7.6,18,0.00,,,0.00,WUHU216HW,2013-02-26 00:12:00,
2013-02-25 17:13:00,53.5,10.4,29.97,WNW,293,5.4,7.6,18,0.00,,,0.00,WUHU216HW,2013-02-26 00:13:00,
2013-02-25 17:14:00,53.5,10.4,29.97,WSW,248,6.3,7.6,18,0.00,,,0.00,WUHU216HW,2013-02-26 00:14:00,
2013-02-25 17:15:00,53.3,10.2,29.97,WNW,293,6.3,8.3,18,0.00,,,0.00,WUHU216HW,2013-02-26 00:15:00,
2013-02-25 17:16:00,53.3,10.2,29.96,West,270,4.9,8.3,18,0.00,,,0.00,WUHU216HW,2013-02-26 00:16:00,
2013-02-25 17:17:00,53.3,10.2,29.97,West,270,7.6,8.7,18,0.00,,,0.00,WUHU216HW,2013-02-26 00:17:00,
2013-02-25 17:18:00,53.1,10.1,29.97,WSW,248,5.4,8.7,18,0.00,,,0.00,WUHU216HW,2013-02-26 00:18:00,
2013-02-25 17:19:00,53.1,10.1,29.97,WNW,293,5.4,8.7,18,0.00,,,0.00,WUHU216HW,2013-02-26 00:19:00,
2013-02-25 17:20:00,53.1,10.1,29.96,West,270,4.9,8.7,18,0.00,,,0.00,WUHU216HW,2013-02-26 00:20:00,
2013-02-25 17:21:00,52.9,9.9,29.97,WNW,293,3.6,8.7,18,0.00,,,0.00,WUHU216HW,2013-02-26 00:21:00,
2013-02-25 17:22:00,52.9,9.9,29.97,West,270,2.5,8.7,18,0.00,,,0.00,WUHU216HW,2013-02-26 00:22:00,
2013-02-25 17:23:00,52.9,9.9,29.97,NW,315,4.9,8.7,18,0.00,,,0.00,WUHU216HW,2013-02-26 00:23:00,
2013-02-25 17:24:00,52.9,11.4,29.97,WSW,248,3.6,8.7,19,0.00,,,0.00,WUHU216HW,2013-02-26 00:24:00,
2013-02-25 17:25:00,52.9,9.9,29.97,WSW,248,9.8,9.8,18,0.00,,,0.00,WUHU216HW,2013-02-26 00:25:00,
2013-02-25 17:26:00,52.9,9.9,29.97,WSW,248,3.4,9.8,18,0.00,,,0.00,WUHU216HW,2013-02-26 00:26:00,
2013-02-25 17:27:00,52.9,11.4,29.97,West,270,6.3,9.8,19,0.00,,,0.00,WUHU216HW,2013-02-26 00:27:00,
2013-02-25 17:28:00,52.9,11.4,29.97,WSW,248,5.4,9.8,19,0.00,,,0.00,WUHU216HW,2013-02-26 00:28:00,
2013-02-25 17:29:00,52.9,11.4,29.97,WSW,248,7.6,9.8,19,0.00,,,0.00,WUHU216HW,2013-02-26 00:29:00,
2013-02-25 17:30:00,52.9,11.4,29.97,SSW,203,3.8,9.8,19,0.00,,,0.00,WUHU216HW,2013-02-26 00:30:00,
2013-02-25 17:31:00,52.7,12.8,29.97,WNW,293,5.6,9.8,20,0.00,,,0.00,WUHU216HW,2013-02-26 00:31:00,
2013-02-25 17:32:00,52.7,12.8,29.97,WSW,248,2.5,9.8,20,0.00,,,0.00,WUHU216HW,2013-02-26 00:32:00,
2013-02-25 17:33:00,52.7,12.8,29.97,WSW,248,3.8,9.8,20,0.00,,,0.00,WUHU216HW,2013-02-26 00:33:00,
2013-02-25 17:34:00,52.7,9.7,29.97,WSW,248,5.6,9.8,18,0.00,,,0.00,WUHU216HW,2013-02-26 00:34:00,
2013-02-25 17:35:00,52.7,9.7,29.97,WSW,248,4.5,8.3,18,0.00,,,0.00,WUHU216HW,2013-02-26 00:35:00,
2013-02-25 17:36:00,52.6,9.6,29.97,WSW,248,4.0,7.6,18,0.00,,,0.00,WUHU216HW,2013-02-26 00:36:00,
2013-02-25 17:37:00,52.4,9.5,29.97,WSW,248,5.6,7.6,18,0.00,,,0.00,WUHU216HW,2013-02-26 00:37:00,
2013-02-25 17:38:00,52.6,9.6,29.97,SW,225,6.9,7.6,18,0.00,,,0.00,WUHU216HW,2013-02-26 00:38:00,
2013-02-25 17:39:00,52.4,12.5,29.97,West,270,2.7,7.6,20,0.00,,,0.00,WUHU216HW,2013-02-26 00:39:00,
2013-02-25 17:40:00,52.4,12.5,29.97,WSW,248,4.9,7.6,20,0.00,,,0.00,WUHU216HW,2013-02-26 00:40:00,
2013-02-25 17:41:00,52.2,10.8,29.97,SW,225,4.0,7.6,19,0.00,,,0.00,WUHU216HW,2013-02-26 00:41:00,
2013-02-25 17:42:00,52.2,12.3,29.97,WSW,248,4.5,7.6,20,0.00,,,0.00,WUHU216HW,2013-02-26 00:42:00,
2013-02-25 17:43:00,52.2,12.3,29.97,West,270,6.0,7.6,20,0.00,,,0.00,WUHU216HW,2013-02-26 00:43:00,
2013-02-25 17:44:00,52.2,12.3,29.97,WSW,248,3.4,7.6,20,0.00,,,0.00,WUHU216HW,2013-02-26 00:44:00,
2013-02-25 17:45:00,52.0,12.3,29.97,SW,225,1.8,6.9,20,0.00,,,0.00,WUHU216HW,2013-02-26 00:45:00,
2013-02-25 17:46:00,52.0,12.3,29.97,WSW,248,3.8,6.9,20,0.00,,,0.00,WUHU216HW,2013-02-26 00:46:00,
2013-02-25 17:47:00,52.0,12.3,29.97,WSW,248,4.7,6.9,20,0.00,,,0.00,WUHU216HW,2013-02-26 00:47:00,
2013-02-25 17:48:00,51.8,12.1,29.97,WSW,248,5.1,6.0,20,0.00,,,0.00,WUHU216HW,2013-02-26 00:48:00,
2013-02-25 17:49:00,51.8,12.1,29.97,SW,225,2.7,6.0,20,0.00,,,0.00,WUHU216HW,2013-02-26 00:49:00,
2013-02-25 17:50:00,51.8,12.1,29.97,SSW,203,3.4,6.0,20,0.00,,,0.00,WUHU216HW,2013-02-26 00:50:00,
2013-02-25 17:51:00,51.8,12.1,29.97,West,270,1.3,6.0,20,0.00,,,0.00,WUHU216HW,2013-02-26 00:51:00,
2013-02-25 17:52:00,51.7,11.9,29.97,West,270,2.5,6.0,20,0.00,,,0.00,WUHU216HW,2013-02-26 00:52:00,
2013-02-25 17:53:00,51.5,11.8,29.97,WSW,248,1.8,6.0,20,0.00,,,0.00,WUHU216HW,2013-02-26 00:53:00,
2013-02-25 17:54:00,51.5,11.8,29.97,WSW,248,2.2,5.1,20,0.00,,,0.00,WUHU216HW,2013-02-26 00:54:00,
2013-02-25 17:55:00,51.5,11.8,29.97,West,270,1.8,5.1,20,0.00,,,0.00,WUHU216HW,2013-02-26 00:55:00,
2013-02-25 17:56:00,51.5,11.8,29.97,WSW,248,2.0,5.1,20,0.00,,,0.00,WUHU216HW,2013-02-26 00:56:00,
2013-02-25 17:57:00,51.3,11.6,29.97,SW,225,3.4,5.1,20,0.00,,,0.00,WUHU216HW,2013-02-26 00:57:00,
2013-02-25 17:58:00,51.3,11.6,29.97,WSW,248,2.2,5.1,20,0.00,,,0.00,WUHU216HW,2013-02-26 00:58:00,
2013-02-25 17:59:00,51.1,11.5,29.97,WSW,248,4.7,4.7,20,0.00,,,0.00,WUHU216HW,2013-02-26 00:59:00,
2013-02-25 18:00:00,51.1,11.5,29.97,SW,225,3.4,4.7,20,0.00,,,0.00,WUHU216HW,2013-02-26 01:00:00,
2013-02-25 18:01:00,50.9,11.3,29.97,SSW,203,3.6,4.7,20,0.00,,,0.00,WUHU216HW,2013-02-26 01:01:00,
2013-02-25 18:02:00,50.9,11.3,29.97,SW,225,2.5,4.7,20,0.00,,,0.00,WUHU216HW,2013-02-26 01:02:00,
2013-02-25 18:03:00,50.8,11.2,29.97,WSW,248,3.1,4.7,20,0.00,,,0.00,WUHU216HW,2013-02-26 01:03:00,
2013-02-25 18:04:00,50.8,11.2,29.97,SW,225,2.7,4.7,20,0.00,,,0.00,WUHU216HW,2013-02-26 01:04:00,
2013-02-25 18:05:00,50.6,11.1,29.97,SSW,203,1.8,4.7,20,0.00,,,0.00,WUHU216HW,2013-02-26 01:05:00,
2013-02-25 18:06:00,50.6,11.1,29.97,SSW,203,2.7,4.7,20,0.00,,,0.00,WUHU216HW,2013-02-26 01:06:00,
2013-02-25 18:07:00,50.6,11.1,29.97,SSW,203,1.6,4.7,20,0.00,,,0.00,WUHU216HW,2013-02-26 01:07:00,
2013-02-25 18:08:00,50.4,11.8,29.97,SW,225,1.6,4.7,21,0.00,,,0.00,WUHU216HW,2013-02-26 01:08:00,
2013-02-25 18:09:00,50.4,11.8,29.97,WSW,248,1.1,4.3,21,0.00,,,0.00,WUHU216HW,2013-02-26 01:09:00,
2013-02-25 18:10:00,50.4,11.8,29.97,SW,225,2.5,4.0,21,0.00,,,0.00,WUHU216HW,2013-02-26 01:10:00,
2013-02-25 18:11:00,50.4,11.8,29.97,SW,225,1.1,3.6,21,0.00,,,0.00,WUHU216HW,2013-02-26 01:11:00,
2013-02-25 18:12:00,50.4,11.8,29.97,WSW,248,1.8,3.4,21,0.00,,,0.00,WUHU216HW,2013-02-26 01:12:00,
2013-02-25 18:13:00,50.2,11.7,29.97,SW,225,2.0,2.9,21,0.00,,,0.00,WUHU216HW,2013-02-26 01:13:00,
2013-02-25 18:14:00,50.2,11.7,29.97,SSW,203,2.2,2.9,21,0.00,,,0.00,WUHU216HW,2013-02-26 01:14:00,
2013-02-25 18:15:00,50.0,11.5,29.97,SW,225,2.0,2.9,21,0.00,,,0.00,WUHU216HW,2013-02-26 01:15:00,
2013-02-25 18:16:00,50.0,11.5,29.97,WSW,248,2.0,2.9,21,0.00,,,0.00,WUHU216HW,2013-02-26 01:16:00,
2013-02-25 18:17:00,50.0,11.5,29.97,West,270,3.4,3.4,21,0.00,,,0.00,WUHU216HW,2013-02-26 01:17:00,
2013-02-25 18:18:00,50.0,11.5,29.97,SSW,203,3.4,3.4,21,0.00,,,0.00,WUHU216HW,2013-02-26 01:18:00,
2013-02-25 18:19:00,49.9,11.3,29.97,SW,225,2.7,3.4,21,0.00,,,0.00,WUHU216HW,2013-02-26 01:19:00,
2013-02-25 18:20:00,49.9,11.3,29.97,SW,225,3.8,3.8,21,0.00,,,0.00,WUHU216HW,2013-02-26 01:20:00,
2013-02-25 18:21:00,49.7,11.3,29.97,WSW,248,2.7,3.8,21,0.00,,,0.00,WUHU216HW,2013-02-26 01:21:00,
2013-02-25 18:22:00,49.7,11.3,29.97,WSW,248,2.5,3.8,21,0.00,,,0.00,WUHU216HW,2013-02-26 01:22:00,
2013-02-25 18:23:00,49.5,11.1,29.97,West,270,3.6,3.8,21,0.00,,,0.00,WUHU216HW,2013-02-26 01:23:00,
2013-02-25 18:24:00,49.5,11.1,29.97,WSW,248,4.0,4.0,21,0.00,,,0.00,WUHU216HW,2013-02-26 01:24:00,
2013-02-25 18:25:00,49.3,10.9,29.97,SSW,203,2.7,4.0,21,0.00,,,0.00,WUHU216HW,2013-02-26 01:25:00,
2013-02-25 18:26:00,49.3,10.9,29.97,SSW,203,2.9,4.0,21,0.00,,,0.00,WUHU216HW,2013-02-26 01:26:00,
2013-02-25 18:27:00,49.1,11.7,29.97,SW,225,2.5,4.0,22,0.00,,,0.00,WUHU216HW,2013-02-26 01:27:00,
2013-02-25 18:28:00,49.0,11.5,29.97,SSW,203,2.9,4.0,22,0.00,,,0.00,WUHU216HW,2013-02-26 01:28:00,
2013-02-25 18:29:00,49.0,11.5,29.97,WSW,248,1.8,4.0,22,0.00,,,0.00,WUHU216HW,2013-02-26 01:29:00,
2013-02-25 18:30:00,48.8,11.3,29.97,WSW,248,3.6,4.0,22,0.00,,,0.00,WUHU216HW,2013-02-26 01:30:00,
2013-02-25 18:31:00,48.8,11.3,29.97,SW,225,2.2,4.0,22,0.00,,,0.00,WUHU216HW,2013-02-26 01:31:00,
2013-02-25 18:32:00,48.6,11.2,29.97,SSW,203,3.6,4.0,22,0.00,,,0.00,WUHU216HW,2013-02-26 01:32:00,
2013-02-25 18:33:00,48.6,11.2,29.97,SW,225,4.7,4.7,22,0.00,,,0.00,WUHU216HW,2013-02-26 01:33:00,
2013-02-25 18:34:00,48.6,11.2,29.97,WSW,248,3.8,4.7,22,0.00,,,0.00,WUHU216HW,2013-02-26 01:34:00,
2013-02-25 18:35:00,48.6,11.2,29.97,SW,225,3.8,4.7,22,0.00,,,0.00,WUHU216HW,2013-02-26 01:35:00,
2013-02-25 18:36:00,48.4,11.1,29.97,SW,225,4.0,4.7,22,0.00,,,0.00,WUHU216HW,2013-02-26 01:36:00,
2013-02-25 18:37:00,48.4,11.1,29.97,SW,225,2.9,4.7,22,0.00,,,0.00,WUHU216HW,2013-02-26 01:37:00,
2013-02-25 18:38:00,48.4,11.1,29.97,SW,225,1.8,4.7,22,0.00,,,0.00,WUHU216HW,2013-02-26 01:38:00,
2013-02-25 18:39:00,48.2,10.9,29.97,SW,225,1.1,4.7,22,0.00,,,0.00,WUHU216HW,2013-02-26 01:39:00,
2013-02-25 18:40:00,48.2,10.9,29.97,SSW,203,2.5,4.7,22,0.00,,,0.00,WUHU216HW,2013-02-26 01:40:00,
2013-02-25 18:41:00,48.2,10.9,29.97,WSW,248,1.1,4.7,22,0.00,,,0.00,WUHU216HW,2013-02-26 01:41:00,
2013-02-25 18:42:00,48.1,10.7,29.97,WSW,248,2.2,4.7,22,0.00,,,0.00,WUHU216HW,2013-02-26 01:42:00,
2013-02-25 18:43:00,48.1,10.7,29.97,SW,225,3.8,4.7,22,0.00,,,0.00,WUHU216HW,2013-02-26 01:43:00,
2013-02-25 18:44:00,48.1,10.7,29.97,SW,225,1.8,4.0,22,0.00,,,0.00,WUHU216HW,2013-02-26 01:44:00,
2013-02-25 18:45:00,48.1,10.7,29.97,SW,225,1.8,4.0,22,0.00,,,0.00,WUHU216HW,2013-02-26 01:45:00,
2013-02-25 18:46:00,47.9,10.6,29.97,SW,225,2.2,4.0,22,0.00,,,0.00,WUHU216HW,2013-02-26 01:46:00,
2013-02-25 18:47:00,47.9,11.5,29.97,SW,225,2.9,3.8,23,0.00,,,0.00,WUHU216HW,2013-02-26 01:47:00,
2013-02-25 18:48:00,47.9,11.5,29.97,SW,225,2.5,3.8,23,0.00,,,0.00,WUHU216HW,2013-02-26 01:48:00,
2013-02-25 18:49:00,47.9,11.5,29.97,SW,225,3.4,3.8,23,0.00,,,0.00,WUHU216HW,2013-02-26 01:49:00,
2013-02-25 18:50:00,47.7,11.3,29.97,SW,225,1.6,3.8,23,0.00,,,0.00,WUHU216HW,2013-02-26 01:50:00,
2013-02-25 18:51:00,47.7,11.3,29.97,SSW,203,1.6,3.8,23,0.00,,,0.00,WUHU216HW,2013-02-26 01:51:00,
2013-02-25 18:52:00,47.5,11.3,29.97,SW,225,3.6,3.8,23,0.00,,,0.00,WUHU216HW,2013-02-26 01:52:00,
2013-02-25 18:53:00,47.5,11.3,29.97,SW,225,4.5,4.5,23,0.00,,,0.00,WUHU216HW,2013-02-26 01:53:00,
2013-02-25 18:54:00,47.5,11.3,29.97,SW,225,4.0,4.5,23,0.00,,,0.00,WUHU216HW,2013-02-26 01:54:00,
2013-02-25 18:55:00,47.3,11.1,29.97,SW,225,3.1,4.7,23,0.00,,,0.00,WUHU216HW,2013-02-26 01:55:00,
2013-02-25 18:56:00,47.3,11.1,29.97,WSW,248,2.5,4.7,23,0.00,,,0.00,WUHU216HW,2013-02-26 01:56:00,
2013-02-25 18:57:00,47.2,10.9,29.97,SW,225,3.8,4.7,23,0.00,,,0.00,WUHU216HW,2013-02-26 01:57:00,
2013-02-25 18:58:00,47.2,10.9,29.97,SSW,203,3.4,4.7,23,0.00,,,0.00,WUHU216HW,2013-02-26 01:58:00,
2013-02-25 18:59:00,47.2,10.9,29.97,SW,225,4.7,4.7,23,0.00,,,0.00,WUHU216HW,2013-02-26 01:59:00,
2013-02-25 19:00:00,47.2,10.9,29.97,SW,225,4.0,4.7,23,0.00,,,0.00,WUHU216HW,2013-02-26 02:00:00,
2013-02-25 19:01:00,47.2,10.9,29.97,SSW,203,3.4,4.7,23,0.00,,,0.00,WUHU216HW,2013-02-26 02:01:00,
2013-02-25 19:02:00,47.0,10.8,29.97,SSW,203,3.4,4.7,23,0.00,,,0.00,WUHU216HW,2013-02-26 02:02:00,
2013-02-25 19:03:00,47.0,10.8,29.97,SW,225,3.1,4.7,23,0.00,,,0.00,WUHU216HW,2013-02-26 02:03:00,
2013-02-25 19:04:00,47.0,10.8,29.97,SW,225,3.8,4.7,23,0.00,,,0.00,WUHU216HW,2013-02-26 02:04:00,
2013-02-25 19:05:00,47.0,10.8,29.97,SW,225,3.8,5.4,23,0.00,,,0.00,WUHU216HW,2013-02-26 02:05:00,
2013-02-25 19:06:00,47.0,10.8,29.97,WSW,248,4.0,5.4,23,0.00,,,0.00,WUHU216HW,2013-02-26 02:06:00,
2013-02-25 19:07:00,46.8,10.6,29.97,SW,225,4.7,5.4,23,0.00,,,0.00,WUHU216HW,2013-02-26 02:07:00,
2013-02-25 19:08:00,46.8,10.6,29.97,WSW,248,2.0,5.4,23,0.00,,,0.00,WUHU216HW,2013-02-26 02:08:00,
2013-02-25 19:09:00,46.8,10.6,29.97,SW,225,3.6,5.4,23,0.00,,,0.00,WUHU216HW,2013-02-26 02:09:00,
2013-02-25 19:10:00,46.8,10.6,29.97,SW,225,4.0,5.4,23,0.00,,,0.00,WUHU216HW,2013-02-26 02:10:00,
2013-02-25 19:11:00,46.8,10.6,29.97,SW,225,4.0,5.4,23,0.00,,,0.00,WUHU216HW,2013-02-26 02:11:00,
2013-02-25 19:12:00,46.6,10.4,29.97,SSW,203,4.0,5.4,23,0.00,,,0.00,WUHU216HW,2013-02-26 02:12:00,
2013-02-25 19:13:00,46.6,10.4,29.97,SW,225,5.4,5.4,23,0.00,,,0.00,WUHU216HW,2013-02-26 02:13:00,
2013-02-25 19:14:00,46.6,10.4,29.97,SSW,203,4.9,5.4,23,0.00,,,0.00,WUHU216HW,2013-02-26 02:14:00,
2013-02-25 19:15:00,46.6,10.4,29.97,SSW,203,2.7,5.4,23,0.00,,,0.00,WUHU216HW,2013-02-26 02:15:00,
2013-02-25 19:16:00,46.6,10.4,29.97,SSW,203,2.7,5.4,23,0.00,,,0.00,WUHU216HW,2013-02-26 02:16:00,
2013-02-25 19:17:00,46.6,10.4,29.97,SW,225,2.5,5.4,23,0.00,,,0.00,WUHU216HW,2013-02-26 02:17:00,
2013-02-25 19:18:00,46.4,10.4,29.97,SW,225,2.7,5.4,23,0.00,,,0.00,WUHU216HW,2013-02-26 02:18:00,
2013-02-25 19:19:00,46.4,10.4,29.97,SSW,203,1.6,5.4,23,0.00,,,0.00,WUHU216HW,2013-02-26 02:19:00,
2013-02-25 19:20:00,46.4,10.4,29.97,SSW,203,1.3,5.4,23,0.00,,,0.00,WUHU216HW,2013-02-26 02:20:00,
2013-02-25 19:21:00,46.4,10.4,29.97,SW,225,3.1,5.4,23,0.00,,,0.00,WUHU216HW,2013-02-26 02:21:00,
2013-02-25 19:22:00,46.4,10.4,29.97,SW,225,2.0,5.4,23,0.00,,,0.00,WUHU216HW,2013-02-26 02:22:00,
2013-02-25 19:23:00,46.3,10.2,29.97,SW,225,2.7,5.4,23,0.00,,,0.00,WUHU216HW,2013-02-26 02:23:00,
2013-02-25 19:24:00,46.3,11.1,29.97,SW,225,3.1,4.7,24,0.00,,,0.00,WUHU216HW,2013-02-26 02:24:00,
2013-02-25 19:25:00,46.3,11.1,29.97,SW,225,2.5,4.7,24,0.00,,,0.00,WUHU216HW,2013-02-26 02:25:00,
2013-02-25 19:26:00,46.1,10.9,29.97,SSW,203,2.9,4.7,24,0.00,,,0.00,WUHU216HW,2013-02-26 02:26:00,
2013-02-25 19:27:00,46.1,10.9,29.97,SW,225,4.0,4.7,24,0.00,,,0.00,WUHU216HW,2013-02-26 02:27:00,
2013-02-25 19:28:00,46.1,10.9,29.97,SW,225,4.3,4.3,24,0.00,,,0.00,WUHU216HW,2013-02-26 02:28:00,
2013-02-25 19:29:00,46.1,10.9,29.97,SW,225,2.5,4.7,24,0.00,,,0.00,WUHU216HW,2013-02-26 02:29:00,
2013-02-25 19:30:00,45.9,10.8,29.97,SW,225,4.0,4.7,24,0.00,,,0.00,WUHU216HW,2013-02-26 02:30:00,
2013-02-25 19:31:00,45.9,10.8,29.97,SSW,203,4.9,4.9,24,0.00,,,0.00,WUHU216HW,2013-02-26 02:31:00,
2013-02-25 19:32:00,45.9,10.8,29.97,SSW,203,3.4,4.9,24,0.00,,,0.00,WUHU216HW,2013-02-26 02:32:00,
2013-02-25 19:33:00,45.7,10.6,29.97,SSW,203,1.8,4.9,24,0.00,,,0.00,WUHU216HW,2013-02-26 02:33:00,
2013-02-25 19:34:00,45.7,10.6,29.97,SW,225,2.5,4.9,24,0.00,,,0.00,WUHU216HW,2013-02-26 02:34:00,
2013-02-25 19:35:00,45.7,10.6,29.97,WSW,248,3.4,4.9,24,0.00,,,0.00,WUHU216HW,2013-02-26 02:35:00,
2013-02-25 19:36:00,45.7,10.6,29.97,SW,225,2.7,4.9,24,0.00,,,0.00,WUHU216HW,2013-02-26 02:36:00,
2013-02-25 19:37:00,45.7,10.6,29.97,SSW,203,2.2,4.9,24,0.00,,,0.00,WUHU216HW,2013-02-26 02:37:00,
2013-02-25 19:38:00,45.7,10.6,29.97,SSW,203,3.6,4.9,24,0.00,,,0.00,WUHU216HW,2013-02-26 02:38:00,
2013-02-25 19:39:00,45.5,10.4,29.97,WSW,248,3.4,4.9,24,0.00,,,0.00,WUHU216HW,2013-02-26 02:39:00,
2013-02-25 19:40:00,45.5,10.4,29.97,SW,225,3.6,4.9,24,0.00,,,0.00,WUHU216HW,2013-02-26 02:40:00,
2013-02-25 19:41:00,45.5,10.4,29.97,SW,225,3.1,4.9,24,0.00,,,0.00,WUHU216HW,2013-02-26 02:41:00,
2013-02-25 19:42:00,45.4,10.4,29.97,SW,225,2.7,4.0,24,0.00,,,0.00,WUHU216HW,2013-02-26 02:42:00,
2013-02-25 19:43:00,45.4,10.4,29.97,SW,225,2.5,4.0,24,0.00,,,0.00,WUHU216HW,2013-02-26 02:43:00,
2013-02-25 19:44:00,45.4,10.4,29.97,SSW,203,3.4,4.0,24,0.00,,,0.00,WUHU216HW,2013-02-26 02:44:00,
2013-02-25 19:45:00,45.2,10.2,29.97,WSW,248,2.5,4.0,24,0.00,,,0.00,WUHU216HW,2013-02-26 02:45:00,
2013-02-25 19:46:00,45.0,10.0,29.97,WSW,248,2.7,4.0,24,0.00,,,0.00,WUHU216HW,2013-02-26 02:46:00,
2013-02-25 19:47:00,45.0,10.0,29.97,SSW,203,1.8,4.0,24,0.00,,,0.00,WUHU216HW,2013-02-26 02:47:00,
2013-02-25 19:48:00,45.0,10.0,29.97,SW,225,2.7,4.0,24,0.00,,,0.00,WUHU216HW,2013-02-26 02:48:00,
2013-02-25 19:49:00,45.0,10.0,29.97,SW,225,2.5,4.0,24,0.00,,,0.00,WUHU216HW,2013-02-26 02:49:00,
2013-02-25 19:50:00,45.0,10.0,29.97,SSW,203,2.5,4.0,24,0.00,,,0.00,WUHU216HW,2013-02-26 02:50:00,
2013-02-25 19:51:00,45.0,10.0,29.97,SW,225,2.5,4.0,24,0.00,,,0.00,WUHU216HW,2013-02-26 02:51:00,
2013-02-25 19:52:00,44.8,9.9,29.97,SSW,203,1.8,3.4,24,0.00,,,0.00,WUHU216HW,2013-02-26 02:52:00,
2013-02-25 19:53:00,44.8,9.9,29.97,SSW,203,4.0,4.0,24,0.00,,,0.00,WUHU216HW,2013-02-26 02:53:00,
2013-02-25 19:54:00,44.8,9.9,29.97,SSW,203,2.9,4.0,24,0.00,,,0.00,WUHU216HW,2013-02-26 02:54:00,
2013-02-25 19:55:00,44.6,9.7,29.97,SSW,203,2.9,4.0,24,0.00,,,0.00,WUHU216HW,2013-02-26 02:55:00,
2013-02-25 19:56:00,44.6,9.7,29.97,SW,225,2.9,4.0,24,0.00,,,0.00,WUHU216HW,2013-02-26 02:56:00,
2013-02-25 19:57:00,44.6,9.7,29.97,South,180,3.4,4.0,24,0.00,,,0.00,WUHU216HW,2013-02-26 02:57:00,
2013-02-25 19:58:00,44.6,9.7,29.97,SSW,203,3.8,4.3,24,0.00,,,0.00,WUHU216HW,2013-02-26 02:58:00,
2013-02-25 19:59:00,44.5,9.5,29.97,SSW,203,2.9,4.3,24,0.00,,,0.00,WUHU216HW,2013-02-26 02:59:00,
2013-02-25 20:00:00,44.5,9.5,29.97,SSW,203,2.7,4.3,24,0.00,,,0.00,WUHU216HW,2013-02-26 03:00:00,
2013-02-25 20:01:00,44.5,9.5,29.97,WSW,248,3.4,4.3,24,0.00,,,0.00,WUHU216HW,2013-02-26 03:01:00,
2013-02-25 20:02:00,44.3,10.3,29.97,SW,225,3.4,4.3,25,0.00,,,0.00,WUHU216HW,2013-02-26 03:02:00,
2013-02-25 20:03:00,44.3,10.3,29.97,SSW,203,2.7,4.3,25,0.00,,,0.00,WUHU216HW,2013-02-26 03:03:00,
2013-02-25 20:04:00,44.3,10.3,29.97,SSW,203,2.2,4.3,25,0.00,,,0.00,WUHU216HW,2013-02-26 03:04:00,
2013-02-25 20:05:00,44.3,10.3,29.97,SSW,203,3.4,4.3,25,0.00,,,0.00,WUHU216HW,2013-02-26 03:05:00,
2013-02-25 20:06:00,44.3,10.3,29.97,SSW,203,1.8,4.3,25,0.00,,,0.00,WUHU216HW,2013-02-26 03:06:00,
2013-02-25 20:07:00,44.1,10.2,29.97,SSW,203,2.5,4.3,25,0.00,,,0.00,WUHU216HW,2013-02-26 03:07:00,
2013-02-25 20:08:00,44.1,10.2,29.97,SW,225,3.1,4.3,25,0.00,,,0.00,WUHU216HW,2013-02-26 03:08:00,
2013-02-25 20:09:00,44.1,10.2,29.97,SW,225,2.0,4.3,25,0.00,,,0.00,WUHU216HW,2013-02-26 03:09:00,
2013-02-25 20:10:00,44.1,10.2,29.97,WSW,248,1.8,4.3,25,0.00,,,0.00,WUHU216HW,2013-02-26 03:10:00,
2013-02-25 20:11:00,44.1,10.2,29.97,SSW,203,2.2,4.0,25,0.00,,,0.00,WUHU216HW,2013-02-26 03:11:00,
2013-02-25 20:12:00,43.9,10.0,29.97,SSW,203,3.8,4.0,25,0.00,,,0.00,WUHU216HW,2013-02-26 03:12:00,
2013-02-25 20:13:00,44.1,10.2,29.98,SW,225,2.7,4.0,25,0.00,,,0.00,WUHU216HW,2013-02-26 03:13:00,
2013-02-25 20:14:00,44.1,10.2,29.97,SSW,203,3.4,4.0,25,0.00,,,0.00,WUHU216HW,2013-02-26 03:14:00,
2013-02-25 20:15:00,43.9,10.0,29.97,SW,225,2.7,4.0,25,0.00,,,0.00,WUHU216HW,2013-02-26 03:15:00,
2013-02-25 20:16:00,43.9,10.0,29.97,SSW,203,2.0,4.0,25,0.00,,,0.00,WUHU216HW,2013-02-26 03:16:00,
2013-02-25 20:17:00,43.9,10.0,29.97,SW,225,2.5,4.0,25,0.00,,,0.00,WUHU216HW,2013-02-26 03:17:00,
2013-02-25 20:18:00,43.9,10.0,29.97,South,180,2.5,4.0,25,0.00,,,0.00,WUHU216HW,2013-02-26 03:18:00,
2013-02-25 20:19:00,43.9,10.0,29.97,SSW,203,3.4,4.0,25,0.00,,,0.00,WUHU216HW,2013-02-26 03:19:00,
2013-02-25 20:20:00,43.9,10.0,29.97,SSW,203,3.4,4.0,25,0.00,,,0.00,WUHU216HW,2013-02-26 03:20:00,
2013-02-25 20:21:00,43.7,9.8,29.97,SSW,203,3.4,4.7,25,0.00,,,0.00,WUHU216HW,2013-02-26 03:21:00,
2013-02-25 20:22:00,43.7,9.8,29.97,SSW,203,3.1,4.7,25,0.00,,,0.00,WUHU216HW,2013-02-26 03:22:00,
2013-02-25 20:23:00,43.7,9.8,29.97,South,180,3.6,4.7,25,0.00,,,0.00,WUHU216HW,2013-02-26 03:23:00,
2013-02-25 20:24:00,43.7,9.8,29.97,SSW,203,4.3,4.7,25,0.00,,,0.00,WUHU216HW,2013-02-26 03:24:00,
2013-02-25 20:25:00,43.6,9.6,29.97,South,180,4.0,4.7,25,0.00,,,0.00,WUHU216HW,2013-02-26 03:25:00,
2013-02-25 20:26:00,43.6,9.6,29.97,SSW,203,4.0,5.6,25,0.00,,,0.00,WUHU216HW,2013-02-26 03:26:00,
2013-02-25 20:27:00,43.6,9.6,29.97,South,180,4.3,5.6,25,0.00,,,0.00,WUHU216HW,2013-02-26 03:27:00,
2013-02-25 20:28:00,43.6,9.6,29.97,SSW,203,4.0,5.6,25,0.00,,,0.00,WUHU216HW,2013-02-26 03:28:00,
2013-02-25 20:29:00,43.6,9.6,29.98,SW,225,3.8,5.6,25,0.00,,,0.00,WUHU216HW,2013-02-26 03:29:00,
2013-02-25 20:30:00,43.4,9.5,29.97,SSW,203,3.8,5.6,25,0.00,,,0.00,WUHU216HW,2013-02-26 03:30:00,
2013-02-25 20:31:00,43.4,9.5,29.97,SW,225,4.3,5.6,25,0.00,,,0.00,WUHU216HW,2013-02-26 03:31:00,
2013-02-25 20:32:00,43.2,9.4,29.97,SSW,203,2.9,5.6,25,0.00,,,0.00,WUHU216HW,2013-02-26 03:32:00,
2013-02-25 20:33:00,43.2,9.4,29.97,SSW,203,2.5,5.6,25,0.00,,,0.00,WUHU216HW,2013-02-26 03:33:00,
2013-02-25 20:34:00,43.2,9.4,29.97,SW,225,2.7,5.6,25,0.00,,,0.00,WUHU216HW,2013-02-26 03:34:00,
2013-02-25 20:35:00,43.0,9.2,29.97,SW,225,4.7,5.6,25,0.00,,,0.00,WUHU216HW,2013-02-26 03:35:00,
2013-02-25 20:36:00,43.0,9.2,29.97,WSW,248,2.9,4.7,25,0.00,,,0.00,WUHU216HW,2013-02-26 03:36:00,
2013-02-25 20:37:00,43.0,9.2,29.97,SW,225,3.1,4.7,25,0.00,,,0.00,WUHU216HW,2013-02-26 03:37:00,
2013-02-25 20:38:00,42.8,9.0,29.97,SW,225,4.0,4.7,25,0.00,,,0.00,WUHU216HW,2013-02-26 03:38:00,
2013-02-25 20:39:00,42.8,9.0,29.97,WSW,248,3.4,4.7,25,0.00,,,0.00,WUHU216HW,2013-02-26 03:39:00,
2013-02-25 20:40:00,42.8,9.0,29.97,SSW,203,3.6,4.7,25,0.00,,,0.00,WUHU216HW,2013-02-26 03:40:00,
2013-02-25 20:41:00,42.8,9.0,29.97,SSW,203,3.1,4.7,25,0.00,,,0.00,WUHU216HW,2013-02-26 03:41:00,
2013-02-25 20:42:00,42.8,9.0,29.97,South,180,4.0,5.8,25,0.00,,,0.00,WUHU216HW,2013-02-26 03:42:00,
2013-02-25 20:43:00,42.8,9.0,29.97,SSW,203,4.0,5.8,25,0.00,,,0.00,WUHU216HW,2013-02-26 03:43:00,
2013-02-25 20:44:00,42.8,9.9,29.97,SW,225,4.7,5.8,26,0.00,,,0.00,WUHU216HW,2013-02-26 03:44:00,
2013-02-25 20:45:00,42.8,9.0,29.97,SW,225,3.1,5.8,25,0.00,,,0.00,WUHU216HW,2013-02-26 03:45:00,
2013-02-25 20:46:00,42.8,9.0,29.97,SSW,203,4.0,5.8,25,0.00,,,0.00,WUHU216HW,2013-02-26 03:46:00,
2013-02-25 20:47:00,42.8,9.9,29.97,SW,225,3.8,5.8,26,0.00,,,0.00,WUHU216HW,2013-02-26 03:47:00,
2013-02-25 20:48:00,42.8,9.9,29.97,SW,225,3.6,5.8,26,0.00,,,0.00,WUHU216HW,2013-02-26 03:48:00,
2013-02-25 20:49:00,42.7,9.7,29.97,SW,225,4.0,5.8,26,0.00,,,0.00,WUHU216HW,2013-02-26 03:49:00,
2013-02-25 20:50:00,42.8,9.9,29.97,SW,225,3.6,5.8,26,0.00,,,0.00,WUHU216HW,2013-02-26 03:50:00,
2013-02-25 20:51:00,42.8,9.9,29.97,WSW,248,3.4,5.8,26,0.00,,,0.00,WUHU216HW,2013-02-26 03:51:00,
2013-02-25 20:52:00,42.7,9.7,29.97,SW,225,1.6,4.7,26,0.00,,,0.00,WUHU216HW,2013-02-26 03:52:00,
2013-02-25 20:53:00,42.7,9.7,29.97,WSW,248,2.7,4.7,26,0.00,,,0.00,WUHU216HW,2013-02-26 03:53:00,
2013-02-25 20:54:00,42.7,9.7,29.97,WSW,248,1.8,4.7,26,0.00,,,0.00,WUHU216HW,2013-02-26 03:54:00,
2013-02-25 20:55:00,42.7,9.7,29.97,WSW,248,1.8,4.7,26,0.00,,,0.00,WUHU216HW,2013-02-26 03:55:00,
2013-02-25 20:56:00,42.7,9.7,29.97,WSW,248,2.0,4.5,26,0.00,,,0.00,WUHU216HW,2013-02-26 03:56:00,
2013-02-25 20:57:00,42.7,9.7,29.97,SSW,203,0.4,4.5,26,0.00,,,0.00,WUHU216HW,2013-02-26 03:57:00,
2013-02-25 20:58:00,42.7,10.6,29.97,SSW,203,0.9,4.0,27,0.00,,,0.00,WUHU216HW,2013-02-26 03:58:00,
2013-02-25 20:59:00,42.8,10.8,29.97,SSW,203,0.0,4.0,27,0.00,,,0.00,WUHU216HW,2013-02-26 03:59:00,
2013-02-25 21:00:00,42.7,10.6,29.97,NW,315,0.4,3.6,27,0.00,,,0.00,WUHU216HW,2013-02-26 04:00:00,
2013-02-25 21:01:00,42.7,10.6,29.97,SSW,203,0.9,3.4,27,0.00,,,0.00,WUHU216HW,2013-02-26 04:01:00,
2013-02-25 21:02:00,42.7,10.6,29.97,WSW,248,0.9,2.7,27,0.00,,,0.00,WUHU216HW,2013-02-26 04:02:00,
2013-02-25 21:03:00,42.7,10.6,29.98,SSE,158,0.9,2.5,27,0.00,,,0.00,WUHU216HW,2013-02-26 04:03:00,
2013-02-25 21:04:00,42.7,10.6,29.97,South,180,1.8,2.5,27,0.00,,,0.00,WUHU216HW,2013-02-26 04:04:00,
2013-02-25 21:05:00,42.5,10.5,29.97,South,180,0.2,2.5,27,0.00,,,0.00,WUHU216HW,2013-02-26 04:05:00,
2013-02-25 21:06:00,42.5,10.5,29.97,SSW,203,1.8,2.5,27,0.00,,,0.00,WUHU216HW,2013-02-26 04:06:00,
2013-02-25 21:07:00,42.5,10.5,29.97,SSW,203,2.0,2.5,27,0.00,,,0.00,WUHU216HW,2013-02-26 04:07:00,
2013-02-25 21:08:00,42.5,10.5,29.98,SSW,203,3.6,3.6,27,0.00,,,0.00,WUHU216HW,2013-02-26 04:08:00,
2013-02-25 21:09:00,42.3,10.4,29.98,SSW,203,2.0,4.3,27,0.00,,,0.00,WUHU216HW,2013-02-26 04:09:00,
2013-02-25 21:10:00,42.3,10.4,29.98,SW,225,1.6,4.3,27,0.00,,,0.00,WUHU216HW,2013-02-26 04:10:00,
2013-02-25 21:11:00,42.3,10.4,29.98,SW,225,2.2,4.3,27,0.00,,,0.00,WUHU216HW,2013-02-26 04:11:00,
2013-02-25 21:12:00,42.1,10.3,29.98,NW,315,0.9,4.3,27,0.00,,,0.00,WUHU216HW,2013-02-26 04:12:00,
2013-02-25 21:13:00,42.1,10.3,29.98,East,90,0.2,4.3,27,0.00,,,0.00,WUHU216HW,2013-02-26 04:13:00,
2013-02-25 21:14:00,42.1,10.3,29.98,East,90,0.4,4.3,27,0.00,,,0.00,WUHU216HW,2013-02-26 04:14:00,
2013-02-25 21:15:00,41.9,10.1,29.98,North,0,0.4,4.3,27,0.00,,,0.00,WUHU216HW,2013-02-26 04:15:00,
2013-02-25 21:16:00,41.9,10.1,29.98,North,0,0.7,4.3,27,0.00,,,0.00,WUHU216HW,2013-02-26 04:16:00,
2013-02-25 21:17:00,41.8,9.9,29.98,North,0,0.7,4.3,27,0.00,,,0.00,WUHU216HW,2013-02-26 04:17:00,
2013-02-25 21:18:00,41.8,9.9,29.98,NNW,338,0.4,4.3,27,0.00,,,0.00,WUHU216HW,2013-02-26 04:18:00,
2013-02-25 21:19:00,41.6,9.8,29.98,NW,315,0.9,2.2,27,0.00,,,0.00,WUHU216HW,2013-02-26 04:19:00,
2013-02-25 21:20:00,41.6,9.8,29.98,WNW,293,2.0,2.2,27,0.00,,,0.00,WUHU216HW,2013-02-26 04:20:00,
2013-02-25 21:21:00,41.4,9.6,29.98,West,270,0.9,2.2,27,0.00,,,0.00,WUHU216HW,2013-02-26 04:21:00,
2013-02-25 21:22:00,41.4,9.6,29.98,WSW,248,1.3,2.0,27,0.00,,,0.00,WUHU216HW,2013-02-26 04:22:00,
2013-02-25 21:23:00,41.4,9.6,29.98,SW,225,1.8,2.0,27,0.00,,,0.00,WUHU216HW,2013-02-26 04:23:00,
2013-02-25 21:24:00,41.2,9.6,29.98,SW,225,2.5,2.5,27,0.00,,,0.00,WUHU216HW,2013-02-26 04:24:00,
2013-02-25 21:25:00,41.2,9.6,29.98,SW,225,3.4,4.5,27,0.00,,,0.00,WUHU216HW,2013-02-26 04:25:00,
2013-02-25 21:26:00,41.2,9.6,29.98,West,270,1.8,4.5,27,0.00,,,0.00,WUHU216HW,2013-02-26 04:26:00,
2013-02-25 21:27:00,41.0,9.4,29.98,WSW,248,3.4,4.5,27,0.00,,,0.00,WUHU216HW,2013-02-26 04:27:00,
2013-02-25 21:28:00,41.0,9.4,29.98,West,270,3.1,4.5,27,0.00,,,0.00,WUHU216HW,2013-02-26 04:28:00,
2013-02-25 21:29:00,41.0,9.4,29.98,SW,225,4.9,7.4,27,0.00,,,0.00,WUHU216HW,2013-02-26 04:29:00,
2013-02-25 21:30:00,41.0,9.4,29.98,SW,225,3.1,7.4,27,0.00,,,0.00,WUHU216HW,2013-02-26 04:30:00,
2013-02-25 21:31:00,41.0,9.4,29.98,SW,225,5.1,7.4,27,0.00,,,0.00,WUHU216HW,2013-02-26 04:31:00,
2013-02-25 21:32:00,41.0,9.4,29.98,SW,225,3.4,7.4,27,0.00,,,0.00,WUHU216HW,2013-02-26 04:32:00,
2013-02-25 21:33:00,41.0,9.4,29.98,WSW,248,4.9,7.4,27,0.00,,,0.00,WUHU216HW,2013-02-26 04:33:00,
2013-02-25 21:34:00,41.0,9.4,29.98,SW,225,4.3,7.4,27,0.00,,,0.00,WUHU216HW,2013-02-26 04:34:00,
2013-02-25 21:35:00,41.0,9.4,29.98,WSW,248,6.3,7.4,27,0.00,,,0.00,WUHU216HW,2013-02-26 04:35:00,
2013-02-25 21:36:00,41.0,9.4,29.98,SSW,203,4.7,7.4,27,0.00,,,0.00,WUHU216HW,2013-02-26 04:36:00,
2013-02-25 21:37:00,41.0,9.4,29.98,WSW,248,5.8,7.4,27,0.00,,,0.00,WUHU216HW,2013-02-26 04:37:00,
2013-02-25 21:38:00,41.0,9.4,29.98,WSW,248,3.6,7.4,27,0.00,,,0.00,WUHU216HW,2013-02-26 04:38:00,
2013-02-25 21:39:00,41.0,9.4,29.98,WSW,248,4.7,6.3,27,0.00,,,0.00,WUHU216HW,2013-02-26 04:39:00,
2013-02-25 21:40:00,41.0,9.4,29.98,SW,225,5.8,6.3,27,0.00,,,0.00,WUHU216HW,2013-02-26 04:40:00,
2013-02-25 21:41:00,41.0,9.4,29.98,WSW,248,5.4,6.3,27,0.00,,,0.00,WUHU216HW,2013-02-26 04:41:00,
2013-02-25 21:42:00,41.0,9.4,29.98,WSW,248,5.8,6.3,27,0.00,,,0.00,WUHU216HW,2013-02-26 04:42:00,
2013-02-25 21:43:00,41.2,9.6,29.97,SSW,203,5.4,6.3,27,0.00,,,0.00,WUHU216HW,2013-02-26 04:43:00,
2013-02-25 21:44:00,41.2,9.6,29.98,West,270,3.4,6.3,27,0.00,,,0.00,WUHU216HW,2013-02-26 04:44:00,
2013-02-25 21:45:00,41.2,9.6,29.98,WSW,248,5.4,6.3,27,0.00,,,0.00,WUHU216HW,2013-02-26 04:45:00,
2013-02-25 21:46:00,41.2,9.6,29.98,WSW,248,4.0,6.3,27,0.00,,,0.00,WUHU216HW,2013-02-26 04:46:00,
2013-02-25 21:47:00,41.2,9.6,29.98,WSW,248,3.4,6.3,27,0.00,,,0.00,WUHU216HW,2013-02-26 04:47:00,
2013-02-25 21:48:00,41.2,9.6,29.97,WSW,248,2.0,6.3,27,0.00,,,0.00,WUHU216HW,2013-02-26 04:48:00,
2013-02-25 21:49:00,41.2,9.6,29.97,WSW,248,3.4,6.3,27,0.00,,,0.00,WUHU216HW,2013-02-26 04:49:00,
2013-02-25 21:50:00,41.2,9.6,29.97,WSW,248,1.6,6.3,27,0.00,,,0.00,WUHU216HW,2013-02-26 04:50:00,
2013-02-25 21:51:00,41.0,9.4,29.98,SW,225,1.1,6.3,27,0.00,,,0.00,WUHU216HW,2013-02-26 04:51:00,
2013-02-25 21:52:00,41.0,9.4,29.98,SW,225,1.3,6.3,27,0.00,,,0.00,WUHU216HW,2013-02-26 04:52:00,
2013-02-25 21:53:00,41.0,9.4,29.98,WSW,248,1.6,6.0,27,0.00,,,0.00,WUHU216HW,2013-02-26 04:53:00,
2013-02-25 21:54:00,41.0,9.4,29.98,SSW,203,2.9,5.8,27,0.00,,,0.00,WUHU216HW,2013-02-26 04:54:00,
2013-02-25 21:55:00,40.9,9.2,29.97,West,270,1.3,5.8,27,0.00,,,0.00,WUHU216HW,2013-02-26 04:55:00,
2013-02-25 21:56:00,40.9,9.2,29.97,WSW,248,2.2,4.0,27,0.00,,,0.00,WUHU216HW,2013-02-26 04:56:00,
2013-02-25 21:57:00,40.7,9.0,29.97,SSW,203,1.8,4.0,27,0.00,,,0.00,WUHU216HW,2013-02-26 04:57:00,
2013-02-25 21:58:00,40.7,9.0,29.97,SSW,203,3.4,4.0,27,0.00,,,0.00,WUHU216HW,2013-02-26 04:58:00,
2013-02-25 21:59:00,40.7,9.0,29.97,WSW,248,1.6,4.0,27,0.00,,,0.00,WUHU216HW,2013-02-26 04:59:00,
2013-02-25 22:00:00,40.7,9.0,29.97,WNW,293,1.8,4.0,27,0.00,,,0.00,WUHU216HW,2013-02-26 05:00:00,
2013-02-25 22:01:00,40.5,8.9,29.97,WNW,293,1.1,4.0,27,0.00,,,0.00,WUHU216HW,2013-02-26 05:01:00,
2013-02-25 22:02:00,40.5,9.8,29.97,North,0,0.4,4.0,28,0.00,,,0.00,WUHU216HW,2013-02-26 05:02:00,
2013-02-25 22:03:00,40.5,8.9,29.97,North,0,0.2,4.0,27,0.00,,,0.00,WUHU216HW,2013-02-26 05:03:00,
2013-02-25 22:04:00,40.3,8.7,29.97,SSW,203,0.4,4.0,27,0.00,,,0.00,WUHU216HW,2013-02-26 05:04:00,
2013-02-25 22:05:00,40.3,9.6,29.97,West,270,0.0,3.4,28,0.00,,,0.00,WUHU216HW,2013-02-26 05:05:00,
2013-02-25 22:06:00,40.3,9.6,29.97,WNW,293,0.7,3.4,28,0.00,,,0.00,WUHU216HW,2013-02-26 05:06:00,
2013-02-25 22:07:00,40.1,9.5,29.97,North,0,0.4,3.4,28,0.00,,,0.00,WUHU216HW,2013-02-26 05:07:00,
2013-02-25 22:08:00,40.1,9.5,29.97,NNW,338,0.4,3.4,28,0.00,,,0.00,WUHU216HW,2013-02-26 05:08:00,
2013-02-25 22:09:00,40.1,9.5,29.97,NNW,338,0.9,1.8,28,0.00,,,0.00,WUHU216HW,2013-02-26 05:09:00,
2013-02-25 22:10:00,40.0,9.3,29.97,NNW,338,0.9,1.8,28,0.00,,,0.00,WUHU216HW,2013-02-26 05:10:00,
2013-02-25 22:11:00,40.0,9.3,29.97,SW,225,1.8,1.8,28,0.00,,,0.00,WUHU216HW,2013-02-26 05:11:00,
2013-02-25 22:12:00,40.0,9.3,29.97,WSW,248,1.1,1.8,28,0.00,,,0.00,WUHU216HW,2013-02-26 05:12:00,
2013-02-25 22:13:00,40.0,9.3,29.97,SW,225,2.5,2.5,28,0.00,,,0.00,WUHU216HW,2013-02-26 05:13:00,
2013-02-25 22:14:00,39.8,9.1,29.96,WSW,248,1.8,2.5,28,0.00,,,0.00,WUHU216HW,2013-02-26 05:14:00,
2013-02-25 22:15:00,39.8,9.1,29.96,SSW,203,3.6,3.6,28,0.00,,,0.00,WUHU216HW,2013-02-26 05:15:00,
2013-02-25 22:16:00,39.8,9.1,29.96,WSW,248,2.9,3.6,28,0.00,,,0.00,WUHU216HW,2013-02-26 05:16:00,
2013-02-25 22:17:00,39.8,9.1,29.96,WSW,248,0.9,3.6,28,0.00,,,0.00,WUHU216HW,2013-02-26 05:17:00,
2013-02-25 22:18:00,39.6,9.0,29.96,SSW,203,1.8,3.6,28,0.00,,,0.00,WUHU216HW,2013-02-26 05:18:00,
2013-02-25 22:19:00,39.6,9.0,29.96,WSW,248,2.5,3.6,28,0.00,,,0.00,WUHU216HW,2013-02-26 05:19:00,
2013-02-25 22:20:00,39.6,9.0,29.96,WSW,248,3.4,3.6,28,0.00,,,0.00,WUHU216HW,2013-02-26 05:20:00,
2013-02-25 22:21:00,39.6,9.0,29.96,WSW,248,3.1,4.0,28,0.00,,,0.00,WUHU216HW,2013-02-26 05:21:00,
2013-02-25 22:22:00,39.4,8.8,29.96,SSW,203,2.0,4.0,28,0.00,,,0.00,WUHU216HW,2013-02-26 05:22:00,
2013-02-25 22:23:00,39.4,8.8,29.96,SW,225,3.4,4.0,28,0.00,,,0.00,WUHU216HW,2013-02-26 05:23:00,
2013-02-25 22:24:00,39.4,8.8,29.96,South,180,1.1,4.0,28,0.00,,,0.00,WUHU216HW,2013-02-26 05:24:00,
2013-02-25 22:25:00,39.2,8.6,29.96,ESE,113,1.3,4.0,28,0.00,,,0.00,WUHU216HW,2013-02-26 05:25:00,
2013-02-25 22:26:00,39.2,8.6,29.96,ENE,68,1.8,4.0,28,0.00,,,0.00,WUHU216HW,2013-02-26 05:26:00,
2013-02-25 22:27:00,39.2,8.6,29.96,NNE,23,3.4,4.0,28,0.00,,,0.00,WUHU216HW,2013-02-26 05:27:00,
2013-02-25 22:28:00,39.2,8.6,29.96,North,0,1.1,4.0,28,0.00,,,0.00,WUHU216HW,2013-02-26 05:28:00,
2013-02-25 22:29:00,39.2,8.6,29.96,NNW,338,1.6,4.0,28,0.00,,,0.00,WUHU216HW,2013-02-26 05:29:00,
2013-02-25 22:30:00,39.1,8.5,29.97,NNW,338,0.4,4.0,28,0.00,,,0.00,WUHU216HW,2013-02-26 05:30:00,
2013-02-25 22:31:00,39.1,8.5,29.97,NNW,338,0.4,3.4,28,0.00,,,0.00,WUHU216HW,2013-02-26 05:31:00,
2013-02-25 22:32:00,39.1,9.4,29.97,NNW,338,0.9,3.4,29,0.00,,,0.00,WUHU216HW,2013-02-26 05:32:00,
2013-02-25 22:33:00,38.9,9.2,29.96,North,0,1.6,3.4,29,0.00,,,0.00,WUHU216HW,2013-02-26 05:33:00,
2013-02-25 22:34:00,38.9,9.2,29.96,North,0,1.1,3.4,29,0.00,,,0.00,WUHU216HW,2013-02-26 05:34:00,
2013-02-25 22:35:00,38.7,9.1,29.96,NNE,23,0.0,3.4,29,0.00,,,0.00,WUHU216HW,2013-02-26 05:35:00,
2013-02-25 22:36:00,38.5,8.9,29.96,NNE,23,0.0,3.4,29,0.00,,,0.00,WUHU216HW,2013-02-26 05:36:00,
2013-02-25 22:37:00,38.5,8.9,29.96,NNE,23,0.0,3.4,29,0.00,,,0.00,WUHU216HW,2013-02-26 05:37:00,
2013-02-25 22:38:00,38.5,8.9,29.96,NNE,23,0.0,3.4,29,0.00,,,0.00,WUHU216HW,2013-02-26 05:38:00,
2013-02-25 22:39:00,38.5,8.9,29.96,ENE,68,0.9,1.6,29,0.00,,,0.00,WUHU216HW,2013-02-26 05:39:00,
2013-02-25 22:40:00,38.5,8.9,29.96,South,180,0.9,1.6,29,0.00,,,0.00,WUHU216HW,2013-02-26 05:40:00,
2013-02-25 22:41:00,38.3,7.8,29.96,SW,225,0.4,1.6,28,0.00,,,0.00,WUHU216HW,2013-02-26 05:41:00,
2013-02-25 22:42:00,38.3,7.8,29.96,South,180,0.2,1.6,28,0.00,,,0.00,WUHU216HW,2013-02-26 05:42:00,
2013-02-25 22:43:00,38.2,7.7,29.96,SW,225,1.3,1.6,28,0.00,,,0.00,WUHU216HW,2013-02-26 05:43:00,
2013-02-25 22:44:00,38.0,7.6,29.96,SW,225,0.0,1.6,28,0.00,,,0.00,WUHU216HW,2013-02-26 05:44:00,
2013-02-25 22:45:00,38.0,7.6,29.96,South,180,0.4,1.6,28,0.00,,,0.00,WUHU216HW,2013-02-26 05:45:00,
2013-02-25 22:46:00,38.0,7.6,29.96,South,180,0.4,1.6,28,0.00,,,0.00,WUHU216HW,2013-02-26 05:46:00,
2013-02-25 22:47:00,37.8,7.4,29.96,SE,135,0.0,1.6,28,0.00,,,0.00,WUHU216HW,2013-02-26 05:47:00,
2013-02-25 22:48:00,37.8,7.4,29.96,WSW,248,0.2,1.6,28,0.00,,,0.00,WUHU216HW,2013-02-26 05:48:00,
2013-02-25 22:49:00,37.8,7.4,29.96,NW,315,0.4,1.6,28,0.00,,,0.00,WUHU216HW,2013-02-26 05:49:00,
2013-02-25 22:50:00,37.6,7.2,29.95,NNW,338,0.2,1.6,28,0.00,,,0.00,WUHU216HW,2013-02-26 05:50:00,
2013-02-25 22:51:00,37.6,7.2,29.95,NNW,338,0.0,1.6,28,0.00,,,0.00,WUHU216HW,2013-02-26 05:51:00,
2013-02-25 22:52:00,37.6,7.2,29.95,NNW,338,0.2,1.6,28,0.00,,,0.00,WUHU216HW,2013-02-26 05:52:00,
2013-02-25 22:53:00,37.4,7.0,29.95,SSE,158,1.1,1.1,28,0.00,,,0.00,WUHU216HW,2013-02-26 05:53:00,
2013-02-25 22:54:00,37.4,7.0,29.95,SE,135,0.4,1.1,28,0.00,,,0.00,WUHU216HW,2013-02-26 05:54:00,
2013-02-25 22:55:00,37.4,7.9,29.95,SE,135,1.1,1.1,29,0.00,,,0.00,WUHU216HW,2013-02-26 05:55:00,
2013-02-25 22:56:00,37.4,7.9,29.95,SE,135,0.2,1.1,29,0.00,,,0.00,WUHU216HW,2013-02-26 05:56:00,
2013-02-25 22:57:00,37.4,7.9,29.95,SE,135,0.4,1.1,29,0.00,,,0.00,WUHU216HW,2013-02-26 05:57:00,
2013-02-25 22:58:00,37.3,7.7,29.95,SE,135,0.2,1.1,29,0.00,,,0.00,WUHU216HW,2013-02-26 05:58:00,
2013-02-25 22:59:00,37.3,7.7,29.95,SE,135,0.0,1.1,29,0.00,,,0.00,WUHU216HW,2013-02-26 05:59:00,
2013-02-25 23:00:00,37.1,7.7,29.95,SE,135,0.0,1.1,29,0.00,,,0.00,WUHU216HW,2013-02-26 06:00:00,
2013-02-25 23:01:00,37.1,7.7,29.95,SE,135,0.0,1.1,29,0.00,,,0.00,WUHU216HW,2013-02-26 06:01:00,
2013-02-25 23:02:00,37.1,7.7,29.95,SE,135,0.4,1.1,29,0.00,,,0.00,WUHU216HW,2013-02-26 06:02:00,
2013-02-25 23:03:00,37.1,7.7,29.95,SE,135,0.4,1.1,29,0.00,,,0.00,WUHU216HW,2013-02-26 06:03:00,
2013-02-25 23:04:00,37.1,7.7,29.95,SE,135,0.4,1.1,29,0.00,,,0.00,WUHU216HW,2013-02-26 06:04:00,
2013-02-25 23:05:00,36.9,7.5,29.95,SE,135,1.1,1.1,29,0.00,,,0.00,WUHU216HW,2013-02-26 06:05:00,
2013-02-25 23:06:00,36.9,7.5,29.95,SE,135,0.4,1.1,29,0.00,,,0.00,WUHU216HW,2013-02-26 06:06:00,
2013-02-25 23:07:00,36.7,7.3,29.96,SE,135,0.7,1.1,29,0.00,,,0.00,WUHU216HW,2013-02-26 06:07:00,
2013-02-25 23:08:00,36.7,7.3,29.96,SE,135,2.7,2.7,29,0.00,,,0.00,WUHU216HW,2013-02-26 06:08:00,
2013-02-25 23:09:00,36.7,7.3,29.95,SE,135,1.8,2.7,29,0.00,,,0.00,WUHU216HW,2013-02-26 06:09:00,
2013-02-25 23:10:00,36.7,7.3,29.95,SE,135,1.6,2.7,29,0.00,,,0.00,WUHU216HW,2013-02-26 06:10:00,
2013-02-25 23:11:00,36.5,7.1,29.95,SSE,158,0.9,2.7,29,0.00,,,0.00,WUHU216HW,2013-02-26 06:11:00,
2013-02-25 23:12:00,36.5,7.1,29.96,South,180,1.1,2.7,29,0.00,,,0.00,WUHU216HW,2013-02-26 06:12:00,
2013-02-25 23:13:00,36.4,7.0,29.96,SE,135,2.0,2.9,29,0.00,,,0.00,WUHU216HW,2013-02-26 06:13:00,
2013-02-25 23:14:00,36.4,7.0,29.96,South,180,1.1,2.9,29,0.00,,,0.00,WUHU216HW,2013-02-26 06:14:00,
2013-02-25 23:15:00,36.4,7.0,29.95,SE,135,1.6,2.9,29,0.00,,,0.00,WUHU216HW,2013-02-26 06:15:00,
2013-02-25 23:16:00,36.4,7.0,29.95,SE,135,1.3,2.9,29,0.00,,,0.00,WUHU216HW,2013-02-26 06:16:00,
2013-02-25 23:17:00,36.4,7.0,29.95,SSE,158,1.1,2.9,29,0.00,,,0.00,WUHU216HW,2013-02-26 06:17:00,
2013-02-25 23:18:00,36.2,6.9,29.95,SE,135,0.9,2.9,29,0.00,,,0.00,WUHU216HW,2013-02-26 06:18:00,
2013-02-25 23:19:00,36.2,7.7,29.95,SE,135,2.2,2.9,30,0.00,,,0.00,WUHU216HW,2013-02-26 06:19:00,
2013-02-25 23:20:00,36.2,6.9,29.95,SE,135,0.7,2.9,29,0.00,,,0.00,WUHU216HW,2013-02-26 06:20:00,
2013-02-25 23:21:00,36.0,7.6,29.95,SE,135,1.8,2.9,30,0.00,,,0.00,WUHU216HW,2013-02-26 06:21:00,
2013-02-25 23:22:00,36.0,7.6,29.95,SE,135,1.6,2.9,30,0.00,,,0.00,WUHU216HW,2013-02-26 06:22:00,
2013-02-25 23:23:00,36.0,7.6,29.95,SW,225,1.8,2.9,30,0.00,,,0.00,WUHU216HW,2013-02-26 06:23:00,
2013-02-25 23:24:00,36.0,7.6,29.95,SSE,158,0.4,2.5,30,0.00,,,0.00,WUHU216HW,2013-02-26 06:24:00,
2013-02-25 23:25:00,36.0,7.6,29.95,SSE,158,0.7,2.5,30,0.00,,,0.00,WUHU216HW,2013-02-26 06:25:00,
2013-02-25 23:26:00,35.8,7.4,29.95,SSE,158,0.2,2.5,30,0.00,,,0.00,WUHU216HW,2013-02-26 06:26:00,
2013-02-25 23:27:00,35.8,7.4,29.95,SE,135,1.1,2.5,30,0.00,,,0.00,WUHU216HW,2013-02-26 06:27:00,
2013-02-25 23:28:00,35.8,7.4,29.95,SE,135,2.0,2.5,30,0.00,,,0.00,WUHU216HW,2013-02-26 06:28:00,
2013-02-25 23:29:00,35.8,7.4,29.95,SE,135,2.0,2.5,30,0.00,,,0.00,WUHU216HW,2013-02-26 06:29:00,
2013-02-25 23:30:00,35.6,7.2,29.95,South,180,2.2,2.7,30,0.00,,,0.00,WUHU216HW,2013-02-26 06:30:00,
2013-02-25 23:31:00,35.6,7.2,29.95,SSE,158,1.6,2.9,30,0.00,,,0.00,WUHU216HW,2013-02-26 06:31:00,
2013-02-25 23:32:00,35.6,7.2,29.95,SE,135,2.5,2.9,30,0.00,,,0.00,WUHU216HW,2013-02-26 06:32:00,
2013-02-25 23:33:00,35.6,7.2,29.95,SE,135,2.7,2.9,30,0.00,,,0.00,WUHU216HW,2013-02-26 06:33:00,
2013-02-25 23:34:00,35.6,7.2,29.95,ESE,113,3.4,3.4,30,0.00,,,0.00,WUHU216HW,2013-02-26 06:34:00,
2013-02-25 23:35:00,35.6,7.2,29.95,SSE,158,4.5,4.5,30,0.00,,,0.00,WUHU216HW,2013-02-26 06:35:00,
2013-02-25 23:36:00,35.6,7.2,29.95,SE,135,2.2,4.5,30,0.00,,,0.00,WUHU216HW,2013-02-26 06:36:00,
2013-02-25 23:37:00,35.6,7.2,29.95,SE,135,2.5,4.5,30,0.00,,,0.00,WUHU216HW,2013-02-26 06:37:00,
2013-02-25 23:38:00,35.6,7.2,29.95,SSW,203,3.4,4.5,30,0.00,,,0.00,WUHU216HW,2013-02-26 06:38:00,
2013-02-25 23:39:00,35.6,7.2,29.95,SSE,158,2.0,4.5,30,0.00,,,0.00,WUHU216HW,2013-02-26 06:39:00,
2013-02-25 23:40:00,35.6,7.2,29.95,SSW,203,1.8,4.5,30,0.00,,,0.00,WUHU216HW,2013-02-26 06:40:00,
2013-02-25 23:41:00,35.6,7.2,29.95,SW,225,1.8,4.5,30,0.00,,,0.00,WUHU216HW,2013-02-26 06:41:00,
2013-02-25 23:42:00,35.6,7.2,29.95,South,180,3.6,4.5,30,0.00,,,0.00,WUHU216HW,2013-02-26 06:42:00,
2013-02-25 23:43:00,35.6,7.2,29.95,SSE,158,1.1,4.5,30,0.00,,,0.00,WUHU216HW,2013-02-26 06:43:00,
2013-02-25 23:44:00,35.6,7.2,29.95,SSW,203,1.8,4.5,30,0.00,,,0.00,WUHU216HW,2013-02-26 06:44:00,
2013-02-25 23:45:00,35.6,7.2,29.95,SW,225,1.8,4.0,30,0.00,,,0.00,WUHU216HW,2013-02-26 06:45:00,
2013-02-25 23:46:00,35.6,7.2,29.95,South,180,2.5,4.0,30,0.00,,,0.00,WUHU216HW,2013-02-26 06:46:00,
2013-02-25 23:47:00,35.6,7.2,29.95,South,180,4.0,4.0,30,0.00,,,0.00,WUHU216HW,2013-02-26 06:47:00,
2013-02-25 23:48:00,35.6,7.2,29.95,SSE,158,1.1,4.0,30,0.00,,,0.00,WUHU216HW,2013-02-26 06:48:00,
2013-02-25 23:49:00,35.6,7.2,29.95,SSW,203,1.8,4.0,30,0.00,,,0.00,WUHU216HW,2013-02-26 06:49:00,
2013-02-25 23:50:00,35.6,7.2,29.95,SE,135,1.1,4.0,30,0.00,,,0.00,WUHU216HW,2013-02-26 06:50:00,
2013-02-25 23:51:00,35.6,7.2,29.95,ESE,113,0.0,4.0,30,0.00,,,0.00,WUHU216HW,2013-02-26 06:51:00,
2013-02-25 23:52:00,35.5,7.0,29.95,East,90,0.4,4.0,30,0.00,,,0.00,WUHU216HW,2013-02-26 06:52:00,
2013-02-25 23:53:00,35.6,7.2,29.95,ESE,113,0.7,4.0,30,0.00,,,0.00,WUHU216HW,2013-02-26 06:53:00,
2013-02-25 23:54:00,35.5,7.0,29.95,ESE,113,0.4,4.0,30,0.00,,,0.00,WUHU216HW,2013-02-26 06:54:00,
2013-02-25 23:55:00,35.5,7.0,29.95,ESE,113,0.9,4.0,30,0.00,,,0.00,WUHU216HW,2013-02-26 06:55:00,
2013-02-25 23:56:00,35.5,7.0,29.95,ENE,68,1.8,4.0,30,0.00,,,0.00,WUHU216HW,2013-02-26 06:56:00,
2013-02-25 23:57:00,35.5,7.0,29.95,ESE,113,0.7,4.0,30,0.00,,,0.00,WUHU216HW,2013-02-26 06:57:00,
2013-02-25 23:58:00,35.5,7.0,29.95,East,90,1.8,2.2,30,0.00,,,0.00,WUHU216HW,2013-02-26 06:58:00,
2013-02-25 23:59:00,35.5,7.0,29.95,ESE,113,1.8,2.2,30,0.00,,,0.00,WUHU216HW,2013-02-26 06:59:00,